[[{"header":{"parameterUnit":"m.s-1","parameterCategory":1,"la1":30.6,"la2":28.766,"lo1":-90.7593,"lo2":-88.6598,"dy":0.0162,"dx":0.0183,"nx":116,"ny":114,"refTime":"2023-05-07T00:00:00:Z","depth":0,"parameterNumber":2,"parameterNumberName":"U-component_of_WINDS"},"data":[0.0,0.0,0.0,0.0,0.0,0.0,0.0,0.0,0.0,0.0,0.0,0.0,0.0,0.0,0.0,0.0,0.0,0.0,0.0,0.0,0.0,0.0,0.0,0.0,0.0,0.0,0.0,0.0,0.0,0.0,0.0,0.0,0.0,0.0,0.0,0.0,0.0,0.0,0.0,0.0,0.0,0.0,0.0,0.0,0.0,0.0,0.0,0.0,0.0,0.0,0.0,0.0,0.0,0.0,0.0,0.0,0.0,0.0,0.0,0.0,0.0,0.0,0.0,0.0,0.0,0.0,0.0,0.0,0.0,0.0,0.0,0.0,0.0,0.0,0.0,0.0,0.0,0.0,0.0,0.0,0.0,0.0,0.0,0.0,0.0,0.0,0.0,0.0,0.0,0.0,0.0,0.0,0.0,0.0,0.0,0.0,0.0,0.0,0.0,0.0,0.0,0.0,0.0,0.0,0.0,0.0,0.0,0.0,0.0,0.0,0.0,0.0,0.0,0.0,0.0,0.0,0.0,0.0,0.0,0.0,0.0,0.0,0.0,0.0,0.0,0.0,0.0,0.0,0.0,0.0,0.0,0.0,0.0,0.0,0.0,0.0,0.0,0.0,0.0,0.0,0.0,0.0,0.0,0.0,0.0,0.0,0.0,0.0,0.0,0.0,0.0,0.0,0.0,0.0,0.0,0.0,0.0,0.0,0.0,0.0,0.0,0.0,0.0,0.0,0.0,0.0,0.0,0.0,0.0,0.0,0.0,0.0,0.0,0.0,0.0,0.0,0.0,0.0,0.0,0.0,0.0,0.0,0.0,0.0,0.0,0.0,0.0,0.0,0.0,0.0,0.0,0.0,0.0,0.0,0.0,0.0,0.0,0.0,0.0,0.0,0.0,0.0,0.0,0.0,0.0,0.0,0.0,0.0,0.0,0.0,0.0,0.0,0.0,0.0,0.0,0.0,0.0,0.0,0.0,0.0,0.0,0.0,0.0,0.0,0.0,0.0,0.0,0.0,0.0,0.0,0.0,0.0,0.0,0.0,0.0,0.0,0.0,0.0,0.0,0.0,0.0,0.0,0.0,0.0,0.0,0.0,0.0,0.0,0.0,0.0,0.0,0.0,0.0,0.0,0.0,0.0,0.0,0.0,0.0,0.0,0.0,0.0,0.0,0.0,0.0,0.0,0.0,0.0,0.0,0.0,0.0,0.0,0.0,0.0,0.0,0.0,0.0,0.0,0.0,0.0,0.0,0.0,0.0,0.0,0.0,0.0,0.0,0.0,0.0,0.0,0.0,0.0,0.0,0.0,0.0,0.0,0.0,0.0,0.0,0.0,0.0,0.0,0.0,0.0,0.0,0.0,0.0,0.0,0.0,0.0,0.0,0.0,0.0,0.0,0.0,0.0,0.0,0.0,0.0,0.0,0.0,0.0,0.0,0.0,0.0,0.0,0.0,0.0,0.0,0.0,0.0,0.0,0.0,0.0,0.0,0.0,0.0,0.0,0.0,0.0,0.0,0.0,0.0,0.0,0.0,0.0,0.0,0.0,0.0,0.0,0.0,0.0,0.0,0.0,0.0,0.0,0.0,0.0,0.0,0.0,0.0,0.0,0.0,0.0,0.0,0.0,0.0,0.0,0.0,0.0,0.0,0.0,0.0,0.0,0.0,0.0,0.0,0.0,0.0,0.0,0.0,0.0,0.0,0.0,0.0,0.0,0.0,0.0,0.0,0.0,0.0,0.0,0.0,0.0,0.0,0.0,0.0,0.0,0.0,0.0,0.0,0.0,0.0,0.0,0.0,0.0,0.0,0.0,0.0,0.0,0.0,0.0,0.0,0.0,0.0,0.0,0.0,0.0,0.0,0.0,0.0,0.0,0.0,0.0,0.0,0.0,0.0,0.0,0.0,0.0,0.0,0.0,0.0,0.0,0.0,0.0,0.0,0.0,0.0,0.0,0.0,0.0,0.0,0.0,0.0,0.0,0.0,0.0,0.0,0.0,0.0,0.0,0.0,0.0,0.0,0.0,0.0,0.0,0.0,0.0,0.0,0.0,0.0,0.0,0.0,0.0,0.0,0.0,0.0,0.0,0.0,0.0,0.0,0.0,0.0,0.0,0.0,0.0,0.0,0.0,0.0,0.0,0.0,0.0,0.0,0.0,0.0,0.0,0.0,0.0,0.0,0.0,0.0,0.0,0.0,0.0,0.0,0.0,0.0,0.0,0.0,0.0,0.0,0.0,0.0,0.0,0.0,0.0,0.0,0.0,0.0,0.0,0.0,0.0,0.0,0.0,0.0,0.0,0.0,0.0,0.0,0.0,0.0,0.0,0.0,0.0,0.0,0.0,0.0,0.0,0.0,0.0,0.0,0.0,0.0,0.0,0.0,0.0,0.0,0.0,0.0,0.0,0.0,0.0,0.0,0.0,0.0,0.0,0.0,0.0,0.0,0.0,0.0,0.0,0.0,0.0,0.0,0.0,0.0,0.0,0.0,0.0,0.0,0.0,0.0,0.0,0.0,0.0,0.0,0.0,0.0,0.0,0.0,0.0,0.0,0.0,0.0,0.0,0.0,0.0,0.0,0.0,0.0,0.0,0.0,0.0,0.0,0.0,0.0,0.0,0.0,0.0,0.0,0.0,0.0,0.0,0.0,0.0,0.0,0.0,0.0,0.0,0.0,0.0,0.0,0.0,0.0,0.0,0.0,0.0,0.0,0.0,0.0,0.0,0.0,0.0,0.0,0.0,0.0,0.0,0.0,0.0,0.0,0.0,0.0,0.0,0.0,0.0,0.0,0.0,0.0,0.0,0.0,0.0,0.0,0.0,0.0,0.0,0.0,0.0,0.0,0.0,0.0,0.0,0.0,0.0,0.0,0.0,0.0,0.0,0.0,0.0,0.0,0.0,0.0,0.0,0.0,0.0,0.0,0.0,0.0,0.0,0.0,0.0,0.0,0.0,0.0,0.0,0.0,0.0,0.0,0.0,0.0,0.0,0.0,0.0,0.0,0.0,0.0,0.0,0.0,0.0,0.0,0.0,0.0,0.0,0.0,0.0,0.0,0.0,0.0,0.0,0.0,0.0,0.0,0.0,0.0,0.0,0.0,0.0,0.0,0.0,0.0,0.0,0.0,0.0,0.0,0.0,0.0,0.0,0.0,0.0,0.0,0.0,0.0,0.0,0.0,0.0,0.0,0.0,0.0,0.0,0.0,0.0,0.0,0.0,0.0,0.0,0.0,0.0,0.0,0.0,0.0,0.0,0.0,0.0,0.0,0.0,0.0,0.0,0.0,0.0,0.0,0.0,0.0,0.0,0.0,0.0,0.0,0.0,0.0,0.0,0.0,0.0,0.0,0.0,0.0,0.0,0.0,0.0,0.0,0.0,0.0,0.0,0.0,0.0,0.0,0.0,0.0,0.0,0.0,0.0,0.0,0.0,0.0,0.0,0.0,0.0,0.0,0.0,0.0,0.0,0.0,0.0,0.0,0.0,0.0,0.0,0.0,0.0,0.0,0.0,0.0,0.0,0.0,0.0,0.0,0.0,0.0,0.0,0.0,0.0,0.0,0.0,0.0,0.0,0.0,0.0,0.0,0.0,0.0,0.0,0.0,0.0,0.0,0.0,0.0,0.0,0.0,0.0,0.0,0.0,0.0,0.0,0.0,0.0,0.0,0.0,0.0,0.0,0.0,0.0,0.0,0.0,0.0,0.0,0.0,0.0,0.0,0.0,0.0,0.0,0.0,0.0,0.0,0.0,0.0,0.0,0.0,0.0,0.0,0.0,0.0,0.0,0.0,0.0,0.0,0.0,0.0,0.0,0.0,0.0,0.0,0.0,0.0,0.0,0.0,0.0,0.0,0.0,0.0,0.0,0.0,0.0,0.0,0.0,0.0,0.0,0.0,0.0,0.0,0.0,0.0,0.0,0.0,0.0,0.0,0.0,0.0,0.0,0.0,0.0,0.0,0.0,0.0,0.0,0.0,0.0,0.0,0.0,0.0,0.0,0.0,0.0,0.0,0.0,0.0,0.0,0.0,0.0,0.0,0.0,0.0,0.0,0.0,0.0,0.0,0.0,0.0,0.0,0.0,0.0,0.0,0.0,0.0,0.0,0.0,0.0,0.0,0.0,0.0,0.0,0.0,0.0,0.0,0.0,0.0,0.0,0.0,0.0,0.0,0.0,0.0,0.0,0.0,0.0,0.0,0.0,0.0,0.0,0.0,0.0,0.0,0.0,0.0,0.0,0.0,0.0,0.0,0.0,0.0,0.0,0.0,0.0,0.0,0.0,0.0,0.0,0.0,0.0,0.0,0.0,0.0,0.0,0.0,0.0,0.0,0.0,0.0,0.0,0.0,0.0,0.0,0.0,0.0,0.0,0.0,0.0,0.0,0.0,0.0,0.0,0.0,0.0,0.0,0.0,0.0,0.0,0.0,0.0,0.0,0.0,0.0,0.0,0.0,0.0,0.0,0.0,0.0,0.0,0.0,0.0,0.0,0.0,0.0,0.0,0.0,0.0,0.0,0.0,0.0,0.0,0.0,0.0,0.0,0.0,0.0,0.0,0.0,0.0,0.0,0.0,0.0,0.0,0.0,0.0,0.0,0.0,0.0,0.0,0.0,0.0,0.0,0.0,0.0,0.0,0.0,0.0,0.0,0.0,0.0,0.0,0.0,0.0,0.0,0.0,0.0,0.0,0.0,0.0,0.0,0.0,0.0,0.0,0.0,0.0,0.0,0.0,0.0,0.0,0.0,0.0,0.0,0.0,0.0,0.0,0.0,0.0,0.0,0.0,0.0,0.0,0.0,0.0,0.0,0.0,0.0,0.0,0.0,0.0,0.0,0.0,0.0,0.0,0.0,0.0,0.0,0.0,0.0,0.0,0.0,0.0,0.0,0.0,0.0,0.0,0.0,0.0,0.0,0.0,0.0,0.0,0.0,0.0,0.0,0.0,0.0,0.0,0.0,0.0,0.0,0.0,0.0,0.0,0.0,0.0,0.0,0.0,0.0,0.0,0.0,0.0,0.0,0.0,0.0,0.0,0.0,0.0,0.0,0.0,0.0,0.0,0.0,0.0,0.0,0.0,0.0,0.0,0.0,0.0,0.0,0.0,0.0,0.0,0.0,0.0,0.0,0.0,0.0,0.0,0.0,0.0,0.0,0.0,0.0,0.0,0.0,0.0,0.0,0.0,0.0,0.0,0.0,0.0,0.0,0.0,0.0,0.0,0.0,0.0,0.0,0.0,0.0,0.0,0.0,0.0,0.0,0.0,0.0,0.0,0.0,0.0,0.0,0.0,0.0,0.0,0.0,0.0,0.0,0.0,0.0,0.0,0.0,0.0,0.0,0.0,0.0,0.0,0.0,0.0,0.0,0.0,0.0,0.0,0.0,0.0,0.0,0.0,0.0,0.0,0.0,0.0,0.0,0.0,0.0,0.0,0.0,0.0,0.0,0.0,0.0,0.0,0.0,0.0,0.0,0.0,0.0,0.0,0.0,0.0,0.0,0.0,0.0,0.0,0.0,0.0,0.0,0.0,0.0,0.0,0.0,0.0,0.0,0.0,0.0,0.0,0.0,0.0,0.0,0.0,0.0,0.0,0.0,0.0,0.0,0.0,0.0,0.0,0.0,0.0,0.0,0.0,0.0,0.0,0.0,0.0,0.0,0.0,0.0,0.0,0.0,0.0,0.0,0.0,0.0,0.0,0.0,0.0,0.0,0.0,0.0,0.0,0.0,0.0,0.0,0.0,0.0,0.0,0.0,0.0,0.0,0.0,0.0,0.0,0.0,0.0,0.0,0.0,0.0,0.0,0.0,0.0,0.0,0.0,0.0,0.0,0.0,0.0,0.0,0.0,0.0,0.0,0.0,0.0,0.0,0.0,0.0,0.0,0.0,0.0,0.0,0.0,0.0,0.0,0.0,0.0,0.0,0.0,0.0,0.0,0.0,0.0,0.0,0.0,0.0,0.0,0.0,0.0,0.0,0.0,0.0,0.0,0.0,0.0,0.0,0.0,0.0,0.0,0.0,0.0,0.0,0.0,0.0,0.0,0.0,0.0,0.0,0.0,0.0,0.0,0.0,0.0,0.0,0.0,0.0,0.0,0.0,0.0,0.0,0.0,3.1102,0.0,0.0,0.0,0.0,0.0,0.0,0.0,0.0,0.0,0.0,0.0,0.0,0.0,0.0,0.0,0.0,0.0,0.0,0.0,0.0,0.0,0.0,0.0,0.0,0.0,0.0,0.0,0.0,0.0,0.0,0.0,0.0,0.0,0.0,0.0,0.0,0.0,0.0,-0.0808,0.161,0.4664,0.8333,1.0584,1.2849,1.5074,0.0,0.0,0.0,0.0,0.0,0.0,0.0,0.0,0.0,0.0,0.0,0.0,0.0,0.0,0.0,0.0,0.0,0.0,0.0,0.0,0.0,0.0,0.0,0.0,0.0,0.0,0.0,0.0,0.0,0.0,0.0,0.0,0.0,0.0,0.0,0.0,0.0,0.0,0.0,0.0,0.0,0.0,0.0,0.0,0.0,0.0,0.0,0.0,0.0,0.0,0.0,0.0,0.0,0.0,0.0,0.0,0.0,0.0,0.0,0.0,0.0,0.0,0.0,0.0,0.0,0.0,0.0,0.0,0.0,0.0,0.0,3.3087,0.0,0.0,0.0,0.0,0.0,0.0,0.0,0.0,0.0,0.0,0.0,0.0,0.0,0.0,0.0,0.0,0.0,0.0,0.0,0.0,0.0,0.0,0.0,0.0,0.0,0.0,0.0,0.0,0.0,0.0,0.0,0.0,0.0,0.0,0.0,-0.508,-0.2997,-0.0659,0.2352,0.6001,1.0207,1.3338,1.5519,1.694,1.8387,0.0,0.0,0.0,0.0,0.0,0.0,0.0,0.0,0.0,0.0,0.0,0.0,0.0,0.0,0.0,0.0,0.0,0.0,0.0,0.0,0.0,0.0,0.0,0.0,0.0,0.0,0.0,0.0,0.0,0.0,0.0,0.0,0.0,0.0,0.0,0.0,0.0,0.0,0.0,0.0,0.0,0.0,0.0,0.0,0.0,0.0,0.0,0.0,0.0,0.0,0.0,0.0,0.0,0.0,0.0,0.0,0.0,0.0,0.0,0.0,0.0,0.0,0.0,0.0,2.0568,2.3966,2.5911,2.7981,3.0126,3.2109,3.3149,3.354,0.0,0.0,0.0,0.0,0.0,0.0,0.0,0.0,0.0,0.0,0.0,0.0,0.0,0.0,0.0,0.0,0.0,0.0,0.0,0.0,0.0,0.0,0.0,-1.3216,-1.3828,-1.3325,-1.3105,0.0,0.0,0.0,0.0,0.0,0.0,-0.6201,-0.4579,-0.258,-0.0088,0.416,0.7529,1.002,1.3222,1.5542,1.7096,1.8282,1.901,1.9273,0.0,0.0,0.0,0.0,0.0,0.0,0.0,0.0,0.0,0.0,0.0,0.0,0.0,0.0,0.0,0.0,0.0,0.0,0.0,0.0,0.0,0.0,0.0,0.0,0.0,0.0,0.0,0.0,0.0,0.0,0.0,0.0,0.0,0.0,0.0,0.0,0.0,0.0,0.0,0.0,0.0,3.2232,3.1776,0.0,0.0,0.0,0.0,0.0,0.0,0.0,0.0,0.0,0.0,0.0,0.0,0.0,0.0,1.9335,1.702,1.7333,2.0233,1.8508,2.0184,2.481,2.6981,2.9071,3.1011,3.2804,0.0,3.3062,3.4808,0.0,0.0,0.0,0.0,0.0,0.0,0.0,0.0,0.0,0.0,0.0,0.0,0.0,0.0,0.0,0.0,0.0,0.0,0.0,0.0,0.0,-1.3013,-1.3451,-1.4149,-1.2873,-1.213,-1.2232,0.0,0.0,0.0,0.0,-0.7142,-0.5478,-0.363,-0.1123,0.2038,0.5103,0.7574,0.9383,1.2625,1.4928,1.639,1.814,1.9311,1.9947,1.9121,0.0,0.0,0.0,0.0,0.0,0.0,0.0,0.0,0.0,0.0,0.0,0.0,0.0,0.0,0.0,0.0,0.0,0.0,0.0,0.0,0.0,0.0,0.0,0.0,0.0,0.0,0.0,0.0,0.0,0.0,0.0,0.0,0.0,0.0,0.0,0.0,0.0,0.0,0.0,3.47,3.4766,3.423,3.4753,3.4462,0.0,0.0,0.0,0.0,0.0,0.0,0.0,0.0,0.0,1.9727,2.1014,2.1563,2.1281,2.0456,2.1223,2.3512,2.2234,2.3547,2.7156,2.7774,2.9136,3.1118,3.237,3.3209,3.3697,3.4643,3.4055,3.2447,0.0,0.0,0.0,0.0,0.0,0.0,0.0,0.0,0.0,0.0,0.0,0.0,0.0,0.0,0.0,0.0,0.0,0.0,-1.3166,-1.3325,-1.3483,-1.3795,-1.2234,-1.1105,-1.0771,-0.9667,0.0,0.0,-0.7251,-0.6011,-0.4565,-0.2283,0.0486,0.3642,0.5404,0.7103,0.881,1.1796,1.3974,1.5439,1.754,1.9129,2.0191,1.9459,1.8324,1.6929,0.0,0.0,0.0,0.0,0.0,0.0,0.0,0.0,0.0,0.0,0.0,0.0,0.0,0.0,0.0,0.0,0.0,0.0,0.0,0.0,0.0,0.0,0.0,0.0,0.0,0.0,0.0,0.0,0.0,0.0,0.0,0.0,0.0,0.0,0.0,0.0,0.0,3.7093,3.6943,3.6935,3.679,3.6286,0.0,0.0,0.0,0.0,0.0,0.0,2.3879,2.2975,2.2544,2.2674,2.4293,2.4953,2.454,2.4953,2.5777,2.6952,2.645,2.7366,2.9466,2.9372,3.0221,3.1927,3.2947,3.3975,3.4939,3.4597,3.3791,3.2514,3.0275,2.7435,0.0,2.0903,1.8344,1.6028,0.0,0.0,0.0,0.0,0.0,0.0,0.0,0.0,0.0,0.0,0.0,-1.2929,-1.269,-1.3025,-1.2874,-1.1736,-1.0765,-0.9763,-0.8812,-0.859,-0.8033,-0.6871,-0.6401,-0.5253,-0.3351,-0.0364,0.1961,0.3691,0.4802,0.6407,0.8468,1.0757,1.2733,1.4434,1.622,1.8127,1.9954,1.9487,1.8778,1.7915,1.6364,0.0,0.0,0.0,0.0,0.0,0.0,0.0,0.0,0.0,0.0,0.0,0.0,0.0,0.0,0.0,0.0,0.0,0.0,0.0,0.0,0.0,0.0,0.0,0.0,0.0,0.0,0.0,0.0,0.0,0.0,0.0,0.0,0.0,0.0,0.0,0.0,0.0,0.0,3.9861,3.8329,0.0,0.0,0.0,0.0,3.1549,2.8962,2.7356,2.7263,2.6774,2.6897,2.7793,2.9493,3.0587,3.0949,3.0471,3.0452,3.0893,3.0376,3.044,3.1124,3.2488,3.3545,3.4303,3.5676,3.648,3.6645,3.5063,3.3551,3.2001,2.9858,2.6857,2.3339,2.0695,1.8142,1.5591,0.0,0.0,0.0,0.0,0.0,0.0,0.0,0.0,0.0,-1.2947,-1.3745,-1.437,-1.4689,-1.449,-1.3668,-1.1961,-1.0322,-0.8676,-0.6993,-0.6598,-0.5871,-0.459,-0.4117,-0.2774,-0.0377,0.109,0.2567,0.407,0.5101,0.6342,0.7794,0.9766,1.1309,1.258,1.4404,1.5966,1.721,1.797,1.8283,1.819,1.6753,1.5683,0.0,0.0,0.0,0.0,0.0,0.0,0.0,0.0,0.0,0.0,0.0,0.0,0.0,0.0,0.0,0.0,0.0,0.0,0.0,0.0,0.0,0.0,0.0,0.0,0.0,0.0,0.0,0.0,0.0,0.0,0.0,0.0,0.0,0.0,0.0,0.0,0.0,4.0608,4.0132,0.0,3.8285,3.7082,3.5932,3.4839,3.2985,3.1877,3.173,3.1905,3.2091,3.2264,3.3949,3.5021,3.5305,3.4801,3.516,3.6366,3.4013,3.3263,3.3936,3.2793,3.2526,3.2921,3.4212,3.4712,3.4618,3.4132,3.3764,3.3106,3.033,2.7145,2.3794,2.0576,1.7418,1.4106,0.0,0.0,0.0,0.0,0.0,0.0,0.0,0.0,0.0,-1.4311,-1.5231,-1.5863,-1.5925,-1.5554,-1.4293,-1.1714,-1.0014,-0.8024,-0.5487,-0.5084,-0.4403,-0.3168,-0.2375,-0.0869,0.1373,0.2156,0.3115,0.439,0.5107,0.5986,0.7012,0.8489,0.9693,1.0651,1.2474,1.3789,1.4676,1.5986,1.7045,1.7756,1.699,1.6368,1.5887,0.0,0.0,0.0,0.0,0.0,0.0,0.0,0.0,0.0,0.0,0.0,0.0,0.0,0.0,0.0,0.0,0.0,0.0,0.0,0.0,0.0,0.0,0.0,0.0,0.0,0.0,0.0,0.0,0.0,0.0,0.0,0.0,0.0,0.0,0.0,4.2347,4.1712,4.1163,4.0424,3.9276,3.8461,3.7851,3.741,3.6268,3.5693,3.5925,3.6727,3.7186,3.7246,3.8871,3.9861,4.0172,3.9585,3.9735,4.0692,3.8442,3.7217,3.6867,3.4855,3.3682,3.3295,3.3828,3.3849,3.3502,3.306,3.2524,3.1711,2.9198,2.6262,2.3047,1.9498,1.5734,1.1608,0.0,0.0,0.0,0.0,0.0,0.0,0.0,0.0,-1.5184,-1.55,-1.6797,-1.7279,-1.616,-1.607,-1.4602,-1.0832,-0.9753,-0.7845,-0.4393,-0.4251,-0.3845,-0.2779,-0.1209,0.033,0.1704,0.2756,0.3679,0.4442,0.4599,0.5149,0.6136,0.697,0.7804,0.8813,1.0453,1.1659,1.2599,1.3736,1.5152,1.6644,1.7027,1.6756,1.6222,0.0,0.0,0.0,0.0,0.0,0.0,0.0,0.0,0.0,0.0,0.0,0.0,0.0,0.0,0.0,0.0,0.0,0.0,0.0,0.0,0.0,0.0,0.0,0.0,0.0,0.0,0.0,0.0,0.0,0.0,0.0,0.0,0.0,4.4079,4.3426,4.2911,4.3178,4.1301,4.0186,4.063,3.9016,3.8276,3.9105,3.8656,3.8747,3.9641,4.1046,4.2103,4.2736,4.4265,4.523,4.555,4.4855,4.424,4.3731,4.3617,4.2228,3.9816,3.8786,3.7371,3.5694,3.4846,3.4154,3.3506,3.184,2.9725,2.7454,2.632,2.4022,2.0851,1.7322,1.2932,0.7831,0.0,0.0,0.0,0.0,0.0,0.0,0.0,-1.4746,-1.5191,-1.6229,-1.6896,-1.7082,-1.6631,-1.6566,-1.4802,-1.052,-0.9715,-0.7704,-0.3597,-0.4061,-0.3561,-0.1358,0.0217,0.15,0.2411,0.2652,0.3099,0.3717,0.3862,0.4247,0.478,0.5498,0.6219,0.6991,0.836,0.9615,1.0787,1.2009,1.3412,1.4903,1.5864,1.7115,1.8363,0.0,0.0,0.0,0.0,0.0,0.0,0.0,0.0,0.0,0.0,0.0,0.0,0.0,0.0,0.0,0.0,0.0,0.0,0.0,0.0,0.0,0.0,0.0,0.0,0.0,0.0,0.0,0.0,0.0,0.0,0.0,0.0,4.3197,4.498,4.4271,4.3485,4.3294,4.2586,4.167,4.0419,4.0376,4.0591,4.0807,4.1496,4.2304,4.3208,4.5286,4.6463,4.6494,4.8163,4.9106,4.9237,4.9234,4.9198,4.907,4.725,4.539,4.3426,4.0067,3.721,3.4861,3.3913,3.216,2.9855,2.867,2.5778,2.2106,2.177,1.9314,1.5551,1.1263,0.4885,-0.2145,0.0,0.0,0.0,0.0,0.0,0.0,0.0,-1.5758,-1.6344,-1.7113,-1.7646,-1.7824,-1.7533,-1.6954,-1.5038,-1.1198,-0.9566,-0.7316,-0.3903,-0.3384,-0.2151,0.0255,0.1165,0.2018,0.2936,0.2865,0.2903,0.3158,0.3224,0.3319,0.3501,0.418,0.4793,0.5423,0.688,0.8154,0.9305,1.0635,1.2167,1.3768,1.4797,1.6514,1.85,1.8858,1.9632,2.0551,2.0789,2.0961,2.0984,2.0352,0.0,0.0,0.0,0.0,0.0,0.0,0.0,0.0,0.0,0.0,0.0,0.0,0.0,0.0,0.0,0.0,0.0,0.0,0.0,0.0,0.0,0.0,0.0,0.0,4.1154,4.2204,4.4271,4.4279,4.3809,4.3064,4.2826,4.202,4.0308,4.1034,4.1569,4.1514,4.3324,4.4648,4.5265,4.7934,4.9366,4.9213,5.0835,5.1969,5.2459,5.2598,5.2731,5.2764,5.0996,4.8879,4.6435,4.2529,3.9082,0.0,3.3882,3.1251,2.8352,2.5765,2.1804,0.0,0.0,0.0,0.0,0.0,-0.2411,-0.7922,0.0,0.0,0.0,0.0,0.0,0.0,0.0,-1.7141,-1.8005,-1.8086,-1.8592,-1.8897,-1.8677,-1.739,-1.5386,-1.2437,-0.9666,-0.7031,-0.4555,-0.2312,-0.0231,0.1747,0.1776,0.2229,0.321,0.3061,0.2879,0.2677,0.2499,0.2446,0.2401,0.3006,0.3575,0.4253,0.5848,0.7166,0.8147,0.9628,1.132,1.3176,1.4026,1.5646,1.7666,1.9454,2.0403,2.0915,2.1965,2.2073,2.166,2.1057,0.0,0.0,0.0,0.0,0.0,0.0,0.0,0.0,0.0,0.0,0.0,0.0,0.0,0.0,0.0,0.0,0.0,0.0,0.0,0.0,0.0,0.0,0.0,0.0,3.9442,4.0544,4.2597,4.344,4.3551,4.2668,4.2324,4.1665,4.0347,4.1102,4.1644,4.1724,4.421,4.5937,4.6368,0.0,0.0,0.0,0.0,5.4039,5.5186,5.5123,5.5126,5.5294,5.4295,5.213,4.8899,4.5429,4.1896,3.8323,3.4494,3.1165,2.8043,2.322,1.7478,1.1651,1.0735,0.8172,0.3971,-0.469,-0.9166,0.0,0.0,0.0,0.0,0.0,0.0,0.0,0.0,-1.7175,-1.8042,-1.9049,-1.8573,-1.8463,-1.9376,-1.8458,-1.637,-1.2969,-1.1322,-0.8327,-0.3388,-0.1052,0.0733,0.1986,0.2377,0.2679,0.2881,0.2461,0.2106,0.1835,0.1627,0.1653,0.1868,0.2595,0.3249,0.3969,0.5403,0.6694,0.7889,0.9346,1.115,1.3092,1.4524,1.6532,1.8713,1.9776,2.1118,2.2495,2.2932,2.2926,2.2691,2.2378,2.1447,2.0131,1.8932,1.7385,0.0,0.0,0.0,0.0,0.0,0.0,0.0,0.0,0.0,0.0,0.0,0.0,0.0,0.0,0.0,0.0,0.0,0.0,0.0,3.6632,3.7643,3.8821,4.0646,4.1171,4.1681,4.2621,4.2472,4.1789,4.0565,4.1009,4.1706,4.2412,4.3912,4.5789,4.8057,5.0072,0.0,5.3107,5.4142,5.5409,5.6975,5.6419,5.6425,5.7064,0.0,0.0,5.0647,4.6541,4.2727,3.9155,3.5388,3.1314,2.6863,2.1371,1.1385,-0.047,-0.0824,-0.3778,-0.8315,-1.2367,-1.5742,-1.87,0.0,0.0,0.0,0.0,0.0,0.0,0.0,-1.7906,-1.8835,-1.975,-1.974,-1.9774,-2.0192,-1.899,-1.6817,-1.353,-1.0427,-0.6892,-0.2773,-0.0797,0.0856,0.2386,0.3017,0.333,0.3253,0.2457,0.1776,0.1216,0.1203,0.1223,0.1299,0.2359,0.3148,0.3758,0.5281,0.6662,0.7947,0.9445,1.127,1.3343,1.4738,1.6662,1.8794,1.9805,2.0775,2.173,2.2254,2.247,2.2434,2.1988,2.1381,2.0519,1.9187,1.7891,1.6435,0.0,0.0,0.0,0.0,0.0,0.0,0.0,0.0,0.0,0.0,0.0,0.0,0.0,0.0,2.9868,0.0,0.0,3.2685,3.4877,3.6093,3.7238,3.8606,3.926,4.01,4.1345,4.1418,4.0976,3.995,4.0698,4.1434,4.1874,4.3788,4.5651,4.7263,4.94,5.1113,5.2403,5.3674,5.5177,5.6874,5.6975,5.6998,5.6909,5.486,5.252,4.9886,4.6013,4.2549,3.9401,3.5635,3.1585,2.6881,1.6308,0.4884,-0.6189,-0.887,-1.1879,-1.5053,-1.7917,-2.0569,-2.3089,0.0,0.0,0.0,0.0,0.0,0.0,0.0,0.0,-1.9753,-2.0099,-2.0717,-2.1023,-2.0797,-1.9289,-1.6989,-1.3717,-0.9366,-0.5624,-0.2768,-0.1141,0.0603,0.2632,0.3532,0.3938,0.3709,0.273,0.1801,0.0956,0.1131,0.1205,0.1162,0.2397,0.3264,0.388,0.5439,0.6889,0.8205,0.9816,1.1822,1.4033,1.5088,1.6819,1.8791,1.9556,2.0055,2.037,2.094,2.1245,2.1331,2.0941,2.0696,2.0358,1.9146,1.8318,1.7291,1.4884,1.451,0.0,0.0,0.0,0.0,0.0,0.0,0.0,0.0,2.3948,2.53,2.7328,2.8276,2.9113,3.0235,3.0738,3.1495,3.3062,3.4307,3.5436,3.6405,3.7231,3.8018,3.8999,3.9748,3.9852,3.9122,4.0072,4.082,4.0934,4.3211,4.5006,4.5935,4.7868,4.9478,5.0702,5.2028,5.3641,5.5575,5.6286,5.6442,5.6053,5.4207,5.1715,4.8592,4.518,4.1949,3.8839,3.416,2.9439,2.4025,1.0289,-0.0665,-0.9315,-1.4565,-1.7612,-1.9363,-2.2056,-2.4328,-2.6476,0.0,0.0,0.0,0.0,0.0,0.0,0.0,0.0,0.0,-1.9951,-2.0045,-2.0282,-2.0599,-1.9502,-1.7051,-1.2814,-1.0353,-0.7501,-0.3863,-0.1958,0.0,0.2269,0.3675,0.4241,0.3794,0.3032,0.2296,0.158,0.1603,0.1782,0.2066,0.2938,0.3776,0.4552,0.5825,0.7203,0.8731,1.0573,1.2858,1.5305,1.6035,1.7607,1.9459,1.9008,1.9364,1.9998,1.9462,1.9205,1.925,1.9916,1.9848,1.9441,1.9321,1.8684,1.7665,1.6031,1.5078,1.4652,1.5089,1.6517,1.8731,2.2293,2.2543,2.3342,0.0,2.8708,2.8234,2.9699,3.0112,2.9887,2.8941,2.9392,3.0064,3.0724,3.1892,3.3039,3.4035,3.4329,3.4638,3.5156,3.7378,3.8711,3.8522,3.8941,3.9585,4.0427,4.1285,4.2963,4.5772,4.5622,4.6541,4.8899,4.9152,5.0477,5.3009,5.3096,5.3875,5.5199,5.277,5.0594,4.8684,4.5188,4.1334,3.6945,2.8952,2.0824,1.2615,0.4995,-0.3479,-1.2173,-1.7383,-2.0842,-2.2985,-2.4748,-2.7185,-2.9922,0.0,0.0,0.0,0.0,0.0,0.0,0.0,0.0,0.0,0.0,-1.9935,-2.0376,-2.0351,-1.8128,-1.5556,-1.2969,-1.0426,-0.7808,-0.5154,-0.2434,-0.0086,0.1809,0.3394,0.4025,0.3588,0.3078,0.2442,0.1652,0.2114,0.2424,0.2622,0.351,0.4369,0.5161,0.6606,0.8068,0.9564,1.16,1.3881,1.6317,1.7375,1.8682,1.9977,1.946,1.9029,1.8735,1.8139,1.8043,0.0,1.8047,1.8461,1.8945,1.8783,1.8578,1.8177,1.6811,1.6905,1.7793,1.9128,2.0103,2.1423,2.4024,2.4798,2.5587,2.833,2.8893,2.8907,2.9098,2.9346,2.9041,2.7515,2.8026,2.8641,0.0,2.9828,3.1219,3.1935,3.2135,3.2383,3.2739,3.3285,3.4313,3.6104,3.6664,3.7392,3.8377,3.9705,4.1131,4.2791,4.3673,4.4648,4.5772,4.6726,4.8259,5.0368,5.0835,5.1437,5.2115,5.0053,4.7946,4.5696,4.2214,3.7663,3.2259,2.681,1.8628,0.8719,0.3323,-0.4854,-1.4358,-1.8532,-2.1705,-2.4275,-2.6441,-2.9049,-3.1858,0.0,0.0,0.0,0.0,0.0,0.0,0.0,0.0,0.0,0.0,0.0,-1.9813,-1.9323,-1.6786,-1.4439,-1.2747,-1.045,-0.8181,-0.6082,-0.3163,-0.0829,0.0704,0.2442,0.3232,0.2972,0.2713,0.2354,0.1809,0.2506,0.2983,0.3263,0.4141,0.4974,0.5767,0.7394,0.8958,1.0507,1.271,1.5041,1.7483,1.844,1.9594,2.0628,1.9599,1.8609,1.7627,1.7068,1.6809,1.671,1.6348,1.6805,1.7556,1.7594,1.7861,1.8054,1.7262,1.8405,2.0194,2.1568,2.2438,2.3348,2.4872,2.6195,2.7271,2.7859,2.8731,2.9204,2.8516,2.8363,2.7802,2.6022,2.6419,2.6749,2.6036,2.733,2.8648,2.9237,2.9361,2.943,2.9498,2.9103,2.9589,3.1634,3.3522,3.5078,3.6292,3.7976,3.9235,3.9901,4.1098,4.1927,4.2263,4.3436,4.4872,4.6647,4.7463,4.7986,4.8241,4.6753,4.4838,4.2463,3.8014,3.3161,2.8009,2.4303,1.6532,0.6101,0.1724,-0.6268,-1.6029,-1.9092,-2.1859,-2.4544,-2.7024,-2.995,-3.303,0.0,0.0,0.0,0.0,0.0,0.0,0.0,0.0,0.0,0.0,0.0,0.0,0.0,-1.6007,-1.4297,-1.158,-1.0683,-0.9109,-0.6466,-0.4426,-0.2717,-0.137,0.0664,0.1794,0.1853,0.1849,0.2015,0.2374,0.2794,0.3367,0.4073,0.4897,0.558,0.6259,0.7954,0.9697,1.153,1.3834,1.6395,1.8887,1.9137,2.0169,2.1237,1.912,1.7819,1.7047,1.629,1.5336,1.449,1.5054,1.4982,1.4829,1.5858,1.6402,1.678,1.741,1.9036,2.0625,2.0651,2.2186,2.3997,2.4963,2.6544,2.8086,2.8845,2.9336,2.9457,2.8884,2.7778,2.6302,2.4499,2.4324,2.4213,2.3538,2.3997,2.4724,2.5466,2.5479,2.5153,2.46,2.5124,2.5266,0.0,2.928,3.2985,3.4478,3.5964,3.7146,3.7963,3.7482,3.7657,3.8614,3.8651,3.9486,4.1322,4.2147,4.2969,4.3789,4.289,4.1521,3.9607,3.277,2.8163,2.5232,2.0312,1.2614,0.321,-0.0823,-0.8151,-1.7044,-1.9264,-2.1635,-2.4079,-2.623,-2.9744,-3.3762,0.0,0.0,0.0,0.0,0.0,0.0,0.0,0.0,0.0,0.0,0.0,0.0,0.0,0.0,0.0,0.0,-1.0574,-0.8961,-0.6915,-0.4933,-0.3281,-0.1975,-0.0959,-0.0248,0.0137,0.0315,0.0615,0.1011,0.2091,0.3111,0.4094,0.4545,0.5587,0.7118,0.8392,1.0097,1.2208,1.4658,1.709,1.9306,1.9901,2.0645,2.1256,1.9828,1.8041,1.6193,0.0,1.4405,1.3498,1.3076,1.3135,1.3394,1.357,1.4062,1.4778,1.551,1.712,1.8594,1.8704,2.0359,2.2233,2.3191,2.4476,2.5669,2.638,2.6555,2.6361,2.5512,2.5035,2.4105,2.2047,2.2325,2.2433,2.0922,2.0879,2.1156,2.1614,2.0348,1.9636,2.0398,1.9719,0.0,0.0,0.0,0.0,3.1008,3.2246,3.3264,3.4127,3.4284,3.4223,3.3992,3.5152,3.6362,3.7503,3.8385,3.9307,4.011,3.805,3.5803,3.3402,2.9178,2.5389,2.1914,1.7956,1.0618,0.1274,-0.2192,-0.8656,-1.662,-1.8485,-2.0471,-2.2611,-2.5541,-2.895,-3.2782,0.0,0.0,0.0,0.0,0.0,0.0,0.0,0.0,0.0,0.0,0.0,0.0,0.0,0.0,0.0,0.0,0.0,-0.8323,-0.6749,-0.5191,-0.3908,-0.2933,-0.2284,-0.171,-0.1185,-0.0739,-0.0212,0.044,0.1564,0.268,0.3759,0.4365,0.5517,0.7049,0.8516,1.0289,1.2236,1.4785,1.6914,1.8703,1.968,2.0169,2.0114,1.8902,1.7169,0.0,1.4067,1.3125,1.2333,1.1562,1.1338,1.1344,1.1186,1.1743,1.2532,1.2959,1.4286,1.5637,1.6072,1.7567,1.9234,2.0592,2.1819,2.2736,2.3141,2.3172,2.2863,2.194,2.1843,2.1277,1.933,1.9731,1.9708,1.7677,1.7092,1.6784,1.6622,1.5159,1.4367,1.4963,1.4371,1.4239,0.0,0.0,0.0,2.6793,2.7971,2.8967,2.9851,3.0113,3.0201,3.0017,3.1244,3.2474,3.3635,3.4572,3.5321,3.5813,3.3621,3.12,2.8427,2.5762,2.2226,1.8037,1.4267,0.7497,-0.1121,-0.4534,-1.0112,-1.6654,-1.8437,-2.0193,-2.2144,-2.5454,-2.8625,-3.1914,0.0,0.0,0.0,0.0,0.0,0.0,0.0,0.0,0.0,0.0,0.0,0.0,0.0,0.0,0.0,0.0,0.0,0.0,-0.5998,-0.5192,-0.4573,-0.4111,-0.3289,-0.2619,-0.2087,-0.1397,-0.0523,0.054,0.1158,0.1986,0.3047,0.4313,0.5336,0.6184,0.8371,1.0134,1.1655,1.4242,1.6023,1.7339,1.8476,1.8672,1.8113,1.6454,0.0,0.0,1.2592,1.1591,1.092,1.0523,0.9653,0.8735,0.8701,0.9361,1.0024,0.9658,1.0432,1.1617,1.2419,1.3491,1.4831,1.6943,1.818,1.8902,1.9046,1.8998,1.8793,1.8235,1.8193,1.7888,1.6544,1.6593,1.6117,1.3831,1.264,1.1634,1.0533,0.9828,0.9137,0.0,0.0,0.0,0.0,0.0,0.0,2.1491,0.0,2.4259,2.5163,2.5112,2.5551,2.6669,2.6972,2.7909,2.9636,3.0623,3.103,3.0852,2.9623,2.7541,2.476,2.2238,1.8404,1.3472,0.9238,0.3112,-0.4096,-0.7867,-1.2417,-1.7235,-1.903,-2.0726,-2.2616,-2.5949,-2.8649,-3.133,0.0,0.0,0.0,0.0,0.0,0.0,0.0,0.0,0.0,0.0,0.0,0.0,0.0,0.0,0.0,0.0,0.0,0.0,-0.482,-0.4538,-0.4256,-0.3881,-0.3801,-0.355,-0.3058,-0.2995,-0.2492,-0.146,-0.0816,0.0277,0.1771,0.2891,0.4397,0.6146,0.7518,0.9118,1.0998,1.3302,1.4934,1.6124,0.0,1.7149,1.6746,0.0,0.0,1.2503,1.1432,1.0391,0.9629,1.0214,0.9207,0.7504,0.6404,0.5934,0.5357,0.3066,0.3058,0.3575,0.2813,0.3751,0.537,0.7228,0.8383,0.9382,1.0498,1.1032,1.1561,1.2509,1.3406,1.4225,1.4727,1.415,1.291,1.076,0.8427,0.0,0.4702,0.3123,0.0,0.3237,0.31,0.3343,0.4358,0.5311,0.0,0.0,1.6075,1.9429,2.0058,2.1215,2.2045,2.2446,2.384,2.5079,2.6023,2.6804,2.6985,2.6612,2.4753,2.2461,1.9707,1.6743,1.2446,0.7129,0.3298,-0.2064,-0.8254,-1.1059,-1.4484,-1.8184,-1.9615,-2.0974,-2.2591,-2.5901,-2.883,-3.1694,0.0,0.0,0.0,0.0,0.0,0.0,0.0,0.0,0.0,0.0,0.0,0.0,0.0,0.0,0.0,0.0,0.0,0.0,0.0,-0.2929,-0.2735,-0.2538,-0.2463,-0.2308,-0.2006,-0.2158,-0.2005,-0.1505,-0.1084,-0.0224,0.1079,0.2554,0.4101,0.5666,0.6966,0.8281,0.9698,1.1638,1.2859,0.0,0.0,0.0,0.0,0.0,0.0,1.094,1.0116,0.9353,0.8761,0.8756,0.7713,0.6101,0.4288,0.2799,0.1131,-0.1846,-0.2908,-0.332,-0.425,-0.369,-0.2427,-0.0428,0.0596,0.1745,0.4061,0.4912,0.5853,0.8039,0.9641,1.0964,1.2019,1.1129,0.937,0.7007,0.388,0.0914,-0.1468,-0.2964,-0.3466,-0.2617,-0.2737,-0.2315,-0.0905,-0.0178,0.1076,0.0,0.9686,1.4181,1.5686,1.7164,1.8439,1.9366,2.0744,2.1975,2.3015,2.2989,2.2624,2.1874,1.9878,1.7248,1.4088,1.0829,0.6383,0.1012,0.0,-0.75,-1.1976,-1.4759,-1.7051,-1.9045,-2.1033,-2.2505,-2.3961,-2.7344,-3.0062,-3.2476,0.0,0.0,0.0,0.0,0.0,0.0,0.0,0.0,0.0,0.0,0.0,0.0,0.0,0.0,0.0,0.0,0.0,0.0,0.0,0.0,-0.0463,-0.0414,-0.0093,0.0105,0.0197,-0.0035,-0.0218,-0.0352,-0.0294,0.0101,0.0867,0.273,0.4089,0.5004,0.6389,0.7388,0.8157,0.9588,1.0287,0.0,0.0,0.0,0.0,0.0,0.0,0.9263,0.8626,0.8234,0.7821,0.6757,0.586,0.4834,0.2502,0.0046,-0.2576,-0.5773,-0.8136,-0.9778,-1.02,-1.0284,-0.968,-0.7501,-0.638,-0.4944,-0.1572,-0.0365,0.0966,0.4316,0.6318,0.777,0.8665,0.7514,0.5481,0.2505,-0.1011,-0.4533,-0.7674,-0.8635,-0.8931,-0.8826,-0.8398,-0.7654,-0.6403,-0.5609,-0.4481,-0.2634,0.3184,0.8084,1.1305,1.3012,1.4824,1.6923,1.768,1.8634,1.9922,1.8907,1.7798,1.6575,1.4566,1.1632,0.7896,0.4435,0.004,-0.507,0.0,0.0,-1.5645,-1.8707,-2.0037,-2.0403,-2.3061,-2.4809,-2.6144,-2.9333,-3.1603,-3.3351,0.0,0.0,0.0,0.0,0.0,0.0,0.0,0.0,0.0,0.0,0.0,0.0,0.0,0.0,0.0,0.0,0.0,0.0,0.0,0.0,0.0,0.2147,0.2059,0.2089,0.2271,0.1559,0.1112,0.0968,0.0931,0.1083,0.1466,0.2543,0.3621,0.4701,0.5171,0.5888,0.6799,0.7657,0.8318,0.0,0.0,0.0,0.0,0.0,0.0,0.0,0.6768,0.6133,0.5339,0.5316,0.5107,0.4393,0.1551,-0.1859,-0.5574,-0.9284,-1.341,-1.704,-1.8093,-1.8749,-1.8748,-1.7089,-1.4929,-1.234,-0.8791,-0.641,-0.3791,0.0375,0.237,0.3636,0.4624,0.3264,0.0681,-0.3313,-0.638,-0.9576,-1.3427,-1.4077,-1.4219,-1.4375,-1.395,-1.3157,-1.2014,-1.1417,0.0,0.0,0.0,0.0,0.5327,0.8821,1.1791,1.437,1.4914,1.5135,1.4928,1.3455,1.1986,1.0398,0.7635,0.4532,0.1143,-0.2952,-0.7148,-1.1418,0.0,0.0,-2.0276,-2.2211,-2.3447,-2.4167,-2.5737,-2.7048,-2.8336,-3.0032,-3.1697,-3.3337,0.0,0.0,0.0,0.0,0.0,0.0,0.0,0.0,0.0,0.0,-1.0169,-0.952,0.0,0.0,0.0,0.0,0.0,0.0,0.0,0.0,0.0,0.0,0.0,0.0,0.3067,0.2851,0.236,0.1553,0.0,0.2104,0.2094,0.3211,0.3929,0.4291,0.4595,0.4834,0.5025,0.571,0.6064,0.0,0.0,0.0,0.0,0.0,0.0,0.0,0.465,0.4273,0.3576,0.2708,0.2164,0.1543,-0.037,-0.3898,-0.824,-1.2666,-1.691,-2.0717,-2.3073,-2.4052,-2.413,-2.2889,-2.11,-1.8269,-1.3305,-1.041,-0.7442,-0.2474,-0.0769,0.0241,0.1714,-0.0796,-0.3882,-0.6514,-0.9965,-1.3699,-1.7628,-1.8655,-1.9333,-2.0288,-1.9949,-1.931,-1.8429,-1.7328,-1.5787,0.0,0.0,0.0,0.0548,0.5471,0.9012,1.1092,1.119,1.0791,0.9834,0.7612,0.5604,0.3738,0.0571,-0.26,-0.5848,-0.9718,-1.3524,-1.7207,0.0,0.0,-2.3803,-2.5348,-2.5896,-2.5915,-2.726,-2.8634,-2.9959,-3.1025,-3.2649,-3.4544,0.0,0.0,0.0,0.0,0.0,0.0,0.0,-1.0094,-1.0148,-1.0817,-1.056,-0.9581,-0.7574,-0.6392,0.0,0.0,0.0,0.0,0.0,0.0,0.0,0.0,0.0,0.0,0.0,0.0,0.0,0.1928,0.2593,0.0,0.0,0.0,0.0,0.0,0.3699,0.3568,0.3384,0.3847,0.3972,0.0,0.0,0.0,0.0,0.0,0.0,0.0,0.0,0.1723,0.1016,-0.0296,-0.1421,-0.2399,-0.3315,-0.6481,-1.0758,-1.5132,-1.9406,-2.332,-2.6307,-2.7477,-2.7763,-2.7257,-2.5631,-2.2675,-1.7042,-1.3841,-1.0565,-0.5314,-0.3924,-0.3257,-0.1906,-0.4957,-0.8115,-0.9746,-1.3416,-1.7407,-2.1274,-2.2871,-2.4319,-2.6012,-2.6009,-2.5503,-2.4679,-2.3117,0.0,0.0,0.0,0.0,-0.3319,0.1731,0.508,0.6652,0.645,0.5716,0.4513,0.1858,-0.061,-0.2776,-0.588,-0.9001,-1.2111,-1.5541,-1.8797,-2.187,0.0,0.0,0.0,-2.7773,-2.7812,-2.7238,-2.8668,-3.0089,-3.1389,-3.2128,-3.3689,-3.5571,0.0,0.0,0.0,0.0,0.0,0.0,0.0,-0.9558,-0.9608,-1.073,-1.0605,-1.0027,-0.9015,-0.7295,0.0,0.0,0.0,0.0,0.0,0.0,0.0,0.0,0.0,0.0,0.0,0.0,0.0,0.2344,0.2595,0.0,0.0,0.0,0.0,0.0,0.0,0.158,0.2157,0.2227,0.0,0.0,0.0,0.0,0.0,0.0,0.0,0.0,0.0,-0.2511,-0.3838,-0.3268,-0.4833,-0.7104,-0.7861,-1.0263,-1.3298,-1.5757,-2.0926,-2.625,-2.7959,-2.9263,-3.033,-3.1285,-2.8605,-2.477,-2.113,-1.7347,-1.3381,-0.8741,-0.7675,-0.7654,-0.8048,-0.9515,-1.174,-1.5274,-1.7676,-2.0597,-2.4897,-2.7189,-2.9124,-3.1258,-3.1638,-3.1235,-2.9926,-2.8654,0.0,0.0,0.0,0.0,0.0,-0.3581,-0.16,0.0291,0.0117,-0.036,-0.1212,-0.3466,-0.5929,-0.8462,-1.1061,-1.3733,-1.6536,-1.9674,-2.2311,-2.4563,0.0,0.0,0.0,-2.8943,-2.9148,-2.9195,-3.0645,-3.1763,-3.2617,-3.3356,-3.4263,-3.537,0.0,0.0,0.0,0.0,0.0,0.0,0.0,-1.0691,-1.1016,-1.1798,-1.1836,-1.1412,-1.0254,-0.9943,-0.86,0.0,0.0,0.0,0.0,0.0,0.0,0.0,0.0,0.0,0.0,0.0,-0.2037,-0.1153,-0.1391,0.0,0.0,0.0,0.0,0.0,0.0,-0.0518,0.0141,0.0,0.0,0.0,0.0,0.0,0.0,0.0,0.0,0.0,0.0,0.0,-0.6138,-0.7243,-0.8393,-0.9706,-1.1474,-1.4098,-1.6838,-1.8543,-2.2299,-2.6612,-3.0071,-3.1846,-3.2967,-3.387,-3.1642,-2.8243,-2.444,-2.0601,-1.6862,-1.3169,-1.2403,-1.2453,-1.2383,-1.4285,-1.6449,-1.8218,-2.0074,-2.2615,-2.6493,-2.8978,-3.1388,-3.4248,-3.5695,-3.6215,0.0,0.0,0.0,0.0,0.0,0.0,0.0,-1.0269,-0.6482,-0.4904,-0.4992,-0.5479,-0.6297,-0.8754,-1.0924,-1.2848,-1.5479,-1.8008,-2.0422,-2.2513,-2.4696,-2.7105,0.0,0.0,0.0,-3.1278,-3.1592,-3.1771,-3.2258,-3.2977,-3.3751,-3.4058,-3.4693,-3.5593,0.0,0.0,0.0,0.0,0.0,0.0,-1.1719,-1.2179,-1.2586,-1.3227,-1.3264,-1.273,-1.1411,-1.2189,-1.1708,-0.899,0.0,0.0,0.0,0.0,0.0,0.0,0.0,0.0,0.0,0.0,-0.596,-0.5132,-0.488,-0.3958,0.0,0.0,-0.2073,-0.1422,0.0,0.0,0.0,0.0,0.0,0.0,0.0,0.0,0.0,0.0,0.0,0.0,0.0,0.0,0.0,0.0,0.0,-1.1872,-1.4041,-1.6478,-1.8872,-2.0408,-2.3496,-2.7349,-3.1562,-3.3842,-3.5255,-3.6215,-3.4414,-3.1483,-2.7854,-2.3922,-2.0296,-1.7489,-1.689,-1.6863,-1.6697,-1.8681,-2.0447,-2.0892,-2.2759,-2.532,-2.8918,-3.1774,-3.4704,-3.8139,0.0,-4.0882,0.0,0.0,0.0,0.0,0.0,0.0,0.0,-1.7804,-1.3113,-1.0506,-1.051,-1.0692,-1.1136,-1.3211,-1.4968,-1.6422,-1.8672,-2.0941,-2.319,-2.4406,-2.648,0.0,0.0,0.0,0.0,-3.2796,-3.3114,-3.33,-3.3444,-3.3891,-3.4481,-3.4736,-3.532,-3.6189,0.0,0.0,0.0,0.0,0.0,0.0,0.0,-1.3828,-1.3894,-1.5001,-1.4631,-1.3739,-1.2535,-1.3591,-1.4367,-1.43,0.0,0.0,0.0,0.0,0.0,0.0,0.0,0.0,0.0,0.0,-0.9898,-0.8951,-0.688,-0.5866,-0.582,-0.4372,-0.3527,-0.3306,0.0,0.0,0.0,0.0,0.0,0.0,0.0,0.0,0.0,0.0,0.0,0.0,0.0,0.0,0.0,0.0,0.0,0.0,0.0,-1.6964,-1.8593,-2.0705,-2.4627,-2.9025,-3.2074,-3.4802,-3.7102,-3.8594,-3.6894,-3.4167,-3.1589,-2.748,-2.3568,-2.1532,-2.0724,-2.0582,-2.1356,-2.2438,-2.3264,-2.3707,-2.6185,-2.931,-3.284,-3.6467,-4.0025,0.0,-4.4776,-4.5172,-4.4724,0.0,0.0,0.0,0.0,0.0,0.0,0.0,-2.2539,-1.6997,-1.6743,-1.6373,-1.5635,-1.6705,-1.7947,-1.9252,-2.0206,-2.198,-2.4389,-2.5501,0.0,0.0,0.0,0.0,0.0,-3.2943,-3.3056,-3.339,-3.418,-3.4531,-3.4687,-3.5505,-3.6325,-3.7226,0.0,0.0,0.0,0.0,0.0,0.0,0.0,-1.5623,-1.584,-1.6145,-1.6245,-1.6059,-1.5361,-1.62,-1.6943,-1.7182,0.0,0.0,0.0,0.0,0.0,0.0,0.0,0.0,0.0,0.0,-1.2252,-1.16,-1.1154,-0.9959,-0.8096,-0.7882,-0.6885,-0.5227,-0.5671,0.0,0.0,0.0,0.0,0.0,0.0,0.0,0.0,0.0,0.0,0.0,0.0,0.0,0.0,0.0,0.0,0.0,0.0,0.0,0.0,-2.1175,-2.4575,-2.8207,-3.0672,-3.3481,-3.5728,-3.592,-3.5272,-3.3893,-3.1279,-2.9022,-2.6991,-2.52,-2.4805,-2.5185,-2.6189,-2.7142,-2.8654,-3.1471,-3.3057,-3.5275,-3.8916,-4.1997,-4.4527,-4.6345,-4.7737,-4.8044,0.0,0.0,0.0,0.0,0.0,0.0,0.0,0.0,-2.8369,-2.1761,-2.1296,-2.0804,-2.0074,-2.1124,-2.1803,-2.2112,-2.3391,-2.4945,-2.678,-2.7226,0.0,0.0,0.0,0.0,0.0,-3.4337,-3.47,-3.4976,-3.5221,-3.5654,-3.6221,-3.6555,-3.7219,-3.8146,0.0,0.0,0.0,0.0,0.0,0.0,0.0,-1.7273,-1.727,-1.7424,-1.7593,-1.7441,-1.6758,-1.7619,-1.8334,-1.8488,0.0,0.0,0.0,0.0,0.0,0.0,0.0,0.0,0.0,-1.4515,-1.4061,-1.3481,-1.3295,-1.2066,-0.9868,-0.9635,-0.8281,-0.6038,-0.6219,-0.5225,0.0,0.0,0.0,0.0,0.0,0.0,0.0429,0.0,0.0,0.0,0.0,0.0,0.0,0.0,0.0,0.0,0.0,0.0,0.0,0.0,-2.4263,-2.7178,-3.0082,-3.2926,-3.5219,-3.5427,-3.5142,-3.4408,-3.2385,-3.0505,-2.895,-2.8122,-2.7917,-2.8434,-3.0133,-3.1071,-3.2604,-3.5603,-3.7319,-3.9396,-4.2789,-4.5911,0.0,-5.0618,0.0,0.0,0.0,0.0,0.0,0.0,0.0,0.0,0.0,0.0,-3.4263,-2.9637,-2.724,-2.551,-2.4413,-2.4786,-2.492,-2.4872,-2.5541,-2.6822,-2.8504,0.0,0.0,0.0,0.0,0.0,0.0,-3.5009,-3.5596,-3.6154,-3.6137,-3.6837,-3.7859,-3.7972,-3.8719,-3.9855,0.0,0.0,0.0,0.0,0.0,0.0,0.0,0.0,0.0,0.0,-1.8622,-1.8085,-1.7061,-1.8115,0.0,0.0,0.0,0.0,0.0,0.0,0.0,0.0,0.0,0.0,0.0,-1.5413,-1.515,-1.4613,-1.3552,-1.2425,-1.1239,-0.9996,-0.8255,-0.6061,-0.5696,-0.4495,-0.2701,0.0,0.0,0.0,0.0,0.0,0.0,0.0,0.0,0.0,0.0,0.0,0.0,0.0,0.0,0.0,0.0,0.0,0.0,0.0,0.0,0.0,0.0,-3.2992,-3.5117,-3.625,-3.61,-3.5332,-3.4296,-3.1797,0.0,-3.031,-3.0072,-3.0587,-3.3352,-3.4492,-3.5581,-3.7445,-3.9877,-4.2493,-4.5383,-4.8859,0.0,0.0,-5.5426,0.0,0.0,0.0,0.0,0.0,0.0,0.0,0.0,0.0,0.0,-3.9479,-3.4341,-3.0637,-2.8741,-2.8078,-2.7657,-2.7636,-2.7079,-2.7934,-3.0007,0.0,0.0,0.0,0.0,0.0,0.0,-3.5267,-3.6098,-3.7073,-3.715,-3.8143,-3.9586,-3.9661,-4.0742,-4.2106,0.0,0.0,0.0,0.0,0.0,0.0,0.0,0.0,0.0,0.0,0.0,-1.8998,-1.8574,-1.9451,0.0,0.0,0.0,0.0,0.0,0.0,0.0,0.0,0.0,0.0,0.0,-1.4341,-1.4169,-1.4841,-1.3948,-1.2894,-1.1646,-1.1706,-1.0339,-0.7784,-0.565,-0.3511,-0.1502,-0.117,0.0,0.0,0.0,0.0,0.0,0.0,0.0,0.0,-0.2288,-0.7286,0.0,0.0,0.0,0.0,0.0,0.0,0.0,0.0,-2.4061,-2.6612,-2.9682,0.0,-3.2482,-3.2317,-3.3425,-3.4055,0.0,-3.1645,-3.1321,-3.0825,-3.1205,-3.2982,-3.748,-3.8578,-4.0768,-4.6885,-4.8226,-4.9542,-5.2307,-5.4702,0.0,-5.8864,-5.7753,0.0,0.0,0.0,0.0,0.0,0.0,0.0,0.0,0.0,0.0,-4.424,-4.1298,-3.7603,-3.3214,-3.2182,-3.1366,-3.0768,-3.0459,-3.1297,-3.3005,0.0,0.0,0.0,0.0,0.0,0.0,-3.7733,-3.8408,-3.8796,-3.9413,-4.0299,-4.1239,-4.1376,-4.2086,-4.3105,0.0,0.0,0.0,0.0,0.0,0.0,0.0,0.0,0.0,0.0,0.0,0.0,0.0,0.0,0.0,0.0,0.0,0.0,0.0,0.0,0.0,0.0,0.0,-1.5261,-1.417,-1.357,-1.3374,-1.362,-1.3079,-1.2406,-1.1562,-1.1679,-1.0561,-0.8434,-0.5833,-0.373,-0.2081,-0.1749,-0.0657,0.088,0.1659,0.0,0.0,0.0,0.0,0.0,0.169,-0.4329,0.0,-1.2474,-1.6801,-2.1581,0.0,0.0,0.0,0.0,-2.4399,-2.6934,-2.9743,-3.2554,-3.4783,-3.5095,-3.6442,-3.7244,-3.5738,-3.4383,-3.3346,-3.298,-3.4016,-3.623,-4.0344,-4.2395,-4.5177,-5.0546,-5.1915,0.0,0.0,0.0,-6.0108,-6.1312,-6.0226,0.0,0.0,0.0,0.0,0.0,0.0,0.0,0.0,0.0,0.0,0.0,-4.6458,-4.2688,-3.7887,-3.5946,-3.4874,-3.4633,-3.3693,-3.4015,-3.5545,0.0,0.0,0.0,0.0,0.0,-3.9261,-4.0457,-4.1207,-4.1709,-4.2163,-4.2834,-4.3597,-4.375,-4.4098,-4.4544,0.0,0.0,0.0,0.0,0.0,0.0,0.0,0.0,0.0,0.0,0.0,0.0,0.0,0.0,0.0,0.0,0.0,0.0,0.0,0.0,0.0,0.0,0.0,-1.4607,-1.3016,-1.303,-1.2865,-1.2548,-1.2101,-1.1797,-1.1598,-1.1447,-1.0495,-0.8822,-0.6369,-0.4632,-0.3508,-0.2656,-0.1526,-0.0157,0.1112,0.0,0.0,0.0,0.0,0.0,0.0,0.0,0.0,-1.1517,-1.7497,-2.3765,-2.2013,0.0,0.0,0.0,0.0,0.0,-3.1005,-3.5633,-3.9681,-4.0135,-4.1277,-4.2108,-4.1247,-3.8518,-3.6248,-3.6405,-3.7866,-4.0092,-4.3421,-4.629,-4.921,-5.2458,0.0,0.0,-5.9801,-6.1224,-6.2223,-6.318,0.0,0.0,0.0,0.0,0.0,0.0,0.0,0.0,0.0,0.0,0.0,0.0,-5.047,-4.698,-4.3252,-3.9944,-3.8475,-3.8756,-3.7055,-3.6947,-3.8321,-3.8767,0.0,0.0,0.0,0.0,-4.2201,-4.353,-4.4476,-4.5025,-4.5225,-4.5733,-4.6317,-4.6305,-4.6346,-4.626,0.0,0.0,0.0,0.0,0.0,0.0,0.0,0.0,0.0,0.0,0.0,0.0,0.0,0.0,0.0,0.0,0.0,0.0,0.0,0.0,0.0,0.0,-1.4668,-1.4741,-1.3834,-1.2809,-1.3031,-1.4542,-1.3048,-1.2579,-1.3094,-1.3717,-1.2696,-1.0285,-0.7744,-0.5923,-0.4649,-0.3065,-0.1863,-0.0868,0.0953,0.0,0.0,0.0,0.0,0.0,0.0,0.0,0.0,-1.3818,-2.0211,-2.4486,-2.3089,0.0,0.0,0.0,0.0,0.0,-3.5583,-4.1058,-4.4251,-4.051,-4.2301,-4.4655,-4.3331,-4.2388,-4.1656,-4.1329,-4.2558,-4.5052,-4.9192,-5.1192,-5.3807,-5.8672,0.0,-6.0305,0.0,0.0,-6.2398,0.0,0.0,0.0,0.0,0.0,0.0,0.0,0.0,0.0,0.0,0.0,0.0,0.0,0.0,-5.2034,-5.0604,-4.5507,-4.2783,-4.2402,-4.1537,-4.1569,-4.2399,-4.2178,-4.2777,0.0,0.0,0.0,-4.4997,-4.7554,-4.8299,-4.7854,-4.8604,-4.9007,-4.9093,-4.8419,-4.8232,-4.7969,0.0,0.0,0.0,0.0,0.0,0.0,0.0,0.0,0.0,0.0,0.0,0.0,0.0,0.0,0.0,0.0,0.0,0.0,0.0,0.0,0.0,-1.403,-1.4499,-1.4252,-1.3267,-1.2949,-1.3118,-1.3712,-1.2899,-1.2884,-1.3543,-1.3468,-1.2535,-1.0885,-0.8675,-0.7048,-0.5896,-0.4857,-0.3797,-0.28,0.0,0.0,0.0,0.0,0.0,0.0,0.0,0.0,0.0,0.0,-2.0997,-2.568,-2.4212,0.0,0.0,0.0,0.0,0.0,-3.632,-4.161,-4.5774,-4.4882,-4.8061,-5.1195,-5.0087,-4.9251,-4.8483,-4.7809,-4.9009,-5.0991,-5.3713,-5.5366,-5.7437,-6.0655,0.0,-6.2871,-6.2749,0.0,0.0,0.0,0.0,0.0,0.0,0.0,0.0,0.0,0.0,0.0,0.0,0.0,0.0,0.0,0.0,-5.5799,-5.4425,-5.1871,-4.9319,-4.6797,-4.5786,-4.5616,-4.6323,-4.6207,-4.6652,0.0,0.0,-4.9729,-4.9797,-5.1631,-5.2235,-5.1968,-5.1913,-5.1667,-5.1164,-4.9859,-4.8868,-4.7939,0.0,0.0,0.0,0.0,0.0,0.0,0.0,0.0,0.0,0.0,0.0,0.0,0.0,0.0,0.0,0.0,0.0,0.0,0.0,0.0,-1.3528,-1.4151,-1.4609,-1.4316,-1.3267,-1.3371,-1.3365,-1.3192,-1.2989,-1.3294,-1.399,-1.3152,-1.2434,-1.1758,-0.9919,-0.8606,-0.7759,-0.7088,-0.622,-0.5246,0.0,0.0,0.0,0.0,0.0,0.0,0.0,0.0,0.0,0.0,0.0,0.0,0.0,0.0,0.0,-2.9789,-3.1778,-3.466,-3.7963,-4.2366,-4.6758,-4.9922,-5.3396,-5.6127,-5.6257,-5.5649,-5.5041,-5.4869,-5.6062,-5.7364,-5.8317,-5.9614,0.0,-6.2295,-6.4048,-6.4901,0.0,0.0,0.0,0.0,0.0,0.0,0.0,0.0,0.0,0.0,0.0,0.0,0.0,0.0,0.0,0.0,0.0,0.0,-5.7224,-5.7105,-5.4933,-5.0635,-4.9781,-4.9512,-4.9753,-5.0016,-5.0342,-5.0795,-5.2867,-5.3832,-5.4012,-5.5001,-5.537,-5.5213,-5.4441,-5.3507,-5.2472,-5.1171,-4.9648,-4.8164,0.0,0.0,0.0,0.0,0.0,0.0,0.0,0.0,0.0,0.0,0.0,0.0,0.0,0.0,0.0,0.0,0.0,0.0,0.0,0.0,-1.3836,-1.3587,-1.5163,-1.5796,-1.5197,-1.4073,-1.3985,-1.5,-1.4214,-1.4227,-1.4981,-1.4212,-1.3806,-1.3616,-1.1875,-1.0934,-1.064,-0.9453,-0.8646,-0.8051,-0.7493,0.0,0.0,0.0,0.0,0.0,0.0,0.0,0.0,0.0,0.0,0.0,0.0,0.0,-3.1086,-3.2283,-3.416,-3.7253,-4.3538,-4.6215,-4.8609,-5.4067,-5.5266,-5.5924,-5.8654,-5.9559,-6.0324,-6.2228,-6.3205,-6.3799,-6.3694,-6.4426,-6.5161,-6.5549,-6.632,0.0,0.0,0.0,0.0,0.0,0.0,0.0,0.0,0.0,0.0,0.0,0.0,0.0,0.0,0.0,0.0,0.0,0.0,0.0,-5.9827,-5.9754,-5.7439,-5.2955,-5.3414,-5.3175,-5.2265,-5.3079,-5.3503,-5.3722,-5.5823,-5.6305,-5.5808,-5.6885,-5.6848,-5.6115,-5.5404,-5.4115,-5.2694,-5.2568,-5.1391,-4.9793,0.0,0.0,0.0,0.0,0.0,0.0,0.0,0.0,0.0,0.0,0.0,0.0,0.0,0.0,0.0,0.0,0.0,0.0,0.0,-1.3074,-1.4212,-1.5309,-1.5987,-1.649,-1.687,-1.6276,-1.6215,-1.6756,-1.5971,-1.5742,-1.6051,-1.4682,-1.4321,-1.4773,-1.3531,-1.292,-1.2813,-1.2775,-1.2345,-1.1729,-1.1349,-1.0944,0.0,0.0,0.0,0.0,0.0,0.0,0.0,0.0,-2.6618,-2.821,-2.8763,-3.1347,-3.4304,-3.5182,-3.7287,-4.0121,-4.3566,-4.6747,-4.9965,-5.3688,-5.5633,-5.7468,-6.0744,-6.2978,-6.4876,-6.7023,-6.7658,-6.7517,-6.6321,-6.6497,-6.6671,-6.6282,-6.7304,0.0,0.0,0.0,0.0,0.0,0.0,0.0,0.0,0.0,0.0,0.0,0.0,0.0,0.0,0.0,0.0,0.0,0.0,0.0,0.0,-6.1391,-5.9669,-5.5797,-5.5882,-5.5977,-5.6113,-5.576,-5.6001,-5.6721,-5.8033,-5.8219,-5.7615,-5.811,-5.7869,-5.7112,-5.6312,-5.5312,-5.4239,-5.3674,-5.2377,-5.0785,0.0,0.0,0.0,0.0,0.0,0.0,0.0,0.0,0.0,0.0,0.0,0.0,0.0,0.0,0.0,0.0,0.0,0.0,-1.1859,-1.3301,-1.4745,-1.6162,-1.6675,-1.7225,-1.7799,-1.823,-1.8191,-1.7644,-1.7221,-1.7057,-1.7096,-1.6163,-1.6013,-1.6562,-1.5929,-1.555,-1.5493,-1.5686,-1.5618,-1.5339,-1.5165,-1.5226,0.0,0.0,0.0,0.0,0.0,0.0,0.0,0.0,-2.7638,-2.9044,-3.0847,-3.3445,-3.6225,-3.8094,-4.0201,-4.2339,-4.4177,-4.7055,-5.0241,-5.3306,-5.5609,-5.8184,-6.2407,-6.509,-6.7256,-6.9738,-7.0022,-6.9455,-6.8252,-6.7785,0.0,0.0,0.0,0.0,0.0,0.0,0.0,0.0,0.0,0.0,0.0,0.0,0.0,0.0,0.0,0.0,0.0,0.0,0.0,0.0,0.0,0.0,0.0,-6.2133,-6.0856,-5.8196,-5.7429,-5.7345,-5.7879,-5.742,-5.7766,-5.8748,-5.9639,-5.9669,-5.9,-5.8877,-5.807,-5.6815,-5.6015,-5.5176,-5.4411,-5.3748,-5.2571,-5.1269,0.0,0.0,0.0,0.0,0.0,0.0,0.0,0.0,0.0,0.0,0.0,0.0,0.0,0.0,0.0,0.0,0.0,0.0,-1.2635,-1.4322,-1.5347,-1.5695,-1.7255,-1.8027,-1.7835,-1.9789,-1.975,-1.7524,-1.7796,-1.7949,-1.8039,-1.8827,-1.9227,-1.9238,-1.9173,-1.906,-1.8863,-1.801,-1.8082,-1.8739,-1.8815,-1.9341,-2.023,0.0,0.0,0.0,0.0,0.0,0.0,0.0,-2.96,-2.8504,-3.5155,-3.6478,-3.6394,-4.0886,-4.2689,-4.3821,-4.6109,-4.7495,-4.9375,-5.3514,-5.5367,-5.779,-6.3549,-6.5668,-6.7287,-7.0381,-7.0404,-6.98,-6.9669,-6.8598,0.0,0.0,0.0,0.0,0.0,0.0,0.0,0.0,0.0,0.0,0.0,0.0,0.0,0.0,0.0,0.0,0.0,0.0,0.0,0.0,0.0,0.0,0.0,-6.1822,-6.091,-5.994,-5.8101,-5.7159,-5.7135,-5.7944,-5.8753,-5.9639,-6.059,-6.0538,-5.9813,-5.9071,-5.7332,-5.5101,-5.4215,-5.3409,-5.2718,-5.2606,-5.206,-5.1317,0.0,0.0,0.0,0.0,0.0,0.0,0.0,0.0,0.0,0.0,0.0,0.0,0.0,0.0,0.0,0.0,0.0,0.0,-1.3353,-1.4891,-1.6428,-1.8017,-1.8733,-1.9442,-2.0153,-2.1324,-2.1113,-1.9458,-1.9596,-1.9709,-1.974,-2.0013,-2.0406,-2.0961,-2.1567,-2.1152,-2.003,-2.0937,-2.1131,-2.0859,-2.1484,-2.1555,-2.1374,0.0,0.0,0.0,0.0,0.0,0.0,0.0,0.0,0.0,-3.4543,-3.6038,-3.7124,-4.1186,-4.2808,-4.3898,-4.6735,-4.9582,-5.2368,-5.4899,-5.7277,-5.9931,-6.3595,-6.5478,-6.7501,-7.1123,-7.1529,-7.135,-7.1585,-7.0786,0.0,0.0,0.0,0.0,0.0,0.0,0.0,0.0,0.0,0.0,0.0,0.0,0.0,0.0,0.0,0.0,0.0,0.0,0.0,0.0,0.0,0.0,0.0,0.0,-5.9735,-5.8245,-5.7589,-5.7525,-5.7986,-5.7657,-5.7927,-5.8778,-5.9128,-5.891,-5.811,-5.6796,-5.5464,-5.4197,-5.3397,-5.3266,-5.3444,-5.2175,-5.1537,-5.1239,0.0,0.0,0.0,0.0,0.0,0.0,0.0,0.0,0.0,0.0,0.5599,0.4003,0.0,0.0,0.0,0.0,0.0,0.0,0.0,-1.5264,-1.6909,-1.8616,-1.9661,-2.0907,-2.2369,-2.3026,-2.2817,-2.179,-2.1229,-2.1333,-2.2021,-2.2703,-2.3426,-2.4275,-2.5789,-2.5135,-2.298,-2.4308,-2.4238,-2.3287,-2.4144,-2.4394,-2.4302,0.0,0.0,0.0,0.0,0.0,0.0,0.0,0.0,0.0,-3.3862,-3.5133,-3.6448,-4.0147,-4.1681,-4.2867,-4.5998,-4.924,-5.2323,-5.4957,-5.7406,-6.0152,-6.3877,-6.6234,-6.8306,-7.0822,-7.1519,-7.1842,-7.2431,-7.2135,0.0,0.0,0.0,0.0,0.0,0.0,0.0,0.0,0.0,0.0,0.0,0.0,0.0,0.0,0.0,0.0,0.0,0.0,0.0,0.0,0.0,0.0,0.0,0.0,0.0,-5.7455,-5.7008,-5.7003,-5.7409,-5.7215,-5.76,-5.8374,-5.7869,-5.7226,-5.6369,-5.4429,-5.3571,-5.3288,-5.1758,-5.1674,-5.2287,-5.0834,-5.0303,-5.0225,0.0,0.0,0.0,0.0,0.0,0.0,0.0,0.0,0.0,0.0,0.5845,0.4249,0.0,0.0,0.0,0.0,0.0,0.0,0.0,0.0,-1.7241,-1.8448,-2.0568,-2.2599,-2.4414,-2.4753,-2.4726,-2.4322,-2.2863,-2.3014,-2.468,-2.6353,-2.759,-2.8548,-3.0799,-3.0008,-2.6947,-2.7765,-2.7125,-2.5667,-2.6699,-2.7481,-2.798,-2.8077,0.0,0.0,0.0,0.0,0.0,0.0,0.0,0.0,-3.3184,-3.3881,-3.4604,-3.8094,-3.9715,-4.1009,-4.4289,-4.7208,-5.0248,-5.4007,-5.6631,-5.9526,-6.4462,-6.7474,-6.9394,-7.0003,-7.0734,-7.1564,-7.2322,-7.2826,0.0,0.0,0.0,0.0,0.0,0.0,0.0,0.0,0.0,0.0,0.0,0.0,0.0,0.0,0.0,0.0,0.0,0.0,0.0,0.0,0.0,0.0,0.0,0.0,0.0,0.0,-5.6295,-5.5843,-5.5827,-5.6676,-5.7448,-5.7989,-5.6575,-5.554,-5.4591,-5.2247,-5.1759,-5.2221,-4.9683,-4.9179,-4.9756,-4.8899,-4.8521,-4.847,0.0,0.0,0.0,0.0,0.0,0.0,0.0,0.0,0.0,0.0,0.0,0.0,0.0,0.0,0.0,0.0,0.0,0.0,0.0,0.0,-1.9113,-2.1464,-2.3753,-2.5357,-2.6169,-2.5941,-2.616,-2.6833,-2.5398,-2.5577,-2.7316,-2.9009,-3.053,-3.1857,-3.2463,-3.1157,-2.856,-2.9429,-2.8429,-2.6467,-2.8648,-2.8879,-2.7907,-2.861,-2.8841,0.0,0.0,0.0,0.0,0.0,0.0,0.0,-3.2637,-3.2512,-3.24,-3.6517,-3.761,-3.8593,-4.3639,-4.6896,-4.9758,-5.3509,-5.8139,-6.2371,-6.491,-6.7415,-6.9394,-7.0003,-7.0734,-7.1593,-7.2481,0.0,0.0,0.0,0.0,0.0,0.0,0.0,0.0,0.0,0.0,0.0,0.0,0.0,0.0,0.0,0.0,0.0,0.0,0.0,0.0,0.0,0.0,0.0,-5.8257,-5.737,-5.6419,0.0,-5.518,-5.4989,-5.4901,-5.5789,-5.598,-5.5614,-5.4646,-5.379,-5.2962,-5.1787,-5.105,-5.0489,-4.8541,-4.7929,-4.8046,-4.7165,-4.6401,-4.5806,0.0,0.0,0.0,0.0,0.0,0.0,0.0,0.0,0.0,0.0,0.0,0.0,0.0,0.0,0.0,0.0,0.0,0.0,0.0,0.0,-2.1733,-2.5077,-2.6775,-2.7901,-2.8402,-2.8014,-2.8139,-2.8796,-2.8527,-2.9294,-3.1052,-3.3512,-3.574,-3.7663,-3.846,-3.6955,-3.3731,-3.3769,-3.2139,-2.9576,-3.0969,-3.0701,-2.9628,-3.0112,-3.0047,-2.9728,-3.0075,0.0,0.0,0.0,0.0,0.0,0.0,0.0,-3.1074,-3.4129,-3.5509,-3.707,-4.1813,-4.5507,-4.9274,-5.4314,-5.8756,-6.239,-6.4243,-6.6969,-6.9224,-6.9684,-7.125,-7.2625,0.0,0.0,0.0,0.0,0.0,0.0,0.0,0.0,0.0,0.0,0.0,0.0,0.0,0.0,0.0,0.0,0.0,0.0,0.0,0.0,0.0,0.0,0.0,0.0,-5.7712,-5.7225,-5.6508,-5.5566,-5.504,-5.4503,-5.4051,-5.4901,-5.4684,-5.3621,-5.3262,-5.2403,-5.1249,-5.0431,-4.988,-4.9274,-4.7126,-4.6597,-4.6836,-4.5538,-4.4777,-4.4372,0.0,0.0,0.0,0.0,0.0,0.0,0.0,0.0,0.0,0.0,0.0,0.0,0.0,0.0,0.0,0.0,0.0,0.0,0.0,0.0,0.0,-2.8558,-2.958,-3.0331,-3.0928,-3.0393,-3.0406,-3.0898,-3.1938,-3.3851,-3.6546,-3.8738,-4.128,-4.4133,-4.5137,-4.3416,-3.9681,-3.8804,-3.6461,-3.3331,-3.3509,-3.2913,-3.1881,-3.1801,-3.1328,-3.0791,-3.1418,-3.1687,-3.184,-3.2333,0.0,0.0,0.0,0.0,-3.0654,-3.1946,-3.3639,-3.5982,-3.9932,-4.4312,-4.9343,-5.5472,-5.8945,-6.1473,-6.392,-6.6751,-6.909,-6.9745,-7.1863,-7.3434,0.0,0.0,0.0,0.0,0.0,0.0,0.0,0.0,0.0,0.0,0.0,0.0,0.0,0.0,0.0,0.0,0.0,0.0,0.0,0.0,0.0,0.0,0.0,-5.8009,-5.7293,-5.7186,-5.6714,-5.5838,-5.4992,-5.4049,-5.3039,-5.3837,-5.352,-5.2302,-5.2059,-5.1214,-4.9868,-4.8935,-4.8542,-4.832,-4.5945,-4.5343,-4.5624,-4.3904,-4.3147,-4.3006,0.0,0.0,0.0,0.0,0.0,0.0,0.0,0.0,0.0,0.0,-0.7826,-0.9055,0.0,0.0,0.0,0.0,0.0,0.0,0.0,0.0,0.0,-3.0758,-3.2061,-3.304,-3.3586,-3.2468,-3.2618,-3.4188,-3.5262,-3.9223,-4.5764,-4.3426,-4.4745,-4.9096,-4.7815,-4.5734,-4.3102,-4.2221,-3.9464,-3.578,-3.6483,-3.5476,-3.3439,-3.2721,-3.2439,-3.2321,-3.1853,-3.2172,-3.2813,-3.284,-3.3154,0.0,0.0,0.0,-3.1883,-3.1367,-3.2537,-3.4878,-3.896,-4.4972,-5.1255,-5.6274,-5.9091,-6.1742,-6.5779,-6.7878,-6.9379,0.0,-7.1842,0.0,0.0,0.0,0.0,0.0,0.0,0.0,0.0,0.0,0.0,0.0,0.0,0.0,0.0,0.0,0.0,0.0,0.0,0.0,0.0,-5.9237,-5.8303,-5.8141,-5.6558,0.0,-5.552,-5.5463,-5.4957,-5.4035,-5.3857,-5.2923,-5.1438,-5.2167,-5.2423,-5.2221,-5.0778,-5.004,-4.9714,-4.8223,-4.7603,-4.7416,-4.5685,-4.4624,-4.3823,-4.2108,-4.0965,-4.0207,0.0,0.0,0.0,0.0,0.0,0.0,0.0,0.0,0.0,0.0,0.0,-1.4254,0.0,0.0,0.0,0.0,0.0,0.0,0.0,0.0,0.0,-3.2788,-3.3963,-3.4856,-3.5425,-3.4697,-3.5145,-3.701,-3.7925,-4.2487,-5.0354,-5.0669,-5.309,-5.6958,-5.4714,-5.257,-5.041,-4.6797,-4.3322,-4.0246,-3.9781,-3.9254,-3.8497,-3.6254,-3.6039,-3.6638,-3.4472,-3.4339,-3.5149,-3.5136,-3.5264,-3.5215,-3.4137,0.0,0.0,0.0,-3.447,-3.7122,-4.2428,-4.6743,-5.0793,-5.5637,-5.8632,-6.1184,-6.4367,-6.6612,-6.8486,-6.9718,0.0,0.0,0.0,0.0,0.0,0.0,0.0,0.0,0.0,0.0,0.0,0.0,0.0,0.0,0.0,0.0,0.0,0.0,0.0,0.0,-5.9018,-5.7848,-5.7378,-5.7793,-5.6094,0.0,-5.5194,-5.4654,-5.4139,-5.3697,-5.3713,-5.33,-5.2537,-5.2382,-5.207,-5.1538,-5.0313,-4.9523,-4.8992,-4.7874,-4.7103,-4.6505,-4.4855,-4.3726,-4.2772,-4.1012,-3.9825,-3.9021,0.0,0.0,0.0,0.0,0.0,0.0,0.0,0.0,0.0,0.0,0.0,0.0,0.0,0.0,0.0,0.0,0.0,0.0,0.0,0.0,0.0,-3.4727,-3.554,-3.6316,-3.7091,-3.6894,-3.7702,-3.9542,-4.0806,-4.571,-5.4057,-5.7229,-6.1155,-6.5454,-6.2397,-5.9719,-5.7257,-5.2352,-4.8791,-4.6303,-4.4545,-4.3833,-4.3627,-4.1559,-4.1165,-4.136,-3.8529,-3.7878,-3.8291,-3.7977,-3.7939,-3.7949,-3.7318,-3.6615,0.0,0.0,0.0,-4.0127,-4.5059,-4.77,-5.016,-5.4895,-5.7868,-6.0423,-6.3289,-6.5627,-6.7461,0.0,0.0,0.0,0.0,0.0,0.0,0.0,0.0,0.0,0.0,0.0,0.0,0.0,0.0,0.0,0.0,0.0,0.0,0.0,0.0,0.0,-5.7265,-5.6835,-5.6758,-5.7137,-5.5677,-5.4909,-5.4865,-5.4406,-5.4022,-5.376,-5.4051,-5.3993,-5.3708,-5.304,-5.224,-5.1386,-5.0287,-4.9421,-4.8748,-4.7784,-4.698,-4.6208,-4.4337,-4.3102,-4.2148,-4.0187,-3.8756,-3.7776,0.0,0.0,0.0,0.0,0.0,0.0,0.0,0.0,0.0,0.0,0.0,0.0,-2.2274,-2.3254,-2.444,-2.5953,0.0,0.0,0.0,0.0,0.0,-3.6492,-3.6823,0.0,-3.867,-3.9005,-4.0089,-4.1895,-4.4342,-4.9792,-5.8144,-6.1393,-6.6896,-7.3859,-6.9737,-6.5652,-6.1716,-5.9171,-5.6725,-5.4268,-5.1798,-4.9366,-4.739,-4.8884,-4.8009,-4.5765,-4.4128,-4.3101,-4.2291,-4.0945,-4.1029,-4.1428,-3.9605,-3.99,-4.0708,0.0,0.0,0.0,-4.4378,-4.686,-5.0196,-5.4442,-5.6892,-5.9461,-6.4273,0.0,-6.6895,0.0,0.0,0.0,0.0,0.0,0.0,0.0,0.0,0.0,0.0,0.0,0.0,0.0,0.0,0.0,0.0,0.0,0.0,0.0,0.0,0.0,-5.5462,-5.6165,-5.6247,-5.5469,-5.4526,-5.4041,-5.3988,-5.4729,-5.4697,-5.3889,-5.4736,-5.4677,-5.3876,-5.3701,-5.3157,-5.224,-5.0546,-4.9741,-4.9528,-4.7934,-4.7295,-4.6989,-4.4565,-4.3084,-4.199,-3.9481,-3.7444,-3.5814,0.0,0.0,0.0,0.0,0.0,0.0,0.0,0.0,0.0,0.0,0.0,0.0,0.0,-2.4912,-2.5707,-2.6991,-2.8137,0.0,0.0,0.0,0.0,-3.5584,-3.6328,-3.7515,-3.9276,-4.0259,-4.1922,-4.429,-4.681,-5.1523,-5.8274,-6.1953,-6.6003,-7.0234,-6.8932,-6.7581,-6.5989,-6.1468,-5.8084,-5.573,-5.4905,-5.439,-5.3791,-5.1619,-5.1527,-5.203,0.0,0.0,-4.6297,-4.5273,-4.4959,-4.4648,-4.2849,-4.2908,-4.362,-4.3324,-4.4017,-4.5221,-4.6771,-4.8171,-5.0026,-5.3493,-5.5674,-5.7854,-6.1354,-6.3131,-6.4351,0.0,0.0,0.0,0.0,0.0,0.0,0.0,0.0,0.0,0.0,0.0,0.0,0.0,0.0,0.0,0.0,0.0,0.0,0.0,0.0,0.0,-5.4484,-5.5304,-5.5896,-5.6129,-5.4757,-5.3725,-5.3136,-5.3454,-5.3967,-5.4752,-5.507,-5.5371,-5.5535,-5.4324,-5.3269,-5.2317,-5.0505,-4.9388,-4.8701,-4.6499,-4.5607,-4.5385,-4.2909,-4.1384,-4.039,-3.8358,-3.6443,-3.4853,0.0,0.0,0.0,0.0,0.0,0.0,0.0,0.0,0.0,0.0,0.0,0.0,0.0,0.0,-2.7277,-2.8393,-2.9212,-3.0193,-3.1293,-3.2166,-3.3584,-3.5759,-3.667,-3.8115,-4.0193,-4.2018,-4.4114,-4.6531,-4.9359,-5.3607,-5.9175,-6.2603,-6.5888,-6.8908,-6.7996,-6.8442,-6.9512,-6.4917,-6.2053,-6.0449,-5.9092,-5.874,-5.8652,-5.5996,-5.5813,0.0,0.0,0.0,0.0,-4.9683,0.0,-4.819,-4.6533,-4.6045,-4.601,-4.5896,-4.6385,-4.7201,-4.7861,-4.874,-5.0056,-5.2782,-5.4153,-5.5723,-5.9173,-6.0562,-6.1523,0.0,0.0,0.0,0.0,0.0,0.0,0.0,0.0,0.0,0.0,0.0,0.0,0.0,0.0,0.0,0.0,0.0,0.0,0.0,0.0,0.0,-5.3969,-5.4833,-5.5427,-5.5737,-5.4594,-5.36,-5.2718,-5.3279,-5.4147,-5.524,-5.5599,-5.5981,-5.6458,-5.4935,-5.3574,-5.2313,-5.0195,-4.8793,-4.7796,-4.5515,-4.4485,-4.4025,-4.1551,-3.9834,-3.8619,-3.7097,-3.5193,-3.3323,0.0,0.0,0.0,0.0,0.0,0.0,0.0,0.0,0.0,-2.038,0.0,0.0,0.0,0.0,0.0,-3.0129,-3.008,-3.0763,-3.2574,-3.2286,-3.3575,-3.7178,0.0,0.0,-4.1535,-4.4418,-4.6801,-4.868,-5.2044,-5.6199,-6.1069,-6.3602,-6.7012,-7.1023,-6.7672,-6.8366,-7.1895,-6.9661,-6.8841,-6.8731,-6.4573,-6.2345,-6.1545,-6.2151,0.0,0.0,-5.7267,-5.6556,0.0,-5.3992,0.0,0.0,-5.0567,-4.9174,-4.7965,-4.7062,-4.819,-4.9265,0.0,0.0,0.0,-5.2386,-5.2301,-5.3059,-5.8,0.0,-5.8357,0.0,0.0,0.0,0.0,0.0,0.0,0.0,0.0,0.0,0.0,0.0,0.0,0.0,0.0,0.0,0.0,0.0,0.0,0.0,0.0,-5.3069,-5.3951,-5.4861,-5.4915,-5.3983,-5.3998,-5.3587,-5.2702,-5.4392,-5.5221,-5.5267,-5.6124,-5.6507,-5.6406,-5.5428,-5.4032,-5.2219,-4.9524,-4.7787,-4.68,-4.5153,-4.4008,-4.3044,-4.0565,-3.8472,-3.6785,-3.5764,-3.3655,-3.1219,0.0,0.0,0.0,0.0,0.0,0.0,0.0,0.0,-1.9643,0.0,0.0,0.0,-2.6631,-2.8814,-3.0513,-3.1252,-3.1643,-3.2343,-3.3476,-3.3857,-3.5237,-3.7763,-3.9077,-4.0941,-4.3529,-4.6488,-4.8935,-5.0908,-5.4349,-5.7309,-5.9936,-6.2466,-6.4927,-6.7221,-6.6528,-6.7005,-6.8103,-6.5199,-6.4913,-6.623,-6.4343,-6.3785,0.0,0.0,0.0,0.0,0.0,-5.9353,-5.9132,0.0,-5.6923,-5.5545,0.0,-5.0492,-4.88,-4.8895,-4.9158,-4.9288,-4.8809,0.0,0.0,0.0,0.0,0.0,0.0,0.0,0.0,0.0,0.0,0.0,0.0,0.0,0.0,0.0,0.0,0.0,0.0,0.0,0.0,0.0,0.0,0.0,0.0,0.0,0.0,0.0,-5.1226,-5.3046,-5.3951,-5.5425,-5.5272,-5.3115,-5.3686,-5.3561,-5.2713,-5.319,-5.3742,-5.4367,-5.4601,-5.4711,-5.465,-5.3019,-5.1346,-4.9547,-4.7507,-4.5015,-4.2447,-4.2022,-4.1369,-4.0399,-3.7878,-3.6132,-3.4898,-3.365,-3.2142,-3.0565,0.0,0.0,0.0,0.0,0.0,0.0,0.0,0.0,-2.0923,0.0,0.0,0.0,-2.8698,-3.0849,-3.246,-3.3155,-3.3741,-3.4502,-3.5583,-3.6247,-3.7569,-3.9747,-4.1705,-4.3825,-4.613,-4.8994,-5.1329,-5.3044,-5.5789,-5.7831,-5.9281,0.0,-6.2953,-6.407,-6.3807,-6.422,-6.4844,-6.1542,-6.2327,-6.5709,-6.4807,0.0,0.0,-6.2335,-6.1595,0.0,0.0,0.0,-6.1339,-6.0916,-5.9585,0.0,0.0,0.0,-5.0489,-4.9858,-4.9501,-4.9234,-4.8701,-4.8518,-4.8542,-4.8764,0.0,0.0,-5.0187,-4.9937,0.0,0.0,0.0,0.0,0.0,0.0,0.0,0.0,0.0,0.0,0.0,0.0,0.0,0.0,0.0,0.0,0.0,0.0,0.0,0.0,-5.0196,-5.2077,-5.3383,-5.4765,-5.4642,-5.2758,-5.3178,-5.3214,-5.2716,-5.2685,-5.3156,-5.4015,-5.4013,-5.381,-5.3396,-5.1537,-4.9768,-4.7962,-4.582,-4.3319,-4.0688,-3.9674,-3.8762,-3.7792,-3.5567,-3.4042,-3.2951,-3.1914,-3.0508,-2.9052,0.0,0.0,0.0,0.0,0.0,0.0,0.0,0.0,0.0,0.0,-2.5466,-2.8058,-3.1468,-3.3394,-3.4783,-3.557,-3.6229,-3.7137,-3.836,-3.9079,-4.0458,-4.2672,-4.52,-4.7365,-4.8975,-5.1667,-5.3626,0.0,0.0,0.0,0.0,0.0,0.0,0.0,-6.0543,-6.0923,-6.2151,-5.9115,-6.098,-6.5808,-6.4942,-6.4092,0.0,0.0,-6.1167,-6.0567,-6.0917,-6.182,-6.2839,-6.2637,-6.0955,0.0,0.0,0.0,0.0,0.0,-4.943,-4.9055,-4.7842,-4.7742,-4.8032,-4.811,0.0,0.0,-4.8558,-4.7654,-4.6824,0.0,0.0,0.0,0.0,0.0,0.0,0.0,0.0,0.0,0.0,0.0,0.0,0.0,0.0,0.0,0.0,0.0,-4.712,-4.7272,-4.8989,-5.0655,-5.2184,-5.328,-5.3388,-5.2287,-5.2436,-5.2475,-5.2287,-5.2294,-5.2687,-5.3429,-5.3422,-5.2983,-5.2064,-5.0258,-4.8491,-4.6697,-4.418,-4.2092,-4.0286,-3.7841,-3.6384,-3.5482,-3.3747,-3.2235,-3.0992,-3.0284,-2.8746,-2.6958,0.0,0.0,0.0,0.0,0.0,0.0,0.0,0.0,-2.4505,-2.533,-2.851,-3.1455,-3.3421,-3.5408,-3.685,-3.7482,-3.8762,-3.9924,-4.0704,-4.1833,-4.3363,-4.5429,-4.7203,-4.9033,-5.0928,-5.3203,0.0,0.0,0.0,0.0,0.0,0.0,0.0,0.0,-5.9908,-5.9688,-6.0115,-6.0327,-6.1102,-6.2176,-6.1695,0.0,-6.3542,-6.3089,-6.2509,-6.2032,-6.2924,-6.3024,-6.2675,-6.1813,-6.0058,-5.779,0.0,0.0,0.0,-5.0539,0.0,0.0,0.0,0.0,0.0,0.0,0.0,0.0,-4.3957,-4.3036,-4.2614,0.0,0.0,0.0,0.0,0.0,0.0,0.0,0.0,0.0,0.0,0.0,0.0,0.0,0.0,0.0,0.0,0.0,-4.6984,-4.712,-4.898,-4.9913,-4.9563,-5.1718,-5.1902,-4.9622,-5.0906,-5.0992,-4.9639,-4.9644,-4.9722,-4.9875,-4.9829,-4.9348,-4.8469,-4.6703,-4.4939,-4.3202,-4.1285,-3.9431,-3.7692,-3.5846,-3.4982,-3.4666,-3.2851,-3.0876,-2.896,-2.8016,-2.6729,-2.5197,0.0,0.0,0.0,0.0,0.0,0.0,0.0,0.0,-2.7094,-2.8117,-3.1438,-3.4074,-3.504,-3.6854,-3.8273,-3.9074,-4.0855,-4.218,-4.2799,-4.4487,-4.6094,-4.7564,-4.9333,-5.1138,-5.2978,-5.4279,0.0,0.0,0.0,0.0,0.0,0.0,0.0,0.0,-5.8514,-5.83,-5.8775,-5.8694,-5.9127,-6.0029,-6.1379,0.0,-6.1994,-6.1973,-6.136,-6.0555,-6.1437,-6.1682,-6.1536,-6.1204,-5.9299,0.0,0.0,-5.3859,-5.1543,0.0,-4.9288,-4.8394,0.0,0.0,0.0,-4.4918,0.0,0.0,0.0,-4.0795,-3.9949,-4.0689,0.0,0.0,0.0,0.0,0.0,0.0,0.0,0.0,0.0,0.0,0.0,0.0,0.0,0.0,0.0,0.0,-4.6359,-4.7081,-4.7751,-4.8318,-4.8783,-5.0037,-5.0139,-4.8829,-4.9645,-4.9692,-4.885,-4.885,-4.8853,-4.8895,-4.8404,-4.7489,-4.6142,-4.437,-4.2611,-4.0866,-3.9604,-3.8322,-3.6977,-3.5293,-3.4094,-3.3153,-3.1223,-2.9582,-2.8145,-2.6612,-2.4978,-2.3306,-2.3202,-2.4023,0.0,0.0,0.0,0.0,0.0,0.0,-2.9885,-3.142,-3.423,-3.6426,-3.7245,-3.8774,-4.0174,-4.1123,-4.2956,-4.4248,-4.4861,0.0,-4.8311,-4.9316,-5.1027,-5.2738,-5.4377,-5.4904,-5.5753,0.0,0.0,0.0,0.0,0.0,0.0,0.0,-5.7442,-5.7531,-5.7999,-5.7087,0.0,-5.8911,0.0,-6.1667,-6.0494,-6.0788,-6.0084,-5.8946,-5.9299,-5.9558,-5.9824,-5.9663,-5.7939,-5.5669,-5.5352,-5.3024,0.0,0.0,0.0,0.0,0.0,0.0,0.0,0.0,0.0,-4.145,0.0,0.0,0.0,-3.8128,0.0,0.0,0.0,0.0,0.0,0.0,0.0,0.0,0.0,0.0,0.0,0.0,0.0,0.0,0.0,0.0,-4.503,-4.6341,-4.5749,-4.6041,-4.7691,-4.7965,-4.7982,-4.7806,-4.7986,-4.7952,-4.7819,-4.781,-4.7815,-4.7868,-4.7128,-4.5852,-4.4079,-4.2455,-4.0761,-3.9054,-3.8227,-3.7397,-3.6494,-3.4964,-3.3341,-3.1639,-2.9697,-2.8268,-2.6994,-2.5147,-2.3131,-2.1201,-2.4857,-2.5221,-2.5748,0.0,0.0,0.0,0.0,0.0,-3.2854,-3.5194,-3.7176,-3.9148,-4.1167,-4.2509,-4.3773,-4.4916,-4.5858,0.0,-4.6962,0.0,-4.9393,-5.0521,-5.1343,-5.2504,-5.4089,-5.4707,-5.5234,0.0,0.0,0.0,0.0,0.0,0.0,0.0,-5.8245,-5.8152,-5.8281,-5.8443,-5.8759,0.0,-5.9597,-6.0228,0.0,-6.1408,-6.097,-6.0008,-5.8681,-5.803,-5.7516,0.0,-5.4762,-5.3358,0.0,-4.9995,-4.9812,-4.6426,0.0,0.0,0.0,0.0,0.0,0.0,-4.1189,0.0,0.0,0.0,-3.7003,-3.5283,0.0,0.0,0.0,0.0,0.0,0.0,0.0,0.0,0.0,0.0,0.0,0.0,0.0,0.0,0.0,0.0,0.0,-4.3647,-4.2966,-4.2974,-4.4125,-4.4997,-4.5093,-4.4294,-4.4961,-4.5,-4.4298,-4.4211,-4.4207,-4.4207,-4.4075,-4.3143,-4.1427,-4.0382,-3.8928,-3.7269,-3.6396,-3.5542,-3.4729,-3.3834,-3.2412,-3.0728,-2.9376,-2.6929,-2.4046,-2.2611,-2.0661,-1.859,-2.5676,-2.6335,-2.7102,-2.804,0.0,0.0,0.0,0.0,-3.7138,-3.8104,-4.0151,-4.2052,-4.3795,-4.4344,-4.5488,-4.7223,0.0,-4.8268,0.0,0.0,-5.0559,-5.1359,0.0,0.0,0.0,-5.4328,-5.4765,0.0,-5.5564,0.0,0.0,0.0,0.0,0.0,-5.8066,0.0,-5.8767,0.0,-5.8625,0.0,0.0,0.0,0.0,-6.0141,-5.9377,-5.8214,-5.6846,-5.5978,-5.5274,0.0,-5.2194,0.0,0.0,0.0,0.0,0.0,0.0,0.0,0.0,0.0,0.0,0.0,0.0,0.0,-3.9077,0.0,-3.4942,0.0,0.0,0.0,0.0,0.0,0.0,0.0,0.0,0.0,0.0,0.0,0.0,0.0,0.0,0.0,0.0,0.0,0.0,0.0,0.0,-4.1661,-4.2798,-4.3707,-4.4028,-4.3641,-4.3987,-4.398,-4.3662,-4.3611,-4.3611,-4.359,-4.3023,-4.208,-4.083,-3.937,-3.8052,-3.6755,-3.5472,-3.473,-3.4357,-3.3098,-3.156,-2.9767,-2.7813,-2.5627,-2.3344,-2.1368,-1.9129,-1.6817,-2.6919,-2.7685,-2.8571,-2.9532,0.0,0.0,0.0,0.0,-4.0511,-4.0978,-4.3171,-4.51,-4.6577,-4.6836,0.0,-5.0211,-5.0263,-5.0348,0.0,0.0,-5.182,0.0,0.0,0.0,0.0,-5.3978,-5.4226,-5.5223,-5.5133,0.0,0.0,0.0,0.0,0.0,0.0,-5.8416,-5.9092,0.0,-5.8311,-5.8526,-5.8744,-5.8715,-5.8561,-5.8593,-5.7695,-5.6159,-5.5035,-5.3945,-5.3065,-5.205,-4.9647,0.0,-4.7415,0.0,0.0,0.0,0.0,0.0,-4.0547,0.0,0.0,0.0,0.0,0.0,0.0,0.0,0.0,0.0,0.0,0.0,0.0,0.0,0.0,0.0,0.0,0.0,0.0,0.0,0.0,0.0,0.0,0.0,0.0,0.0,0.0,0.0,-3.9535,0.0,-4.1548,-4.2224,-4.2659,-4.2916,-4.2899,-4.2875,-4.2852,-4.2827,-4.2827,-4.2813,-4.183,-4.0904,-3.9968,-3.8415,-3.7203,-3.6248,-3.4866,-3.4022,-3.3596,-3.2235,-3.0507,-2.8485,-2.6352,-2.4464,-2.2593,-2.0034,-1.7452,-1.4868,-2.9061,-2.9513,-3.0091,-3.0786,-3.2916,0.0,0.0,0.0,0.0,0.0,0.0,0.0,0.0,0.0,0.0,0.0,0.0,-5.3076,-5.3041,0.0,-5.3159,0.0,0.0,-5.3267,0.0,-5.3766,-5.3782,-5.3483,-5.4664,0.0,0.0,0.0,0.0,0.0,-5.7924,-5.8662,-5.9254,-5.8253,-5.8436,-5.9235,-5.7771,-5.6645,-5.6015,0.0,-5.6652,-5.4723,-5.3253,0.0,0.0,-4.8101,-4.6785,0.0,0.0,0.0,0.0,0.0,0.0,0.0,0.0,0.0,0.0,-3.6676,0.0,0.0,0.0,0.0,-3.0583,0.0,0.0,0.0,0.0,0.0,0.0,-2.3954,0.0,0.0,0.0,0.0,0.0,0.0,0.0,0.0,0.0,0.0,0.0,0.0,-3.6978,0.0,-3.9747,-3.9921,-4.033,-4.1134,-4.1046,-4.0985,-4.0985,-4.0936,-4.0893,-4.087,-3.9944,-3.8994,-3.804,-3.7084,-3.6166,-3.5315,-3.4477,-3.3257,-3.1825,-3.1008,-2.9179,-2.6729,-2.5428,-2.3458,-2.1025,-1.8233,-1.5183,-1.2285,-3.0107,-3.1158,-3.1791,-3.1702,-3.3558,0.0,0.0,-4.317,0.0,0.0,-4.92,0.0,0.0,-5.3197,-5.3783,0.0,0.0,-5.3546,-5.3939,-5.3104,0.0,0.0,0.0,-5.2719,0.0,-5.2861,-5.2571,-5.3114,-5.3703,0.0,0.0,0.0,0.0,0.0,0.0,-5.8527,0.0,0.0,0.0,0.0,0.0,-5.5771,-5.5101,0.0,0.0,-5.319,-5.1789,-5.0579,0.0,-4.6982,-4.5183,-4.3589,-4.1327,-3.9991,-3.8955,-3.7073,-3.6299,0.0,0.0,0.0,-3.3483,-3.4214,0.0,0.0,0.0,0.0,0.0,0.0,0.0,0.0,0.0,0.0,-2.3257,-2.2204,-2.3777,0.0,0.0,0.0,0.0,0.0,0.0,0.0,0.0,0.0,0.0,-3.5643,-3.6619,-3.7439,0.0,-3.9687,-4.0516,-4.0169,-4.0641,-4.0878,-4.0826,-4.0804,-4.0769,-4.0707,-4.0331,-3.9615,-3.8607,-3.7687,-3.6455,-3.4992,-3.3142,-3.1789,-3.0762,-2.9479,-2.8114,-2.6601,-2.4825,-2.2951,-2.0923,-1.7756,-1.5273,-1.2699,-3.1006,-3.2142,-3.2981,-3.3062,-3.541,0.0,0.0,0.0,0.0,0.0,-5.1801,0.0,-5.5284,0.0,-5.5265,0.0,-5.5237,-5.4443,-5.44,-5.3773,0.0,-5.3428,-5.2776,0.0,0.0,0.0,-5.2059,-5.2572,-5.3215,-5.3461,0.0,0.0,0.0,0.0,0.0,-5.7515,-5.8303,-5.8499,-5.8304,0.0,0.0,-5.4759,0.0,0.0,-5.2597,0.0,0.0,-4.8952,-4.7596,-4.5461,-4.3545,-4.1723,-3.9815,-3.8197,-3.6734,-3.5365,-3.4379,-3.3335,-3.2122,-3.124,0.0,0.0,-3.0887,0.0,-3.0505,0.0,0.0,0.0,0.0,0.0,0.0,0.0,0.0,-2.111,-2.3801,0.0,0.0,-2.7185,0.0,0.0,0.0,0.0,0.0,0.0,-3.4698,-3.5116,-3.6396,-3.7417,0.0,0.0,-4.0476,-4.0175,-4.0632,-4.0848,-4.0769,-4.0707,-4.0486,-4.0121,-3.9692,-3.8946,-3.7944,-3.7015,-3.5818,-3.4321,-3.2226,-3.0748,-2.9753,-2.8187,-2.7062,-2.6128,-2.414,-2.2692,-2.1279,-1.7711,-1.4019,-0.9864,-3.135,-3.249,0.0,0.0,-3.8373,0.0,0.0,0.0,-4.9845,0.0,-5.3755,-5.5485,-5.6427,-5.6448,-5.6561,-5.721,-5.6611,-5.5721,-5.4437,-5.484,0.0,0.0,-5.3102,-5.3275,-5.2546,0.0,0.0,0.0,0.0,0.0,0.0,0.0,0.0,0.0,-5.4623,0.0,-5.718,-5.6854,-5.7311,-5.8008,-5.5566,-5.3489,-5.1755,-5.0242,0.0,-5.0445,-4.852,-4.7269,-4.5949,-4.3604,-4.1888,-4.0226,-3.8201,-3.6203,-3.4493,-3.3528,-3.1977,-3.0469,-3.0471,-2.9479,-2.8468,-2.8397,0.0,0.0,0.0,0.0,-1.9607,0.0,0.0,0.0,0.0,0.0,0.0,-2.0689,-2.3943,0.0,0.0,0.0,0.0,0.0,0.0,0.0,0.0,-3.3502,-3.424,-3.5817,-3.6135,-3.724,0.0,0.0,0.0,-4.092,-4.0896,-4.0804,-4.0694,-4.0554,-4.0005,-3.915,-3.8173,-3.7186,-3.6196,-3.532,-3.4333,-3.3238,-3.1732,-3.0197,-2.8682,-2.7181,-2.6079,-2.5229,-2.3512,-2.2668,-2.1899,-1.799,-1.1625,-0.4314,-3.2189,-3.4418,-3.6832,0.0,-4.0235,-4.2307,0.0,0.0,0.0,0.0,-5.5087,-5.6584,-5.6922,-5.7524,-5.7542,-5.6997,-5.6213,0.0,0.0,0.0,0.0,-5.446,-5.2966,-5.268,-5.3569,-5.167,0.0,-5.1695,0.0,0.0,-5.1783,0.0,0.0,0.0,0.0,-5.4916,-5.6085,-5.5748,-5.5528,-5.5366,-5.4005,-5.2471,0.0,0.0,-4.8745,-4.8354,-4.71,-4.5883,-4.4675,-4.297,-4.1196,-3.9267,-3.7117,-3.554,-3.4096,-3.1998,-3.0857,-3.0018,-2.8421,-2.7262,-2.633,-2.5721,-2.4603,-2.3246,0.0,0.0,0.0,0.0,0.0,0.0,0.0,0.0,0.0,0.0,0.0,0.0,0.0,0.0,0.0,-3.0976,0.0,0.0,0.0,-3.3122,-3.3557,-3.487,-3.5308,-3.6228,0.0,0.0,0.0,-4.0048,-4.1168,-4.1412,-4.0615,-4.1139,-4.0875,-3.991,-3.9426,-3.8385,-3.6836,-3.6419,-3.4731,-3.2157,-3.1054,-2.942,-2.7471,-2.6529,-2.5734,-2.5001,-2.4019,-2.2457,-2.0356,-1.6682,-1.1281,-0.5216,-3.3125,-3.606,0.0,-4.0422,0.0,0.0,-4.5814,-4.841,0.0,-5.3337,-5.5534,0.0,-5.689,-5.77,-5.7769,-5.6692,-5.6431,0.0,-5.5591,0.0,0.0,-5.4024,-5.2861,-5.2487,-5.3018,-5.1252,0.0,-5.1179,0.0,0.0,-5.0894,0.0,0.0,0.0,0.0,-5.3728,-5.469,-5.4973,-5.4573,-5.3882,-5.3049,0.0,0.0,-4.848,-4.7383,-4.6581,-4.5698,-4.4812,-4.3842,-4.1995,-4.0255,-3.8487,-3.6524,-3.4983,-3.3376,-3.1281,-3.0138,-2.9127,-2.7578,-2.6012,-2.4665,-2.3505,-2.1745,-1.9913,-1.8321,-1.5794,-1.3372,0.0,0.0,0.0,0.0,0.0,0.0,0.0,0.0,0.0,0.0,0.0,0.0,0.0,0.0,0.0,0.0,-3.2465,-3.3194,-3.5135,-3.5315,0.0,0.0,0.0,0.0,0.0,-4.0839,-4.117,-4.0545,-4.0781,-4.0444,-3.9447,-3.9188,-3.8276,-3.6808,-3.627,-3.4744,-3.2465,-3.087,-2.9267,-2.7695,-2.6313,-2.5521,-2.5132,-2.4199,-2.2319,-1.9882,-1.7472,-1.1975,-0.5088,-3.4503,-3.7466,0.0,0.0,0.0,0.0,0.0,-4.9438,0.0,-5.3437,0.0,-5.689,-5.648,-5.7247,-5.7372,-5.6479,0.0,-5.6522,-5.5076,-5.5314,-5.4728,-5.27,-5.2754,-5.2593,-5.1948,-5.1017,0.0,0.0,0.0,0.0,0.0,0.0,0.0,0.0,0.0,0.0,0.0,-5.4316,-5.4063,-5.3048,-5.2253,-5.0939,-4.9191,-4.7601,-4.6384,-4.5326,-4.4472,-4.3951,-4.3177,-4.091,-3.9346,-3.7975,-3.5992,-3.4298,-3.2854,-3.1065,-2.9619,-2.8376,-2.7343,-2.5481,-2.3601,-2.2085,-1.9499,-1.7003,-1.5677,-1.4142,-1.2289,-0.9917,-1.1083,0.0,0.0,0.0,0.0,0.0,0.0,0.0,0.0,0.0,0.0,0.0,0.0,0.0,0.0,0.0,0.0,-3.5439,-3.5153,0.0,0.0,0.0,0.0,0.0,-4.0335,0.0,-4.0454,0.0,-3.9542,-3.8622,-3.8328,-3.7623,-3.6528,-3.5579,-3.4475,-3.3263,-3.1057,-2.9471,-2.8408,-2.649,-2.5576,-2.5239,-2.3926,-2.2145,-2.0216,-1.91,-1.3288,-0.5249,-3.6675,0.0,0.0,0.0,0.0,-4.5184,-4.7641,-4.9729,-5.1629,-5.2913,-5.5105,-5.6395,-5.5602,-5.6639,-5.7075,-5.6314,-5.679,0.0,0.0,0.0,0.0,-5.4603,-5.3071,-5.2455,-5.2742,-5.0702,-5.0023,0.0,0.0,0.0,0.0,0.0,0.0,0.0,0.0,0.0,-5.2315,-5.3308,0.0,-5.2724,-5.1872,-5.0842,-4.9675,-4.8347,-4.6945,-4.5698,-4.4589,-4.3663,-4.2587,-4.0799,-3.9455,-3.8089,-3.5191,-3.4152,-3.3328,-3.0641,-2.9804,-2.9137,-2.6846,-2.5463,-2.4172,-2.2039,-1.987,-1.7528,-1.5231,-1.3513,-1.2018,-1.0958,-1.1306,-1.269,-1.5849,0.0,0.0,0.0,0.0,0.0,0.0,0.0,0.0,0.0,0.0,0.0,0.0,0.0,0.0,0.0,0.0,0.0,0.0,0.0,0.0,0.0,0.0,0.0,0.0,0.0,0.0,-3.9151,-3.8804,-3.8044,-3.6967,-3.5824,-3.4451,-3.2763,-3.1533,-2.9743,-2.7677,-2.7338,-2.6218,-2.4584,-2.2691,-2.1812,-2.1317,-1.9051,-1.4783,-0.9263,-3.8396,0.0,0.0,0.0,0.0,0.0,0.0,-4.9653,0.0,-5.2621,-5.4355,-5.525,-5.4862,-5.6105,-5.6767,-5.6277,-5.6953,-5.7149,-5.6534,-5.6158,-5.5735,-5.5138,-5.3763,0.0,-5.2694,-5.0975,-5.0077,-4.9967,0.0,0.0,0.0,0.0,0.0,0.0,0.0,-5.2016,0.0,0.0,0.0,-5.2567,-5.2174,-5.1053,-4.9578,-4.867,-4.7337,-4.5685,-4.448,-4.3489,-4.2323,-4.0669,-3.9438,-3.8274,-3.5591,-3.4544,-3.3973,-3.1464,-3.0445,-2.9716,-2.8142,-2.6409,-2.4665,-2.2935,-2.087,-1.8818,-1.6838,-1.5559,-1.4617,-1.4321,-1.4552,-1.5837,-1.9347,-2.1924,0.0,0.0,0.0,0.0,0.0,0.0,0.0,0.0,0.0,0.0,0.0,0.0,0.0,0.0,0.0,0.0,0.0,0.0,0.0,0.0,0.0,0.0,0.0,0.0,0.0,-3.8933,-3.8548,-3.7947,-3.7109,-3.6043,-3.4728,-3.3173,-3.1773,-2.9971,-2.7845,-2.6177,-2.4726,-2.3467,-2.1856,-2.1044,-2.0608,-1.892,-1.5451,-1.0542,0.0,-4.1371,0.0,0.0,-4.5403,0.0,-4.8158,-4.9267,-5.0417,-5.2124,-5.3334,-5.4206,-5.4073,-5.5439,-5.6212,-5.5901,-5.6774,-5.6934,-5.6167,-5.6275,-5.6098,-5.5365,-5.427,-5.3356,-5.2699,-5.1275,-5.0193,0.0,0.0,0.0,0.0,0.0,0.0,0.0,0.0,0.0,0.0,0.0,-5.2902,-5.2159,-5.222,-5.1205,-4.9376,-4.9011,-4.7686,-4.582,-4.4773,-4.3624,-4.2382,-4.0528,-3.9445,-3.8335,-3.6062,-3.504,-3.4387,-3.239,-3.1227,-3.0295,-2.947,-2.7633,-2.5586,-2.4217,-2.2441,-2.0717,-1.9334,-1.8487,-1.7925,-1.7861,-1.8367,-1.9516,-2.1821,-2.267,0.0,0.0,0.0,0.0,0.0,0.0,0.0,0.0,0.0,0.0,0.0,0.0,0.0,0.0,0.0,0.0,0.0,0.0,0.0,0.0,0.0,0.0,-3.8991,0.0,-3.8559,0.0,-3.7959,-3.7506,-3.6833,-3.5688,-3.449,-3.3277,-3.1537,-2.9669,-2.7656,-2.4385,-2.2763,-2.2215,-2.061,-1.9644,-1.9041,-1.786,-1.4916,-1.0479,0.0,0.0,0.0,0.0,0.0,0.0,0.0,-4.808,-4.9628,-5.16,-5.273,-5.3404,-5.3641,-5.4395,-5.4988,-5.4688,-5.5385,-5.5657,-5.5115,-5.5641,-5.5745,-5.5333,-5.3847,-5.3078,-5.3335,-5.1311,-5.0155,0.0,0.0,0.0,0.0,0.0,0.0,0.0,0.0,0.0,0.0,-5.2362,-5.2178,-5.1763,-5.1319,-5.0504,-4.9669,-4.9023,-4.782,-4.6201,-4.5309,-4.4298,-4.313,-4.0935,-3.9571,-3.8335,-3.6062,-3.4972,-3.4378,-3.2907,-3.1701,-3.0638,-2.9407,-2.8432,-2.7318,-2.5727,-2.4717,-2.3782,-2.2169,-2.1404,-2.0886,-2.054,-2.1233,-2.227,-2.3496,-2.393,-2.4332,0.0,0.0,0.0,0.0,0.0,0.0,0.0,0.0,0.0,0.0,0.0,0.0,0.0,0.0,0.0,0.0,0.0,0.0,0.0,0.0,-3.6458,-3.6285,-3.6952,0.0,-3.6816,-3.6929,-3.6631,-3.5865,-3.4084,-3.2773,-3.189,-3.01,-2.8126,-2.6006,-2.2788,-2.1413,-2.0976,-1.8119,-1.7083,-1.6908,-1.4688,-1.2394,-0.9331,0.0,0.0,0.0,0.0,0.0,0.0,0.0,-4.7065,-4.7946,-4.9346,-5.1212,-5.2409,-5.2462,-5.3656,-5.4604,-5.4713,-5.5226,-5.5551,-5.5532,-5.5582,-5.5722,-5.543,-5.477,-5.4376,-5.4188,-5.2578,-5.1614,0.0,0.0,0.0,0.0,0.0,0.0,0.0,0.0,-5.3069,-5.3002,-5.2973,-5.2724,-5.2288,-5.1479,-5.0731,-5.0044,-4.9237,-4.83,-4.7005,-4.5451,-4.4394,-4.3417,-4.1566,-4.0127,-3.8723,-3.6697,-3.5554,-3.4983,-3.4262,-3.3078,-3.1913,-3.1042,-2.9842,-2.8645,-2.7542,-2.654,-2.5683,-2.5284,-2.4378,-2.3532,-2.3393,-2.3,-2.2947,-2.3703,-2.4006,-2.4315,0.0,0.0,0.0,0.0,0.0,0.0,0.0,0.0,0.0,0.0,0.0,0.0,0.0,0.0,0.0,0.0,0.0,0.0,-3.3484,0.0,-3.5299,-3.5544,-3.5828,-3.5749,-3.5332,-3.4975,-3.4389,-3.3539,-3.24,-3.1007,-2.9296,-2.7181,-2.5363,-2.3646,-2.089,-1.9208,-1.8218,-1.5634,-1.4109,-1.3141,-1.1317,-0.8436,-0.4744,-4.0837,0.0,-4.3402,0.0,-4.4411,-4.508,-4.5915,-4.6188,-4.6574,-4.7401,-4.9469,-5.0922,-5.1227,-5.2741,-5.3731,-5.4347,-5.4603,-5.5087,-5.5491,-5.5705,-5.5806,-5.5955,-5.558,0.0,-5.492,-5.3994,-5.3181,-5.2607,-5.2807,0.0,0.0,0.0,0.0,0.0,-5.4159,-5.3858,-5.3254,-5.3106,-5.2743,-5.2114,-5.1369,-5.0627,-5.0022,-4.9073,-4.8338,-4.7559,-4.5738,-4.4757,-4.4086,-4.2404,-4.0924,-3.9455,-3.7804,-3.6642,-3.5966,-3.5629,-3.4453,-3.3269,-3.2694,-3.1372,-2.9947,-2.9215,-2.8123,-2.7318,-2.7481,-2.6439,-2.5492,-2.5252,-2.4183,-2.3409,-2.3961,-2.4212,-2.4414,0.0,0.0,0.0,0.0,0.0,0.0,0.0,-2.7296,-2.7377,-2.7343,0.0,0.0,0.0,0.0,0.0,0.0,0.0,0.0,0.0,0.0,0.0,0.0,0.0,-3.3987,-3.3636,-3.3119,-3.2319,-3.1358,-3.0123,-2.8419,-2.638,-2.4231,-2.2589,-2.118,-1.8527,-1.6657,-1.5222,-1.2785,-1.0962,-0.9527,-0.7764,-0.4714,-0.0934,-4.1254,-4.2377,-4.3484,-4.4255,-4.4609,-4.4815,-4.4991,-4.5571,-4.5902,-4.5883,-4.7736,-4.9247,-5.0134,-5.1103,-5.2005,-5.2849,-5.3336,-5.3849,-5.4788,-5.554,-5.6155,0.0,0.0,-5.5754,-5.5754,-5.506,-5.4633,-5.4628,0.0,0.0,-5.5857,0.0,0.0,-5.6106,-5.5811,-5.4548,-5.2841,-5.2517,-5.1828,-5.1013,-5.0519,-5.0002,-4.9438,-4.8404,-4.7813,-4.7495,-4.6162,-4.5586,-4.5124,-4.3425,-4.2097,-4.0841,-3.9324,-3.8139,-3.732,-3.6938,-3.5692,-3.4522,-3.4051,-3.2879,-3.1479,-3.0719,-2.9788,-2.885,-2.8312,-2.7502,-2.6505,-2.5561,-2.4531,-2.3959,-2.4476,-2.4821,-2.5008,-2.5079,0.0,0.0,0.0,0.0,0.0,0.0,-2.5379,-2.5442,-2.5512,0.0,0.0,0.0,0.0,0.0,0.0,0.0,0.0,-3.0468,-3.0228,0.0,-3.1416,-3.1498,-3.1589,-3.165,-3.1662,-3.0952,-2.9645,-2.6919,-2.4824,-2.3346,-2.1567,-2.0118,-1.8789,-1.5624,-1.3665,-1.225,-0.9471,-0.7705,-0.6465,-0.4049,-0.1569,0.106,-4.0346,-4.1664,-4.2721,-4.2295,-4.269,-4.3248,-4.3849,-4.3835,-4.3972,-4.475,-4.5458,-4.6279,-4.7261,-4.9556,-5.1638,0.0,-5.2563,-5.3405,0.0,-5.5012,-5.5385,-5.6155,-5.6446,-5.7025,-5.7621,-5.7091,-5.7004,-5.7549,0.0,0.0,0.0,-5.8418,-5.8447,-5.8088,-5.7066,-5.598,-5.4892,-5.3804,-5.2607,-5.1355,-5.0748,-5.0016,-4.9438,-4.8474,-4.8404,-4.8629,-4.7092,-4.6476,-4.6251,-4.4569,-4.3388,-4.2497,-4.1614,-3.9901,-3.8015,-3.7839,-3.6943,-3.5903,-3.5305,-3.4263,-3.3212,-3.2605,-3.1386,-3.0302,-2.9853,-2.8083,-2.6432,-2.6002,-2.4719,-2.383,-2.42,-2.4356,-2.4529,-2.4862,0.0,0.0,0.0,0.0,0.0,0.0,0.0,-2.4788,0.0,-2.4885,0.0,0.0,0.0,0.0,0.0,0.0,0.0,0.0,-2.9458,0.0,-3.052,-3.0247,-2.976,-2.8994,-2.8731,-2.7506,-2.532,-2.368,-2.1922,-2.012,-1.8655,-1.688,-1.4899,-1.2843,-1.0892,-0.9072,-0.6838,-0.493,-0.3157,-0.0763,0.171,0.4397,-4.0372,-4.1345,-4.2101,-4.155,-4.1931,-4.2459,-4.2876,-4.2698,-4.2827,-4.3609,-4.414,-4.4678,-4.5631,-4.791,0.0,-5.1164,-5.1824,-5.2803,-5.4448,-5.4835,-5.5611,-5.6564,-5.7335,-5.8012,-5.8958,0.0,0.0,-5.9927,-6.0068,-6.0362,-6.0907,-6.0787,-6.0441,-6.0068,-5.8672,-5.7548,-5.6228,-5.5159,-5.363,-5.222,-5.1076,-5.0367,-4.9712,-4.8538,-4.8474,-4.8849,-4.7478,-4.7131,-4.7016,-4.5629,-4.4563,-4.3742,-4.3033,-4.1387,-3.9652,-3.922,-3.819,-3.7045,-3.6601,-3.5449,-3.4142,-3.3575,-3.2112,-3.0636,-2.9722,-2.8028,-2.6478,-2.6043,-2.4937,-2.4047,-2.3997,-2.4016,-2.42,-2.4625,0.0,0.0,0.0,0.0,0.0,0.0,0.0,0.0,0.0,-2.4723,0.0,0.0,0.0,0.0,0.0,0.0,0.0,-2.8595,-2.8511,0.0,-2.911,-2.819,-2.7252,-2.6397,-2.5443,-2.392,-2.2068,-2.066,-1.8934,-1.7025,-1.5685,-1.3816,-1.1611,-0.998,-0.8178,-0.6211,-0.4333,-0.236,-0.0333,0.198,0.4345,0.692,-4.0747,-4.1256,0.0,0.0,-4.1993,0.0,-4.1899,-4.1924,-4.2076,-4.2635,-4.3574,-4.44,-4.5034,-4.6076,-4.7396,-4.9348,0.0,0.0,0.0,-5.4896,-5.622,-5.755,-5.7917,0.0,-5.9623,-6.0072,-6.07,-6.1634,-6.3051,-6.3665,-6.3468,-6.2988,-6.2535,-6.1806,-6.0464,-5.8901,-5.6997,-5.6228,-5.4859,-5.3076,-5.1757,-5.0889,-5.0258,-4.8384,-4.8094,-4.8521,-4.7675,-4.74,-4.7316,-4.6213,-4.5342,-4.4468,-4.3374,-4.2441,-4.161,-4.0927,-3.9415,-3.7981,-3.7929,-3.6302,-3.4457,-3.3886,-3.2159,-3.005,-2.8379,-2.7394,-2.6644,-2.584,-2.5099,-2.4442,-2.3893,-2.3879,-2.407,-2.4371,-2.3826,-2.3621,-2.4286,0.0,0.0,0.0,0.0,0.0,0.0,-2.4662,-2.48,0.0,0.0,0.0,0.0,0.0,0.0,-2.8448,-2.7325,-2.6872,-2.724,-2.5455,-2.4282,-2.3789,-2.1851,-2.045,-1.9512,-1.7734,-1.5872,-1.4058,-1.252,-1.0717,-0.881,-0.7125,-0.5424,-0.3708,-0.2013,-0.0052,0.2062,0.4221,0.6411,0.8841,0.0,0.0,-4.0638,-3.9985,-4.009,-4.0269,-4.0671,-4.0366,-4.053,-4.1497,-4.2251,-4.3104,-4.4271,-4.5417,-4.6648,-4.8007,-4.9029,-5.0694,-5.3159,-5.3213,-5.4001,-5.5672,-5.6415,-5.7525,-5.9179,-5.9687,-6.0622,-6.2172,-6.297,-6.3633,-6.4049,-6.3778,-6.3434,-6.2941,-6.1032,-5.9392,-5.8022,-5.6746,-5.4918,-5.3048,-5.1935,-5.0825,-4.9816,-4.8638,-4.8506,-4.8844,-4.8192,-4.7912,-4.769,-4.6224,-4.5267,-4.4583,-4.3145,-4.1953,-4.0959,-4.0411,-3.94,-3.8295,-3.7486,-3.6203,-3.4894,-3.4078,-3.19,-2.955,-2.7833,-2.6812,-2.608,-2.5305,-2.4838,-2.4297,-2.3603,-2.3476,-2.3523,-2.3712,-2.299,-2.2524,-2.3116,0.0,0.0,0.0,-2.2539,-2.2931,-2.3346,-2.3338,-2.3004,0.0,0.0,0.0,0.0,0.0,-2.421,-2.6484,-2.554,-2.4852,-2.4517,-2.3699,-2.2519,-2.1043,-1.8867,-1.7331,-1.6342,-1.4433,-1.2375,-1.0248,-0.8821,-0.7135,-0.5155,-0.4313,-0.31,-0.1563,-0.0056,0.1824,0.3996,0.6587,0.9235,1.1952,-3.9215,-3.9684,-3.9857,-3.9176,-3.9058,-3.9166,-3.9677,-3.9472,-3.9752,-4.1127,-4.1647,-4.2623,-4.3883,-4.4957,-4.6157,-4.772,-4.8833,-5.0214,-5.1964,-5.2437,-5.3287,-5.4804,-5.5498,-5.661,-5.8259,-5.8687,-5.9756,-6.1248,-6.1757,-6.2251,-6.2432,-6.2787,-6.2804,-6.2339,-6.1014,-5.9747,-5.8399,-5.7095,-5.5238,-5.3029,-5.2035,-5.0901,-4.9507,-4.8584,-4.84,-4.8598,-4.7693,-4.7235,-4.6842,-4.5285,-4.4426,-4.3775,-4.2223,-4.109,-4.025,-3.9499,-3.8734,-3.7877,-3.6858,-3.5709,-3.4406,-3.2915,-3.0833,-2.8804,-2.7537,-2.6598,-2.5723,-2.4841,-2.4327,-2.3845,-2.3253,-2.285,-2.2737,-2.2944,-2.1993,-2.1421,-2.1784,-2.1087,0.0,-2.0542,-2.1168,-2.1633,-2.1627,-2.1978,-2.1818,-2.0813,0.0,0.0,-2.0147,-2.0315,-2.163,-2.4252,-2.3421,-2.2446,-2.145,-1.9912,-1.8422,-1.7089,-1.53,-1.3707,-1.2398,-1.0583,-0.8573,-0.6444,-0.5237,-0.3797,-0.2318,-0.1771,-0.0962,0.0187,0.1891,0.3782,0.5917,0.88,1.1566,1.4353,-3.8648,-3.8806,-3.8635,-3.8453,-3.8358,-3.8369,-3.878,-3.8931,-3.9323,-4.0724,-4.1555,-4.239,-4.3769,-4.4724,-4.5985,-4.7362,-4.8818,-4.9912,-5.0594,-5.1832,-5.3073,-5.3868,-5.4568,-5.5401,-5.6882,-5.7314,-5.8166,-5.9447,-5.9785,-5.9995,-5.9914,-6.0549,-6.0839,-6.0634,-5.9917,-5.8978,-5.7699,-5.6849,-5.514,-5.2736,-5.1745,-5.0537,-4.936,-4.7976,-4.7749,-4.7858,-4.6563,-4.598,-4.5324,-4.3982,-4.3202,-4.2366,-4.0755,-3.9958,-3.9197,-3.8051,-3.7198,-3.6633,-3.5846,-3.4634,-3.3109,-3.0882,-2.9183,-2.7883,-2.686,-2.5991,-2.5247,-2.4155,-2.3514,-2.3058,-2.2628,-2.2045,-2.1666,-2.1995,-2.0878,-2.0067,-2.0352,0.0,-1.8937,-1.8669,-1.9733,-2.0251,-1.9476,-2.0433,-2.0514,-1.9155,-1.8882,0.0,0.0,-1.7643,-1.845,-2.0835,-2.0553,-1.9497,-1.7739,-1.5223,-1.3486,-1.268,-1.1409,-0.9963,-0.8337,-0.6608,-0.4715,-0.283,-0.1797,-0.0731,0.0279,0.0615,0.1199,0.2133,0.3861,0.582,0.8017,1.0843,1.3655,1.6389,-3.5558,-3.6134,-3.6399,-3.6201,-3.7069,-3.7707,-3.7835,-3.8238,-3.8842,-4.0043,-4.1088,-4.2245,-4.3572,-4.4618,-4.5783,-4.6786,-4.7545,-4.8526,-5.0127,-5.0332,-5.0882,-5.135,-5.2412,-5.3273,-5.4432,-5.5221,-5.6092,-5.7159,-5.7078,-5.7472,-5.8343,-5.7909,-5.774,-5.7594,-5.6486,-5.5554,-5.4567,-5.4328,-5.3032,-5.1279,-5.0002,-4.9158,-4.8623,-4.6943,-4.633,-4.6245,-4.5654,-4.4464,-4.3119,-4.276,-4.1527,-4.0148,-3.9336,-3.8451,-3.7288,-3.6046,-3.5008,-3.4198,-3.4302,-3.2512,-3.0203,-2.8391,-2.7562,-2.6663,-2.4697,-2.3994,-2.3426,-2.2485,-2.2005,-2.163,-2.1205,-2.0586,-2.0285,-2.0782,-1.9275,-1.8267,0.0,0.0,-1.7401,-1.7634,-1.8058,-1.836,-1.8487,-1.8209,-1.7725,-1.6959,-1.6036,-1.5335,-1.4791,-1.4153,-1.3693,-1.3535,-1.537,-1.5102,-1.2407,-1.1054,-0.9952,-0.9027,-0.7576,-0.6318,-0.4983,-0.2856,-0.1166,0.0075,0.1224,0.2256,0.316,0.322,0.3932,0.5042,0.6067,0.8196,1.0925,1.2651,1.5495,1.8698,-3.3909,-3.3914,-3.4177,-3.5315,-3.5885,-3.6575,-3.7578,-3.7751,-3.8268,-3.9845,-4.0743,-4.1939,-4.312,-4.4194,-4.4899,-4.5271,-4.6093,-4.7004,-4.7795,-4.9001,-4.9877,-5.0385,-5.0694,-5.1065,-5.1914,-5.206,-5.2542,-5.3229,-5.3158,-5.3225,-5.3426,-5.386,-5.4003,-5.375,-5.2883,-5.2247,-5.1838,-5.1025,-4.9973,-4.8621,-4.7775,-4.6955,-4.6093,-4.487,-4.4252,-4.3806,-4.2773,-4.1788,-4.0927,-4.0351,-3.934,-3.8157,-3.7356,-3.658,-3.5558,-3.4282,-3.3034,-3.1976,-3.2023,-3.0309,-2.8369,-2.7447,-2.6417,-2.5264,-2.3883,-2.2681,-2.1648,-2.0908,-2.0253,-1.971,-1.9463,-1.9093,-1.8792,-1.876,-1.7677,0.0,0.0,-1.6081,-1.5541,-1.5305,-1.5465,-1.5489,-1.5303,-1.4827,-1.4205,-1.3471,-1.2727,-1.1959,-1.1163,-1.0447,-0.9582,-0.8462,-1.0201,-1.0202,-0.8234,-0.688,-0.5588,-0.4284,-0.3064,-0.1662,-0.0081,0.1625,0.306,0.4112,0.5121,0.5796,0.6064,0.6426,0.6921,0.7628,0.8952,1.0692,1.2814,1.4808,1.7053,1.9336,-3.1795,-3.202,-3.2447,-3.4134,-3.4346,-3.5084,-3.7059,-3.7141,-3.7622,-3.9485,-4.0217,-4.1014,-4.2335,-4.3231,-4.3654,-4.3654,-4.4464,-4.507,-4.5053,-4.6658,-4.8047,-4.9106,-4.89,-4.8846,-4.9272,-4.8871,-4.8898,-4.9147,-4.9121,-4.8831,-4.8603,-4.9404,-4.9646,-4.9331,-4.8808,-4.8627,-4.8496,-4.7334,-4.6246,-4.5382,-4.4926,-4.4044,-4.285,-4.2069,-4.1505,-4.1183,-3.9639,-3.8903,-3.8608,-3.7964,-3.7059,-3.6042,-3.546,-3.4724,-3.3809,-3.2715,-3.1181,-2.9917,-2.9756,-2.8483,-2.7068,-2.6442,-2.52,-2.379,-2.2673,-2.1188,-1.9955,-1.9352,-1.8412,-1.7739,-1.7701,-1.7327,-1.6989,-1.6793,0.0,0.0,0.0,-1.3986,-1.3417,-1.2802,-1.2722,-1.2419,-1.1689,-1.1285,-1.0622,-0.9752,-0.9168,-0.8443,-0.754,-0.6749,-0.5625,-0.4059,-0.5377,-0.5536,-0.4096,-0.2835,-0.1341,0.0406,0.1372,0.277,0.4587,0.5753,0.6901,0.7869,0.8737,0.9049,0.9086,0.9611,1.0103,1.0548,1.1819,1.3172,1.463,1.6534,1.8141,1.9641,-2.8576,-3.0511,-3.1807,-3.1996,-3.2008,-3.286,-3.5151,-3.5951,-3.6984,-3.847,-3.8693,-3.933,-4.06,-4.1423,-4.2038,-4.2006,-4.2006,-4.2415,-4.2807,-4.3011,-4.4126,-4.6391,-4.6389,-4.6261,-4.6351,-4.5924,-4.5814,-4.59,-4.5511,-4.5261,-4.534,-4.4941,-4.4707,-4.4798,-4.4379,-4.39,-4.3459,-4.3447,-4.2672,-4.1345,-4.1055,-4.0318,-3.9471,-3.87,-3.8385,-3.8269,-3.7349,-3.6544,-3.583,-3.58,-3.4967,-3.3804,-3.3785,-3.3215,-3.2422,-3.1212,-2.9322,-2.7662,-2.8385,-2.7445,-2.594,-2.4453,-2.3311,-2.2102,-2.0404,-1.9213,-1.8311,-1.7687,-1.6633,-1.5885,-1.6015,-1.5191,-1.4633,-1.5172,0.0,0.0,-1.2898,-1.1846,-1.0958,-1.0556,-0.9985,-0.9377,-0.8595,-0.7829,-0.7023,-0.6257,-0.5544,-0.4716,-0.3925,-0.3137,-0.1728,0.0493,-0.1235,-0.1431,0.0308,0.1107,0.2534,0.4596,0.509,0.6261,0.7995,0.8774,0.9514,1.0321,1.1128,1.1653,1.2097,1.2569,1.33,1.4111,1.4314,1.5407,1.6862,1.713,1.8455,2.0275,-2.6867,-2.835,-2.9653,-2.9641,-3.05,-3.1569,-3.3485,-3.4528,-3.5538,-3.6601,-3.7237,-3.7434,-3.7631,-3.8869,-3.9537,-3.933,-3.9537,-3.995,-4.0569,-4.0353,-4.1448,-4.376,-4.3434,-4.3208,-4.3169,-4.2171,-4.174,-4.2102,-4.1444,-4.1054,-4.0753,-4.0833,-4.0808,-4.0475,-4.0174,-3.9759,-3.9648,-3.9102,-3.87,-3.8177,-3.7878,-3.7312,-3.6835,-3.6307,-3.5748,-3.5208,-3.4731,-3.4179,-3.3765,-3.4088,-3.3302,-3.2338,-3.2593,-3.1824,-3.0531,-2.9267,-2.7794,-2.6485,-2.5756,-2.5049,-2.4333,-2.3137,-2.1653,-2.0179,-1.87,-1.729,-1.6122,-1.5458,-1.4558,-1.3831,-1.3553,-1.3188,-1.2829,-1.2647,0.0,-1.1156,-1.0603,-0.9798,-0.8928,-0.807,-0.7182,-0.6195,-0.5176,-0.4633,-0.3856,-0.2938,-0.2569,-0.2051,-0.1058,0.0413,0.2181,0.399,0.4207,0.4133,0.3798,0.5361,0.693,0.852,0.9762,1.094,1.2144,1.2952,1.3608,1.4045,1.4764,1.5233,1.5524,1.6327,1.6793,1.7046,1.7358,1.7825,1.8323,1.8504,1.9103,1.989,-2.568,-2.667,-2.7496,-2.7929,-2.8996,-3.0094,-3.1879,-3.2895,-3.374,-3.4617,-3.495,-3.4924,-3.4691,-3.591,-3.6746,-3.6621,-3.704,-3.7458,-3.7889,-3.7486,-3.8305,-4.0976,-4.0384,-4.0011,-4.0149,-3.8732,-3.8116,-3.8333,-3.7664,-3.695,-3.6564,-3.6931,-3.6992,-3.6687,-3.6313,-3.6173,-3.6225,-3.5444,-3.5095,-3.5009,-3.4701,-3.431,-3.371,-3.3468,-3.3162,-3.2791,-3.2374,-3.2241,-3.2339,-3.2313,-3.1789,-3.1321,-3.1081,-2.9986,-2.8541,-2.7425,-2.6327,-2.5068,-2.3399,-2.2671,-2.2052,-2.1392,-1.9974,-1.8459,-1.7129,-1.5638,-1.4385,-1.3686,-1.2916,-1.2138,-1.1779,-1.1531,-1.1169,-1.0641,-1.014,-0.9444,-0.8374,-0.7695,-0.6765,-0.5531,-0.4418,-0.3349,-0.2253,-0.176,-0.1094,-0.0268,-0.0175,0.0345,0.154,0.3356,0.5119,0.6673,0.8368,0.8931,0.8098,0.928,1.0631,1.2076,1.3411,1.4581,1.5492,1.6404,1.6949,1.7208,1.793,1.839,1.8549,1.9217,1.9651,1.9788,1.9601,1.9563,1.948,1.9209,1.9282,1.9605,-2.4983,-2.5033,-2.5535,-2.727,-2.727,-2.8003,-2.9968,-3.0446,-3.1186,-3.2541,-3.2044,-3.1762,-3.2157,-3.294,-3.3652,-3.4134,-3.4306,-3.4518,-3.5151,-3.3993,-3.4952,-3.8447,-3.7669,-3.7135,-3.7135,-3.6143,-3.5456,-3.5135,-3.4215,-3.3694,-3.3395,-3.319,-3.3176,-3.3365,-3.3239,-3.312,-3.3059,-3.2418,-3.1813,-3.1482,-3.1482,-3.0957,-3.0349,-3.0349,-3.0632,-3.09,-3.0217,-3.0747,-3.1662,-3.0598,-3.0578,-3.0576,-2.929,-2.7757,-2.6526,-2.5825,-2.472,-2.3221,-2.1631,-2.0318,-1.9292,-1.899,-1.8184,-1.7138,-1.5632,-1.4473,-1.3497,-1.2717,-1.1724,-1.1017,-1.1017,-1.0241,-0.9617,-0.9541,-0.8683,-0.7555,-0.6367,-0.5499,-0.4497,-0.3134,-0.1892,-0.09,-0.0098,0.0785,0.1363,0.1624,0.1779,0.2474,0.3853,0.5471,0.708,0.8615,1.0879,1.2643,1.3652,1.2827,1.3434,1.5417,1.5697,1.6595,1.7937,1.8627,1.9033,1.9401,2.0217,2.0765,2.107,2.1256,2.169,2.2187,2.0839,2.043,2.0391,1.8864,1.8901,1.9488,-2.3896,-2.4265,-2.4623,-2.5564,-2.5661,-2.6375,-2.8035,-2.8374,-2.8871,-3.001,-3.0455,-3.0488,-3.0119,-3.078,-3.121,-3.0726,-3.0691,-3.0539,-3.0376,-3.067,-3.0949,-3.1049,-3.2038,-3.2692,-3.2273,-3.1583,-3.0899,-3.0239,-3.0039,-2.984,-2.9488,-2.9761,-3.0119,-3.0396,-3.0397,-3.0258,-3.0191,-3.0367,-3.0184,-2.9987,-3.0311,-3.0382,-3.0312,-3.0085,-2.9969,-2.9943,-2.9485,-2.9597,-2.9713,-2.9529,-2.9336,-2.9123,-2.7755,-2.6771,-2.6012,-2.4597,-2.3393,-2.2126,-2.0341,-1.8938,-1.7923,-1.772,-1.6739,-1.5572,-1.4443,-1.3336,-1.2409,-1.1853,-1.1117,-1.0311,-0.9625,-0.892,-0.8321,-0.7657,-0.6757,-0.5794,-0.4834,-0.3882,-0.285,-0.163,-0.0506,0.0503,0.13,0.1583,0.2057,0.2628,0.315,0.4047,0.5139,0.6833,0.8761,1.0753,1.2935,1.4961,1.6885,1.6465,1.6603,1.7221,1.8696,1.9629,2.011,2.066,2.123,2.2017,2.2593,2.3279,2.3949,2.4002,2.3957,2.3801,2.2877,2.2229,2.1607,2.069,2.0267,2.0098,-2.2684,-2.2966,-2.3277,-2.4038,-2.4101,-2.4613,-2.6087,-2.6202,-2.6689,-2.7632,-2.8108,-2.8077,-2.7721,-2.8395,-2.8576,-2.8145,-2.8554,-2.8348,-2.745,-2.8115,-2.7829,-2.637,-2.7392,-2.8229,-2.868,-2.8338,-2.7703,-2.7164,-2.6989,-2.6809,-2.6628,-2.6991,-2.7365,-2.7727,-2.8168,-2.8462,-2.8302,-2.8723,-2.8925,-2.8937,-2.9095,-2.9549,-2.9872,-2.9335,-2.9248,-2.927,-2.8786,-2.8706,-2.8877,-2.852,-2.8148,-2.7545,-2.6519,-2.5746,-2.4905,-2.344,-2.2168,-2.0965,-1.9236,-1.7907,-1.6831,-1.6244,-1.5343,-1.4468,-1.3655,-1.2658,-1.1837,-1.1431,-1.068,-0.975,-0.8882,-0.8076,-0.7271,-0.632,-0.5392,-0.4393,-0.33,-0.2318,-0.1361,-0.0105,0.083,0.165,0.2373,0.2453,0.2826,0.3375,0.4118,0.512,0.6178,0.8103,1.0059,1.2162,1.441,1.6525,1.8384,1.9193,1.9365,1.9174,2.0864,2.171,2.1789,2.2659,2.3409,2.4094,2.4546,2.5157,2.5944,2.5674,2.5493,2.5093,2.4186,2.3248,2.2448,2.1579,2.0987,2.0568,-2.1695,-2.1414,-2.1612,-2.2699,-2.2489,-2.2785,-2.4045,-2.4311,-2.4466,-2.5517,-2.5395,-2.5273,-2.5273,-2.575,-2.5967,-2.6186,-2.7228,-2.7267,-2.6023,-2.6365,-2.5858,-2.4031,-2.377,-2.4227,-2.5587,-2.5836,-2.5727,-2.5152,-2.4682,-2.4463,-2.4485,-2.5023,-2.5377,-2.5366,-2.657,-2.701,-2.7177,-2.7473,-2.79,-2.8263,-2.8263,-2.8627,-2.8977,-2.8413,-2.8725,-2.8933,-2.7748,-2.7929,-2.8783,-2.7616,-2.678,-2.6008,-2.5328,-2.4498,-2.3403,-2.2245,-2.0992,-1.9678,-1.8143,-1.6954,-1.599,-1.4821,-1.411,-1.362,-1.3232,-1.2397,-1.1606,-1.1155,-1.02,-0.9274,-0.8546,-0.7519,-0.6408,-0.5398,-0.4319,-0.3161,-0.1716,-0.0962,-0.0107,0.1174,0.192,0.2451,0.2986,0.3305,0.368,0.4065,0.4956,0.5971,0.7102,0.9307,1.1306,1.3097,1.5608,1.7563,1.8843,2.1062,2.1741,2.1019,2.242,2.3057,2.3051,2.4532,2.5462,2.5756,2.6208,2.6679,2.7079,2.661,2.6409,2.6166,2.4795,2.3949,2.3223,2.1858,2.1312,2.1062,-2.0606,-2.0624,-2.1112,-2.1636,-2.1726,-2.2226,-2.3207,-2.3222,-2.3449,-2.3976,-2.4182,-2.4156,-2.4156,-2.3976,-2.4018,-2.3801,-2.4731,-2.5253,-2.4952,-2.4635,-2.3965,-2.2789,-2.2437,-2.1758,-2.1194,-2.2189,-2.2515,-2.1944,-2.227,-2.2337,-2.2133,-2.2892,-2.373,-2.4452,-2.4763,-2.5468,-2.6568,-2.6882,-2.7521,-2.8264,-2.8614,-2.8796,-2.8964,-2.8552,-2.8143,-2.7805,-2.679,-2.6414,-2.6431,-2.5388,-2.4736,-2.4201,-2.3117,-2.2395,-2.1874,-2.0759,-1.9664,-1.8545,-1.7598,-1.6581,-1.5635,-1.4615,-1.3927,-1.3261,-1.311,-1.2333,-1.1572,-1.0966,-0.9942,-0.8799,-0.7479,-0.639,-0.5193,-0.3902,-0.2847,-0.1806,-0.0556,0.0329,0.1087,0.1957,0.2473,0.2877,0.2986,0.3834,0.4665,0.5256,0.6505,0.793,0.9493,1.1447,1.329,1.5171,1.7526,1.9338,2.0639,2.2275,2.261,2.1967,2.3389,2.4126,2.4349,2.5199,2.6082,2.7056,2.7238,2.7635,2.805,2.7592,2.7168,2.676,2.5665,2.4877,2.4323,2.3496,2.3126,2.3066,-2.0016,-2.0095,-2.0408,-2.1446,-2.143,-2.1636,-2.2405,-2.2335,-2.2461,-2.2684,-2.2684,-2.2684,-2.2684,-2.2532,-2.2583,-2.3154,-2.391,-2.4251,-2.4158,-2.4074,-2.3428,-2.1863,-2.1699,-2.1199,-1.9792,-2.0629,-2.0667,-2.0377,-2.1026,-2.1264,-2.1085,-2.1917,-2.2788,-2.3529,-2.4084,-2.4888,-2.5925,-2.648,-2.6931,-2.7606,-2.7779,-2.8076,-2.8136,-2.7622,-2.7231,-2.6516,-2.558,-2.4767,-2.4303,-2.3526,-2.3019,-2.2633,-2.1132,-2.0612,-2.019,-1.8755,-1.7795,-1.6986,-1.6136,-1.5376,-1.4444,-1.3726,-1.3054,-1.2636,-1.2699,-1.217,-1.1292,-1.0517,-0.9261,-0.8008,-0.6662,-0.5346,-0.4061,-0.2799,-0.1732,-0.0571,0.0674,0.1569,0.2351,0.3022,0.358,0.4015,0.4419,0.5251,0.6177,0.6877,0.8255,0.9797,1.1371,1.3314,1.504,1.686,1.867,2.0348,2.1845,2.2924,2.3409,2.359,2.4678,2.5232,2.5358,2.6115,2.6936,2.7914,2.7861,2.8034,2.8373,2.8021,2.745,2.6889,2.6587,2.5946,2.5159,2.5195,2.5003,2.4536,-1.9913,-1.9804,-1.9928,-2.1486,-2.1358,-2.1255,-2.1709,-2.1932,-2.1932,-2.1932,-2.1915,-2.1891,-2.166,-2.1718,-2.205,-2.2909,-2.3574,-2.3711,-2.3727,-2.3954,-2.3326,-2.1441,-2.1527,-2.1046,-1.9841,-1.9916,-1.9832,-1.9801,-2.0543,-2.0937,-2.0819,-2.1725,-2.2646,-2.3021,-2.3956,-2.4833,-2.5617,-2.6005,-2.6593,-2.6993,-2.6993,-2.7005,-2.7116,-2.6364,-2.5834,-2.5126,-2.3985,-2.2935,-2.2013,-2.1446,-2.1199,-2.0825,-1.9149,-1.855,-1.8207,-1.655,-1.5624,-1.4985,-1.4214,-1.3596,-1.2913,-1.2499,-1.1888,-1.1512,-1.1765,-1.1349,-1.06,-0.9697,-0.8298,-0.692,-0.5718,-0.4157,-0.2644,-0.1657,-0.0351,0.0922,0.204,0.2858,0.3574,0.4495,0.5013,0.561,0.6336,0.7145,0.8042,0.8804,1.0201,1.1745,1.3257,1.5124,1.6866,1.8398,1.9775,2.129,2.2842,2.346,2.4235,2.5237,2.5896,2.6147,2.6121,2.6961,2.775,2.8373,2.8239,2.8212,2.8395,2.8177,2.7725,2.7119,2.757,2.7013,2.5988,2.6921,2.6798,2.6168,-1.9691,-2.0355,-2.0963,-2.1043,-2.1462,-2.1896,-2.2553,-2.2561,-2.2561,-2.2561,-2.265,-2.2335,-2.166,-2.1931,-2.2489,-2.3128,-2.3137,-2.3266,-2.3727,-2.3099,-2.2477,-2.1449,-2.1439,-2.0828,-2.0036,-1.9825,-1.995,-1.9995,-2.0614,-2.1083,-2.1229,-2.2202,-2.2864,-2.3243,-2.381,-2.4693,-2.5872,-2.5872,-2.6377,-2.6953,-2.6568,-2.6107,-2.5705,-2.4753,-2.3963,-2.3167,-2.203,-2.085,-1.9677,-1.8541,-1.8201,-1.776,-1.6642,-1.5869,-1.5363,-1.4349,-1.3528,-1.2789,-1.205,-1.1596,-1.118,-1.075,-1.0412,-0.9943,-0.9385,-0.9552,-0.9456,-0.8397,-0.7052,-0.5642,-0.4229,-0.2505,-0.0856,0.0361,0.1677,0.2854,0.3866,0.4794,0.5502,0.5856,0.6793,0.7608,0.8171,0.93,1.0425,1.1208,1.2796,1.4239,1.5777,1.7321,1.8836,2.0267,2.149,2.2722,2.3931,2.4402,2.5063,2.5703,2.6448,2.6804,2.6758,2.7516,2.8143,2.8395,2.8588,2.8609,2.8438,2.854,2.8305,2.7785,2.8041,2.7843,2.7563,2.8483,2.8739,2.8586,-1.9814,-2.049,-2.1164,-2.1772,-2.1912,-2.2301,-2.2988,-2.2878,-2.2819,-2.3259,-2.2958,-2.2701,-2.2907,-2.2532,-2.26,-2.2716,-2.269,-2.2656,-2.3013,-2.2829,-2.2208,-2.1176,-2.1196,-2.097,-2.0076,-2.0184,-2.0368,-2.0198,-2.0702,-2.095,-2.0932,-2.1798,-2.2528,-2.3103,-2.3294,-2.3981,-2.4777,-2.4777,-2.483,-2.4924,-2.473,-2.4063,-2.3473,-2.2704,-2.174,-2.0781,-1.9195,-1.813,-1.7188,-1.6162,-1.5472,-1.509,-1.3568,-1.3029,-1.2543,-1.1199,-1.0587,-1.0019,-0.9192,-0.897,-0.8783,-0.8367,-0.7779,-0.7195,-0.6647,-0.634,-0.6134,-0.6394,-0.5089,-0.3468,-0.2422,-0.05,0.1225,0.193,0.3247,0.4542,0.553,0.6386,0.7298,0.8274,0.9245,1.0201,1.0808,1.1812,1.2855,1.3999,1.5037,1.6322,1.7994,1.9085,2.0303,2.1618,2.2585,2.3662,2.4632,2.5058,2.5587,2.6132,2.6845,2.7235,2.7418,2.7931,2.8402,2.8783,2.8784,2.8675,2.8438,2.8604,2.8507,2.8181,2.861,2.8942,2.9311,2.9394,2.9671,2.9778]},{"header":{"parameterUnit":"m.s-1","parameterCategory":1,"la1":30.6,"la2":28.766,"lo1":-90.7593,"lo2":-88.6598,"dy":0.0162,"dx":0.0183,"nx":116,"ny":114,"refTime":"2023-05-07T00:00:00:Z","depth":0,"parameterNumber":3,"parameterNumberName":"V-component_of_WINDS"},"data":[0.0,0.0,0.0,0.0,0.0,0.0,0.0,0.0,0.0,0.0,0.0,0.0,0.0,0.0,0.0,0.0,0.0,0.0,0.0,0.0,0.0,0.0,0.0,0.0,0.0,0.0,0.0,0.0,0.0,0.0,0.0,0.0,0.0,0.0,0.0,0.0,0.0,0.0,0.0,0.0,0.0,0.0,0.0,0.0,0.0,0.0,0.0,0.0,0.0,0.0,0.0,0.0,0.0,0.0,0.0,0.0,0.0,0.0,0.0,0.0,0.0,0.0,0.0,0.0,0.0,0.0,0.0,0.0,0.0,0.0,0.0,0.0,0.0,0.0,0.0,0.0,0.0,0.0,0.0,0.0,0.0,0.0,0.0,0.0,0.0,0.0,0.0,0.0,0.0,0.0,0.0,0.0,0.0,0.0,0.0,0.0,0.0,0.0,0.0,0.0,0.0,0.0,0.0,0.0,0.0,0.0,0.0,0.0,0.0,0.0,0.0,0.0,0.0,0.0,0.0,0.0,0.0,0.0,0.0,0.0,0.0,0.0,0.0,0.0,0.0,0.0,0.0,0.0,0.0,0.0,0.0,0.0,0.0,0.0,0.0,0.0,0.0,0.0,0.0,0.0,0.0,0.0,0.0,0.0,0.0,0.0,0.0,0.0,0.0,0.0,0.0,0.0,0.0,0.0,0.0,0.0,0.0,0.0,0.0,0.0,0.0,0.0,0.0,0.0,0.0,0.0,0.0,0.0,0.0,0.0,0.0,0.0,0.0,0.0,0.0,0.0,0.0,0.0,0.0,0.0,0.0,0.0,0.0,0.0,0.0,0.0,0.0,0.0,0.0,0.0,0.0,0.0,0.0,0.0,0.0,0.0,0.0,0.0,0.0,0.0,0.0,0.0,0.0,0.0,0.0,0.0,0.0,0.0,0.0,0.0,0.0,0.0,0.0,0.0,0.0,0.0,0.0,0.0,0.0,0.0,0.0,0.0,0.0,0.0,0.0,0.0,0.0,0.0,0.0,0.0,0.0,0.0,0.0,0.0,0.0,0.0,0.0,0.0,0.0,0.0,0.0,0.0,0.0,0.0,0.0,0.0,0.0,0.0,0.0,0.0,0.0,0.0,0.0,0.0,0.0,0.0,0.0,0.0,0.0,0.0,0.0,0.0,0.0,0.0,0.0,0.0,0.0,0.0,0.0,0.0,0.0,0.0,0.0,0.0,0.0,0.0,0.0,0.0,0.0,0.0,0.0,0.0,0.0,0.0,0.0,0.0,0.0,0.0,0.0,0.0,0.0,0.0,0.0,0.0,0.0,0.0,0.0,0.0,0.0,0.0,0.0,0.0,0.0,0.0,0.0,0.0,0.0,0.0,0.0,0.0,0.0,0.0,0.0,0.0,0.0,0.0,0.0,0.0,0.0,0.0,0.0,0.0,0.0,0.0,0.0,0.0,0.0,0.0,0.0,0.0,0.0,0.0,0.0,0.0,0.0,0.0,0.0,0.0,0.0,0.0,0.0,0.0,0.0,0.0,0.0,0.0,0.0,0.0,0.0,0.0,0.0,0.0,0.0,0.0,0.0,0.0,0.0,0.0,0.0,0.0,0.0,0.0,0.0,0.0,0.0,0.0,0.0,0.0,0.0,0.0,0.0,0.0,0.0,0.0,0.0,0.0,0.0,0.0,0.0,0.0,0.0,0.0,0.0,0.0,0.0,0.0,0.0,0.0,0.0,0.0,0.0,0.0,0.0,0.0,0.0,0.0,0.0,0.0,0.0,0.0,0.0,0.0,0.0,0.0,0.0,0.0,0.0,0.0,0.0,0.0,0.0,0.0,0.0,0.0,0.0,0.0,0.0,0.0,0.0,0.0,0.0,0.0,0.0,0.0,0.0,0.0,0.0,0.0,0.0,0.0,0.0,0.0,0.0,0.0,0.0,0.0,0.0,0.0,0.0,0.0,0.0,0.0,0.0,0.0,0.0,0.0,0.0,0.0,0.0,0.0,0.0,0.0,0.0,0.0,0.0,0.0,0.0,0.0,0.0,0.0,0.0,0.0,0.0,0.0,0.0,0.0,0.0,0.0,0.0,0.0,0.0,0.0,0.0,0.0,0.0,0.0,0.0,0.0,0.0,0.0,0.0,0.0,0.0,0.0,0.0,0.0,0.0,0.0,0.0,0.0,0.0,0.0,0.0,0.0,0.0,0.0,0.0,0.0,0.0,0.0,0.0,0.0,0.0,0.0,0.0,0.0,0.0,0.0,0.0,0.0,0.0,0.0,0.0,0.0,0.0,0.0,0.0,0.0,0.0,0.0,0.0,0.0,0.0,0.0,0.0,0.0,0.0,0.0,0.0,0.0,0.0,0.0,0.0,0.0,0.0,0.0,0.0,0.0,0.0,0.0,0.0,0.0,0.0,0.0,0.0,0.0,0.0,0.0,0.0,0.0,0.0,0.0,0.0,0.0,0.0,0.0,0.0,0.0,0.0,0.0,0.0,0.0,0.0,0.0,0.0,0.0,0.0,0.0,0.0,0.0,0.0,0.0,0.0,0.0,0.0,0.0,0.0,0.0,0.0,0.0,0.0,0.0,0.0,0.0,0.0,0.0,0.0,0.0,0.0,0.0,0.0,0.0,0.0,0.0,0.0,0.0,0.0,0.0,0.0,0.0,0.0,0.0,0.0,0.0,0.0,0.0,0.0,0.0,0.0,0.0,0.0,0.0,0.0,0.0,0.0,0.0,0.0,0.0,0.0,0.0,0.0,0.0,0.0,0.0,0.0,0.0,0.0,0.0,0.0,0.0,0.0,0.0,0.0,0.0,0.0,0.0,0.0,0.0,0.0,0.0,0.0,0.0,0.0,0.0,0.0,0.0,0.0,0.0,0.0,0.0,0.0,0.0,0.0,0.0,0.0,0.0,0.0,0.0,0.0,0.0,0.0,0.0,0.0,0.0,0.0,0.0,0.0,0.0,0.0,0.0,0.0,0.0,0.0,0.0,0.0,0.0,0.0,0.0,0.0,0.0,0.0,0.0,0.0,0.0,0.0,0.0,0.0,0.0,0.0,0.0,0.0,0.0,0.0,0.0,0.0,0.0,0.0,0.0,0.0,0.0,0.0,0.0,0.0,0.0,0.0,0.0,0.0,0.0,0.0,0.0,0.0,0.0,0.0,0.0,0.0,0.0,0.0,0.0,0.0,0.0,0.0,0.0,0.0,0.0,0.0,0.0,0.0,0.0,0.0,0.0,0.0,0.0,0.0,0.0,0.0,0.0,0.0,0.0,0.0,0.0,0.0,0.0,0.0,0.0,0.0,0.0,0.0,0.0,0.0,0.0,0.0,0.0,0.0,0.0,0.0,0.0,0.0,0.0,0.0,0.0,0.0,0.0,0.0,0.0,0.0,0.0,0.0,0.0,0.0,0.0,0.0,0.0,0.0,0.0,0.0,0.0,0.0,0.0,0.0,0.0,0.0,0.0,0.0,0.0,0.0,0.0,0.0,0.0,0.0,0.0,0.0,0.0,0.0,0.0,0.0,0.0,0.0,0.0,0.0,0.0,0.0,0.0,0.0,0.0,0.0,0.0,0.0,0.0,0.0,0.0,0.0,0.0,0.0,0.0,0.0,0.0,0.0,0.0,0.0,0.0,0.0,0.0,0.0,0.0,0.0,0.0,0.0,0.0,0.0,0.0,0.0,0.0,0.0,0.0,0.0,0.0,0.0,0.0,0.0,0.0,0.0,0.0,0.0,0.0,0.0,0.0,0.0,0.0,0.0,0.0,0.0,0.0,0.0,0.0,0.0,0.0,0.0,0.0,0.0,0.0,0.0,0.0,0.0,0.0,0.0,0.0,0.0,0.0,0.0,0.0,0.0,0.0,0.0,0.0,0.0,0.0,0.0,0.0,0.0,0.0,0.0,0.0,0.0,0.0,0.0,0.0,0.0,0.0,0.0,0.0,0.0,0.0,0.0,0.0,0.0,0.0,0.0,0.0,0.0,0.0,0.0,0.0,0.0,0.0,0.0,0.0,0.0,0.0,0.0,0.0,0.0,0.0,0.0,0.0,0.0,0.0,0.0,0.0,0.0,0.0,0.0,0.0,0.0,0.0,0.0,0.0,0.0,0.0,0.0,0.0,0.0,0.0,0.0,0.0,0.0,0.0,0.0,0.0,0.0,0.0,0.0,0.0,0.0,0.0,0.0,0.0,0.0,0.0,0.0,0.0,0.0,0.0,0.0,0.0,0.0,0.0,0.0,0.0,0.0,0.0,0.0,0.0,0.0,0.0,0.0,0.0,0.0,0.0,0.0,0.0,0.0,0.0,0.0,0.0,0.0,0.0,0.0,0.0,0.0,0.0,0.0,0.0,0.0,0.0,0.0,0.0,0.0,0.0,0.0,0.0,0.0,0.0,0.0,0.0,0.0,0.0,0.0,0.0,0.0,0.0,0.0,0.0,0.0,0.0,0.0,0.0,0.0,0.0,0.0,0.0,0.0,0.0,0.0,0.0,0.0,0.0,0.0,0.0,0.0,0.0,0.0,0.0,0.0,0.0,0.0,0.0,0.0,0.0,0.0,0.0,0.0,0.0,0.0,0.0,0.0,0.0,0.0,0.0,0.0,0.0,0.0,0.0,0.0,0.0,0.0,0.0,0.0,0.0,0.0,0.0,0.0,0.0,0.0,0.0,0.0,0.0,0.0,0.0,0.0,0.0,0.0,0.0,0.0,0.0,0.0,0.0,0.0,0.0,0.0,0.0,0.0,0.0,0.0,0.0,0.0,0.0,0.0,0.0,0.0,0.0,0.0,0.0,0.0,0.0,0.0,0.0,0.0,0.0,0.0,0.0,0.0,0.0,0.0,0.0,0.0,0.0,0.0,0.0,0.0,0.0,0.0,0.0,0.0,0.0,0.0,0.0,0.0,0.0,0.0,0.0,0.0,0.0,0.0,0.0,0.0,0.0,0.0,0.0,0.0,0.0,0.0,0.0,0.0,0.0,0.0,0.0,0.0,0.0,0.0,0.0,0.0,0.0,0.0,0.0,0.0,0.0,0.0,0.0,0.0,0.0,0.0,0.0,0.0,0.0,0.0,0.0,0.0,0.0,0.0,0.0,0.0,0.0,0.0,0.0,0.0,0.0,0.0,0.0,0.0,0.0,0.0,0.0,0.0,0.0,0.0,0.0,0.0,0.0,0.0,0.0,0.0,0.0,0.0,0.0,0.0,0.0,0.0,0.0,0.0,0.0,0.0,0.0,0.0,0.0,0.0,0.0,0.0,0.0,0.0,0.0,0.0,0.0,0.0,0.0,0.0,0.0,0.0,0.0,0.0,0.0,0.0,0.0,0.0,0.0,0.0,0.0,0.0,0.0,0.0,0.0,0.0,0.0,0.0,0.0,0.0,0.0,0.0,0.0,0.0,0.0,0.0,0.0,0.0,0.0,0.0,0.0,0.0,0.0,0.0,0.0,0.0,0.0,0.0,0.0,0.0,0.0,0.0,0.0,0.0,0.0,0.0,0.0,0.0,0.0,0.0,0.0,0.0,0.0,0.0,0.0,0.0,0.0,0.0,0.0,0.0,0.0,0.0,0.0,0.0,0.0,0.0,0.0,0.0,0.0,0.0,0.0,0.0,0.0,0.0,0.0,0.0,0.0,0.0,0.0,0.0,0.0,0.0,0.0,0.0,0.0,0.0,0.0,0.0,0.0,0.0,0.0,0.0,0.0,0.0,0.0,0.0,0.0,0.0,0.0,0.0,0.0,0.0,0.0,0.0,0.0,0.0,0.0,0.0,0.0,0.0,0.0,0.0,0.0,0.0,0.0,0.0,0.0,0.0,0.0,0.0,0.0,0.0,0.0,0.0,0.0,0.0,0.0,0.0,0.0,0.0,0.0,0.0,0.0,0.0,0.0,0.0,0.0,0.0,0.0,0.0,0.0,0.0,0.0,0.0,0.0,0.0,0.0,0.0,0.0,0.0,0.0,0.0,0.0,0.0,0.0,0.0,0.0,0.0,0.0,0.0,0.0,0.0,0.0,0.0,0.0,0.0,0.0,0.0,0.0,0.0,0.0,0.0,0.0,0.0,0.0,0.0,0.0,0.0,0.0,0.0,0.0,0.0,0.0,0.0,0.0,2.4082,0.0,0.0,0.0,0.0,0.0,0.0,0.0,0.0,0.0,0.0,0.0,0.0,0.0,0.0,0.0,0.0,0.0,0.0,0.0,0.0,0.0,0.0,0.0,0.0,0.0,0.0,0.0,0.0,0.0,0.0,0.0,0.0,0.0,0.0,0.0,0.0,0.0,0.0,1.9475,1.8877,1.7717,1.6008,1.5619,1.4397,1.2481,0.0,0.0,0.0,0.0,0.0,0.0,0.0,0.0,0.0,0.0,0.0,0.0,0.0,0.0,0.0,0.0,0.0,0.0,0.0,0.0,0.0,0.0,0.0,0.0,0.0,0.0,0.0,0.0,0.0,0.0,0.0,0.0,0.0,0.0,0.0,0.0,0.0,0.0,0.0,0.0,0.0,0.0,0.0,0.0,0.0,0.0,0.0,0.0,0.0,0.0,0.0,0.0,0.0,0.0,0.0,0.0,0.0,0.0,0.0,0.0,0.0,0.0,0.0,0.0,0.0,0.0,0.0,0.0,0.0,0.0,0.0,2.4371,0.0,0.0,0.0,0.0,0.0,0.0,0.0,0.0,0.0,0.0,0.0,0.0,0.0,0.0,0.0,0.0,0.0,0.0,0.0,0.0,0.0,0.0,0.0,0.0,0.0,0.0,0.0,0.0,0.0,0.0,0.0,0.0,0.0,0.0,0.0,2.268,2.1669,2.0145,1.9153,1.7805,1.6099,1.6038,1.525,1.384,1.3237,0.0,0.0,0.0,0.0,0.0,0.0,0.0,0.0,0.0,0.0,0.0,0.0,0.0,0.0,0.0,0.0,0.0,0.0,0.0,0.0,0.0,0.0,0.0,0.0,0.0,0.0,0.0,0.0,0.0,0.0,0.0,0.0,0.0,0.0,0.0,0.0,0.0,0.0,0.0,0.0,0.0,0.0,0.0,0.0,0.0,0.0,0.0,0.0,0.0,0.0,0.0,0.0,0.0,0.0,0.0,0.0,0.0,0.0,0.0,0.0,0.0,0.0,0.0,0.0,0.0853,0.6087,1.1334,1.567,1.9378,2.2587,2.3754,2.3267,0.0,0.0,0.0,0.0,0.0,0.0,0.0,0.0,0.0,0.0,0.0,0.0,0.0,0.0,0.0,0.0,0.0,0.0,0.0,0.0,0.0,0.0,0.0,1.978,2.031,1.9848,2.018,0.0,0.0,0.0,0.0,0.0,0.0,2.2359,2.2508,2.1801,2.0273,1.9363,1.8402,1.7354,1.7231,1.6378,1.4927,1.3839,1.2822,1.1985,0.0,0.0,0.0,0.0,0.0,0.0,0.0,0.0,0.0,0.0,0.0,0.0,0.0,0.0,0.0,0.0,0.0,0.0,0.0,0.0,0.0,0.0,0.0,0.0,0.0,0.0,0.0,0.0,0.0,0.0,0.0,0.0,0.0,0.0,0.0,0.0,0.0,0.0,0.0,0.0,0.0,1.607,1.567,0.0,0.0,0.0,0.0,0.0,0.0,0.0,0.0,0.0,0.0,0.0,0.0,0.0,0.0,-0.0169,-0.484,-0.6053,-0.3796,-0.6238,-0.4244,0.1898,0.78,1.249,1.6143,1.9808,0.0,2.2723,2.2713,0.0,0.0,0.0,0.0,0.0,0.0,0.0,0.0,0.0,0.0,0.0,0.0,0.0,0.0,0.0,0.0,0.0,0.0,0.0,0.0,0.0,1.8499,1.8858,1.8439,1.8644,1.9412,2.0767,0.0,0.0,0.0,0.0,2.2651,2.2386,2.2601,2.2355,2.1662,2.0467,1.9477,1.8717,1.8718,1.7712,1.6036,1.5631,1.4552,1.2892,1.2656,0.0,0.0,0.0,0.0,0.0,0.0,0.0,0.0,0.0,0.0,0.0,0.0,0.0,0.0,0.0,0.0,0.0,0.0,0.0,0.0,0.0,0.0,0.0,0.0,0.0,0.0,0.0,0.0,0.0,0.0,0.0,0.0,0.0,0.0,0.0,0.0,0.0,0.0,0.0,1.7681,1.781,1.6788,1.5292,1.3229,0.0,0.0,0.0,0.0,0.0,0.0,0.0,0.0,0.0,-0.3523,-0.258,-0.26,-0.3705,-0.5148,-0.6337,-0.7132,-0.6904,-0.4952,-0.1304,0.3903,0.9047,1.3854,1.6404,1.8885,2.1261,2.2176,2.2222,2.168,0.0,0.0,0.0,0.0,0.0,0.0,0.0,0.0,0.0,0.0,0.0,0.0,0.0,0.0,0.0,0.0,0.0,0.0,1.5621,1.6603,1.7027,1.6368,1.7231,1.83,1.9532,1.971,0.0,0.0,2.1671,2.2047,2.2191,2.2187,2.226,2.2362,2.1278,2.0483,2.0022,2.0026,1.9059,1.7374,1.754,1.6338,1.4138,1.3752,1.3191,1.2584,0.0,0.0,0.0,0.0,0.0,0.0,0.0,0.0,0.0,0.0,0.0,0.0,0.0,0.0,0.0,0.0,0.0,0.0,0.0,0.0,0.0,0.0,0.0,0.0,0.0,0.0,0.0,0.0,0.0,0.0,0.0,0.0,0.0,0.0,0.0,0.0,0.0,1.9516,1.9129,1.8014,1.6669,1.4569,0.0,0.0,0.0,0.0,0.0,0.0,-0.5788,-0.6318,-0.6411,-0.6235,-0.5386,-0.5475,-0.6518,-0.5475,-0.6248,-0.8822,-0.7087,-0.5381,-0.3618,0.0385,0.5193,1.0451,1.2155,1.5216,1.9069,2.0994,2.1839,2.1931,2.1996,2.1921,0.0,2.2221,2.1009,1.9186,0.0,0.0,0.0,0.0,0.0,0.0,0.0,0.0,0.0,0.0,0.0,1.4743,1.3909,1.3488,1.3685,1.4623,1.559,1.6826,1.8475,1.9522,2.0263,2.0685,2.1611,2.1878,2.1459,2.0856,2.0845,2.1482,2.1221,2.112,2.1225,2.0999,2.0279,1.9155,1.9075,1.7891,1.6015,1.5157,1.4605,1.4186,1.331,0.0,0.0,0.0,0.0,0.0,0.0,0.0,0.0,0.0,0.0,0.0,0.0,0.0,0.0,0.0,0.0,0.0,0.0,0.0,0.0,0.0,0.0,0.0,0.0,0.0,0.0,0.0,0.0,0.0,0.0,0.0,0.0,0.0,0.0,0.0,0.0,0.0,0.0,1.9765,1.8179,0.0,0.0,0.0,0.0,0.5067,0.1138,-0.2393,-0.5299,-0.7237,-0.8352,-0.8497,-0.8249,-0.7626,-0.6578,-0.6755,-0.6473,-0.5656,-0.7503,-0.7238,-0.4999,-0.2414,0.0805,0.4592,0.6854,1.0806,1.5839,1.884,2.0459,2.1081,2.1102,2.1267,2.148,2.0515,1.9455,1.8174,0.0,0.0,0.0,0.0,0.0,0.0,0.0,0.0,0.0,1.5499,1.4421,1.2996,1.1272,1.1526,1.1725,1.14,1.3152,1.4656,1.5615,1.73,1.8341,1.8582,2.0011,2.1068,2.1598,2.0792,2.1291,2.3081,2.2315,2.2116,2.2476,2.2461,2.1725,2.0329,2.0194,1.9541,1.8455,1.6757,1.5823,1.5331,1.4308,1.3335,0.0,0.0,0.0,0.0,0.0,0.0,0.0,0.0,0.0,0.0,0.0,0.0,0.0,0.0,0.0,0.0,0.0,0.0,0.0,0.0,0.0,0.0,0.0,0.0,0.0,0.0,0.0,0.0,0.0,0.0,0.0,0.0,0.0,0.0,0.0,0.0,0.0,2.1139,2.0009,0.0,1.3935,1.1514,0.8793,0.5518,0.2017,-0.1531,-0.5168,-0.7146,-0.8674,-0.9634,-0.9575,-0.8894,-0.7504,-0.6215,-0.549,-0.5354,-0.5235,-0.4971,-0.4392,-0.439,-0.0923,0.5141,0.4961,0.6043,0.8072,0.9787,1.33,1.7696,1.7777,1.8224,1.859,1.7651,1.6602,1.526,0.0,0.0,0.0,0.0,0.0,0.0,0.0,0.0,0.0,1.4249,1.278,1.1056,0.9056,0.9531,0.9686,0.8989,1.122,1.2904,1.3329,1.5763,1.7179,1.7092,1.9347,2.0958,2.1675,2.1415,2.2165,2.3976,2.3274,2.3145,2.3671,2.3971,2.3256,2.1838,2.216,2.1645,2.048,1.9221,1.7805,1.6413,1.5164,1.3856,1.2468,0.0,0.0,0.0,0.0,0.0,0.0,0.0,0.0,0.0,0.0,0.0,0.0,0.0,0.0,0.0,0.0,0.0,0.0,0.0,0.0,0.0,0.0,0.0,0.0,0.0,0.0,0.0,0.0,0.0,0.0,0.0,0.0,0.0,0.0,0.0,2.3353,2.2062,2.1087,1.8957,1.5077,1.2589,0.9965,0.6933,0.3173,-0.0857,-0.5129,-0.6973,-0.8585,-0.9806,-1.0234,-0.9662,-0.8082,-0.627,-0.5231,-0.4816,-0.421,-0.3912,-0.3875,-0.4589,-0.2134,0.262,0.1625,0.1108,0.095,0.1299,0.3706,0.7467,1.0917,1.2809,1.3441,1.2066,1.1171,1.0225,0.0,0.0,0.0,0.0,0.0,0.0,0.0,0.0,1.3434,1.3006,1.0856,0.8851,0.7493,0.7408,0.748,0.7549,0.9968,1.1576,1.1828,1.5198,1.6992,1.6605,1.9768,2.1599,2.1652,2.2449,2.3226,2.3967,2.3937,2.4224,2.4839,2.5348,2.494,2.3729,2.4928,2.4171,2.2044,2.2415,2.0665,1.7539,1.5878,1.4123,1.2224,0.0,0.0,0.0,0.0,0.0,0.0,0.0,0.0,0.0,0.0,0.0,0.0,0.0,0.0,0.0,0.0,0.0,0.0,0.0,0.0,0.0,0.0,0.0,0.0,0.0,0.0,0.0,0.0,0.0,0.0,0.0,0.0,0.0,2.3684,2.3578,2.3299,2.2717,2.15,1.9276,1.58,1.3149,1.1066,0.9298,0.4404,-0.0507,-0.5043,-0.6777,-0.8184,-0.9181,-1.0219,-1.0027,-0.8237,-0.7205,-0.5726,-0.3922,-0.4681,-0.4438,-0.3396,-0.3053,-0.3105,-0.3437,-0.3279,-0.3891,-0.4933,-0.5901,-0.7687,-0.892,0.0632,0.5161,0.6078,0.3801,0.3194,0.3244,0.0,0.0,0.0,0.0,0.0,0.0,0.0,1.3453,1.2523,1.1954,0.9952,0.8011,0.6593,0.6651,0.6706,0.6606,0.934,1.1105,1.1153,1.4399,1.6934,1.827,1.9921,2.0805,2.0759,2.1596,2.2404,2.3141,2.3711,2.4399,2.5175,2.5867,2.5904,2.5423,2.6116,2.5889,2.4956,2.3955,2.2656,2.099,1.7464,1.5142,1.3403,0.0,0.0,0.0,0.0,0.0,0.0,0.0,0.0,0.0,0.0,0.0,0.0,0.0,0.0,0.0,0.0,0.0,0.0,0.0,0.0,0.0,0.0,0.0,0.0,0.0,0.0,0.0,0.0,0.0,0.0,0.0,0.0,2.4315,2.5448,2.5818,2.5615,2.4619,2.3243,2.0776,1.6846,1.4001,1.1352,0.886,0.3904,-0.0277,-0.3116,-0.5862,-0.7775,-0.8722,-0.9144,-0.899,-0.8239,-0.67,-0.5388,-0.4293,-0.403,-0.3273,-0.2086,-0.2012,-0.2032,-0.2056,-0.3191,-0.495,-0.7167,-0.8834,-1.0546,-1.1508,-0.5529,-0.2629,-0.1875,-0.2037,-0.237,-0.2834,0.0,0.0,0.0,0.0,0.0,0.0,0.0,1.2817,1.1929,1.0797,0.8991,0.7292,0.5952,0.6297,0.6656,0.6695,0.9157,1.0897,1.1256,1.4373,1.721,1.949,2.0514,2.0958,2.0888,2.1765,2.243,2.2829,2.3688,2.4385,2.4911,2.639,2.6841,2.6362,2.7593,2.7529,2.6458,2.536,2.4138,2.2578,1.9025,1.6299,1.4004,1.0615,0.8435,0.7026,0.601,0.6259,0.7328,0.8639,0.0,0.0,0.0,0.0,0.0,0.0,0.0,0.0,0.0,0.0,0.0,0.0,0.0,0.0,0.0,0.0,0.0,0.0,0.0,0.0,0.0,0.0,0.0,0.0,2.3166,2.4244,2.5818,2.6344,2.6064,2.4863,2.3374,2.095,1.711,1.4129,1.1333,0.8729,0.4076,-0.0195,-0.3861,-0.5779,-0.7158,-0.7905,-0.8393,-0.8231,-0.7606,-0.6575,-0.5775,-0.5081,-0.4237,-0.3204,-0.2129,-0.2043,-0.2134,0.0,-0.386,-0.6075,-0.8804,-1.1471,-1.3757,0.0,0.0,0.0,0.0,0.0,-0.7102,-0.7485,0.0,0.0,0.0,0.0,0.0,0.0,0.0,1.2226,1.136,0.9667,0.8181,0.6785,0.5577,0.6244,0.6931,0.7363,0.9334,1.1037,1.2184,1.5018,1.7655,1.9963,2.0823,2.1211,2.1164,2.2133,2.263,2.2616,2.3775,2.4291,2.4374,2.6903,2.7621,2.6853,2.9066,2.9011,2.7286,2.6633,2.5276,2.3289,2.06,1.7607,1.4434,1.1689,0.9298,0.7406,0.6978,0.7279,0.8099,0.9652,0.0,0.0,0.0,0.0,0.0,0.0,0.0,0.0,0.0,0.0,0.0,0.0,0.0,0.0,0.0,0.0,0.0,0.0,0.0,0.0,0.0,0.0,0.0,0.0,2.2543,2.3526,2.4967,2.5461,2.5271,2.414,2.2741,2.0434,1.6815,1.4052,1.1353,0.8679,0.4647,-0.01,-0.5385,0.0,0.0,0.0,0.0,-0.7595,-0.6654,-0.6524,-0.6159,-0.569,-0.4631,-0.376,-0.2884,-0.2679,-0.2838,-0.3437,-0.4925,-0.7052,-0.9862,-1.3609,-1.6878,-1.9294,-1.7014,-1.5209,-1.3734,-1.1755,-1.0972,0.0,0.0,0.0,0.0,0.0,0.0,0.0,0.0,1.1207,1.0312,0.924,0.7931,0.672,0.5831,0.6266,0.6822,0.73,0.9417,1.2004,1.4973,1.6607,1.768,1.8134,1.8362,1.8479,1.8448,2.0045,2.091,2.0975,2.3263,2.4397,2.4421,2.6946,2.7976,2.7804,2.9509,2.9884,2.9187,2.7931,2.6754,2.542,2.2473,1.9271,1.5982,1.3152,1.1288,1.0075,0.9557,0.9672,1.0401,1.2404,1.3663,1.4626,1.6027,1.7085,0.0,0.0,0.0,0.0,0.0,0.0,0.0,0.0,0.0,0.0,0.0,0.0,0.0,0.0,0.0,0.0,0.0,0.0,0.0,2.1471,2.2063,2.2526,2.3113,2.3057,2.3104,2.3504,2.2464,2.0269,1.6595,1.4321,1.186,0.8822,0.5197,0.1699,-0.1678,-0.4491,0.0,-0.5933,-0.6169,-0.6436,-0.6491,-0.5432,-0.4937,-0.5243,0.0,0.0,-0.3098,-0.305,-0.3269,-0.377,-0.5289,-0.7446,-1.0244,-1.428,-1.822,-2.1557,-1.9866,-1.7966,-1.5973,-1.4352,-1.3326,-1.2792,0.0,0.0,0.0,0.0,0.0,0.0,0.0,1.1298,1.0656,0.8845,0.8076,0.7344,0.6366,0.71,0.7931,0.8496,1.0892,1.3454,1.5932,1.6582,1.7049,1.7534,1.7555,1.7538,1.7553,1.8982,1.9803,1.9885,2.2037,2.3327,2.3793,2.6301,2.7634,2.807,2.9571,3.0052,2.9657,2.8227,2.7042,2.5906,2.3586,2.1136,1.8549,1.5128,1.3045,1.1798,1.1646,1.2073,1.3018,1.4623,1.5893,1.699,1.7971,1.9102,2.0116,0.0,0.0,0.0,0.0,0.0,0.0,0.0,0.0,0.0,0.0,0.0,0.0,0.0,0.0,1.9489,0.0,0.0,2.0523,2.106,2.1155,2.1283,2.14,2.1427,2.1434,2.1753,2.1103,1.9435,1.6344,1.4612,1.2372,0.9283,0.6154,0.2892,-0.0516,-0.3021,-0.4697,-0.5161,-0.5405,-0.5678,-0.5978,-0.5361,-0.5112,-0.5229,-0.4438,-0.3788,-0.3379,-0.3318,-0.3536,-0.4054,-0.5485,-0.7656,-1.0521,-1.4813,-1.8386,-2.1063,-2.0039,-1.8647,-1.7089,-1.6062,-1.5151,-1.4428,0.0,0.0,0.0,0.0,0.0,0.0,0.0,0.0,1.1176,0.8635,0.837,0.8017,0.6908,0.794,0.8986,0.9829,1.2262,1.4368,1.5695,1.5818,1.6239,1.7103,1.698,1.6891,1.6903,1.7997,1.8703,1.9038,2.0711,2.2076,2.3135,2.5473,2.707,2.8053,2.9344,2.984,2.9586,2.8307,2.7189,2.6117,2.4381,2.2834,2.124,1.7686,1.5251,1.374,1.3729,1.4398,1.5498,1.6657,1.799,1.9235,1.974,2.098,2.2132,2.1859,2.2667,0.0,0.0,0.0,0.0,0.0,0.0,0.0,0.0,1.871,1.9065,1.9403,1.9616,1.9916,2.049,2.0441,2.0355,2.036,2.0108,1.9947,1.9972,2.0005,2.0108,2.0086,1.9817,1.8796,1.6505,1.5182,1.3165,1.0206,0.7328,0.4135,0.0501,-0.1463,-0.3026,-0.399,-0.4552,-0.4929,-0.5229,-0.5172,-0.5186,-0.5151,-0.4742,-0.407,-0.3398,-0.3457,-0.367,-0.4168,-0.6023,-0.8441,-1.1331,-1.5111,-1.7917,-1.975,-1.9154,-1.8398,-1.7666,-1.7388,-1.6877,-1.6304,0.0,0.0,0.0,0.0,0.0,0.0,0.0,0.0,0.0,0.8779,0.856,0.8194,0.7244,0.783,0.8782,1.0057,1.191,1.3394,1.4292,1.4872,1.5391,1.5893,1.5307,1.5038,1.5077,1.6163,1.7152,1.8056,1.9818,2.1449,2.3032,2.4827,2.645,2.7952,2.8632,2.9162,2.9476,2.8659,2.8053,2.7469,2.517,2.3903,2.3191,2.1204,1.9029,1.7004,1.6549,1.6548,1.7031,1.8735,1.9761,2.0486,2.1553,2.2465,2.3126,2.3109,2.2998,2.267,2.1955,1.9948,1.8167,1.8706,1.8093,1.751,0.0,1.8114,1.7987,1.9103,1.9183,1.9316,1.9891,2.02,2.0183,1.9385,1.8974,1.8788,1.8769,1.8639,1.8807,1.9487,1.9979,1.9618,1.7861,1.663,1.4702,1.1783,0.8681,0.5847,0.3401,0.0498,-0.1422,-0.2135,-0.3222,-0.3862,-0.4056,-0.3946,-0.4004,-0.4102,-0.3574,-0.3316,-0.3191,-0.3358,-0.3525,-0.3883,-0.7555,-1.084,-1.3766,-1.4929,-1.6911,-1.9108,-1.8238,-1.788,-1.8039,-1.8565,-1.8859,-1.8971,0.0,0.0,0.0,0.0,0.0,0.0,0.0,0.0,0.0,0.0,0.9562,0.9072,0.7914,0.8261,0.9301,1.0979,1.1428,1.2023,1.3,1.2977,1.3125,1.3512,1.3365,1.327,1.3274,1.48,1.5868,1.6401,1.8552,2.0482,2.215,2.3844,2.5765,2.7846,2.8903,2.9341,2.9217,2.8891,2.8303,2.7291,2.5881,2.4905,2.4234,2.3088,2.1603,1.9916,1.854,1.8361,0.0,1.9437,2.0593,2.1987,2.2585,2.3356,2.4013,2.3898,2.3592,2.2979,2.162,2.0279,1.929,1.9368,1.8433,1.7668,1.8486,1.8407,1.8239,1.8448,1.8786,1.904,1.8999,1.9083,1.8867,0.0,1.8011,1.8115,1.8437,1.9023,1.9748,2.0657,2.1615,2.1234,1.8795,1.7586,1.568,1.2841,0.9808,0.6975,0.4309,0.1811,0.0,-0.0899,-0.1734,-0.2424,-0.3191,-0.3221,-0.3597,-0.4445,-0.4269,-0.3668,-0.2795,-0.2767,-0.2882,-0.3248,-0.576,-0.8197,-1.0531,-1.1685,-1.3614,-1.5877,-1.6252,-1.7265,-1.8543,-1.9298,-1.9871,-2.0296,0.0,0.0,0.0,0.0,0.0,0.0,0.0,0.0,0.0,0.0,0.0,0.9987,0.8654,0.8785,0.9467,1.0696,1.0542,1.071,1.1498,1.1405,1.1494,1.1932,1.214,1.2277,1.2262,1.3639,1.4656,1.5284,1.728,1.9381,2.1512,2.3188,2.5297,2.7727,2.9115,2.9531,2.9265,2.9231,2.8589,2.7443,2.6334,2.5536,2.4912,2.3988,2.298,2.1865,2.0251,1.9856,2.0092,2.0188,2.1222,2.2471,2.3033,2.3811,2.4398,2.4201,2.3986,2.354,2.1852,2.1015,2.0476,1.9873,1.8771,1.7965,1.8703,1.8658,1.8426,1.8342,1.8507,1.8577,1.8136,1.7904,1.7621,1.707,1.7077,1.747,1.8447,1.9619,2.0896,2.2128,2.315,2.291,2.0642,1.8966,1.692,1.4022,1.0979,0.7982,0.5165,0.3054,0.1464,0.0461,-0.0284,-0.0979,-0.1731,-0.1865,-0.241,-0.3373,-0.3372,-0.2742,-0.1761,-0.1577,-0.1665,-0.2081,-0.3038,-0.4701,-0.6806,-0.794,-1.0178,-1.298,-1.4387,-1.6622,-1.909,-2.0088,-2.0971,-2.1862,0.0,0.0,0.0,0.0,0.0,0.0,0.0,0.0,0.0,0.0,0.0,0.0,0.0,0.9149,0.889,0.8452,0.9084,0.9557,0.9586,1.0555,1.1319,1.1796,1.2169,1.2371,1.2401,1.256,1.3483,1.5206,1.6048,1.8167,2.1453,2.304,2.517,2.766,2.8926,2.9625,2.9842,2.9667,2.9276,2.8534,2.6461,2.5584,2.5422,2.3823,2.291,2.2419,2.1815,2.0821,2.0036,2.16,2.1697,2.1376,2.2753,2.3754,2.4301,2.3853,2.4039,2.4149,2.3036,2.1897,2.0861,1.9946,1.9021,1.8502,1.8912,1.851,1.8317,1.9208,1.8473,1.7658,1.7314,1.6953,1.6563,1.6027,1.6186,1.6992,1.8844,2.0176,2.1674,2.3447,2.4368,2.4613,0.0,2.1371,1.8567,1.5622,1.2296,0.909,0.6268,0.4353,0.2964,0.2108,0.1265,0.0689,0.0721,0.0276,0.0094,0.0096,0.0281,0.0453,0.0432,0.05,0.0184,-0.033,-0.0,-0.1437,-0.4035,-0.4337,-0.7117,-1.1335,-1.2933,-1.6009,-1.9673,-2.1052,-2.2515,-2.3971,0.0,0.0,0.0,0.0,0.0,0.0,0.0,0.0,0.0,0.0,0.0,0.0,0.0,0.0,0.0,0.0,0.8912,0.8883,0.9218,0.9278,0.9529,1.0042,1.0189,1.0349,1.0468,1.1089,1.1742,1.2498,1.4419,1.6586,1.8857,2.1158,2.3726,2.6563,2.8558,2.9533,2.9656,3.0053,2.96,2.8488,2.6773,2.5954,2.5558,2.4053,2.2885,2.1984,0.0,2.0861,2.0297,2.0525,2.0718,2.0924,2.1507,2.2073,2.254,2.2567,2.3242,2.3692,2.2192,2.1175,2.0373,1.9459,1.8277,1.7478,1.7961,1.7912,1.7781,1.8114,1.7775,1.7194,1.624,1.5924,1.5635,1.5131,1.6166,1.7752,1.9893,2.1348,2.3093,2.5302,2.5932,0.0,0.0,0.0,0.0,1.6401,1.2783,0.9696,0.741,0.5277,0.3975,0.3573,0.2921,0.2463,0.2376,0.2012,0.2318,0.3157,0.3413,0.3526,0.3584,0.4296,0.4249,0.3716,0.4519,0.3348,0.0762,-0.0712,-0.399,-0.8423,-1.1551,-1.5217,-1.9057,-2.1337,-2.3028,-2.4258,0.0,0.0,0.0,0.0,0.0,0.0,0.0,0.0,0.0,0.0,0.0,0.0,0.0,0.0,0.0,0.0,0.0,0.847,0.8756,0.8639,0.8779,0.9233,0.9334,0.9456,0.9654,1.0247,1.0779,1.1202,1.3464,1.5393,1.7132,2.0318,2.298,2.5205,2.8073,2.9259,2.9179,2.9817,2.9296,2.7859,2.6596,2.5584,2.4728,2.3447,2.2375,0.0,2.0855,2.0307,1.993,2.0027,2.0245,2.0465,2.0818,2.1404,2.2038,2.2558,2.3543,2.4079,2.2122,2.131,2.0626,1.8869,1.7747,1.7211,1.7517,1.7541,1.7623,1.7846,1.7531,1.6925,1.5793,1.5416,1.5191,1.5031,1.6434,1.8317,2.0618,2.2475,2.4269,2.6047,2.6467,2.6361,0.0,0.0,0.0,1.7483,1.4022,1.0975,0.8701,0.6745,0.5529,0.5225,0.4739,0.442,0.4279,0.4015,0.4337,0.5352,0.5702,0.5924,0.6042,0.7084,0.7437,0.7287,0.8488,0.7529,0.4953,0.2916,-0.0951,-0.598,-1.0167,-1.4337,-1.8336,-2.1076,-2.2872,-2.4049,0.0,0.0,0.0,0.0,0.0,0.0,0.0,0.0,0.0,0.0,0.0,0.0,0.0,0.0,0.0,0.0,0.0,0.0,0.8293,0.8683,0.9024,0.9287,0.9485,0.9691,0.982,0.9941,1.0417,1.1237,1.2917,1.4592,1.624,2.0289,2.2661,2.3699,2.7382,2.8817,2.8489,2.9039,2.832,2.67,2.6022,2.4667,2.2977,2.2034,0.0,0.0,1.986,1.9102,1.8819,2.0108,2.0238,1.997,2.0749,2.1657,2.2646,2.3608,2.4725,2.5055,2.2637,2.2015,2.1279,1.817,1.7556,1.7704,1.7606,1.7716,1.799,1.8556,1.7879,1.6901,1.6046,1.5541,1.5362,1.5771,1.7082,1.8893,2.1243,2.3581,2.5274,0.0,0.0,0.0,0.0,0.0,0.0,1.9097,0.0,1.3035,1.0294,0.8893,0.7812,0.7021,0.6787,0.6572,0.6367,0.623,0.6384,0.684,0.7455,0.7832,0.7985,0.8985,0.9734,1.0291,1.1718,1.0852,0.8215,0.6174,0.1745,-0.4178,-0.8824,-1.3268,-1.7432,-2.0273,-2.2083,-2.3395,0.0,0.0,0.0,0.0,0.0,0.0,0.0,0.0,0.0,0.0,0.0,0.0,0.0,0.0,0.0,0.0,0.0,0.0,0.9774,0.9304,0.9179,0.9428,0.8741,0.8465,0.8697,0.8636,0.8835,0.9221,1.0985,1.2692,1.4423,1.6824,1.9631,2.2739,2.4783,2.6482,2.7743,2.7888,2.7362,2.6312,0.0,2.4042,2.2839,0.0,0.0,1.88,1.7354,1.663,1.6678,1.8812,1.9412,1.9421,2.0467,2.1217,2.1893,2.2527,2.2843,2.257,2.0669,1.9526,1.8575,1.7343,1.7381,1.7928,1.8745,1.9205,1.953,1.9635,1.8795,1.7884,1.7319,1.7242,1.7368,1.7733,1.9975,0.0,2.3638,2.5434,0.0,2.841,2.8307,2.7729,2.6757,2.6106,0.0,0.0,1.7853,1.4976,1.2717,1.2003,1.1112,0.9994,0.9814,0.9439,0.877,0.8774,0.9095,0.9686,1.0763,1.1755,1.2615,1.3022,1.323,1.3198,1.2986,1.1138,0.8041,0.5484,0.1172,-0.424,-0.8175,-1.2109,-1.5818,-1.8646,-2.0187,-2.0978,0.0,0.0,0.0,0.0,0.0,0.0,0.0,0.0,0.0,0.0,0.0,0.0,0.0,0.0,0.0,0.0,0.0,0.0,0.0,0.9969,0.9619,0.9471,0.8518,0.8116,0.8356,0.8197,0.8115,0.8024,0.9155,1.0271,1.1473,1.3948,1.645,1.8977,2.16,2.3547,2.4938,2.539,2.5101,0.0,0.0,0.0,0.0,0.0,0.0,1.7852,1.5879,1.5114,1.5329,1.7371,1.8622,1.9497,2.0613,2.1262,2.1572,2.164,2.1365,2.0672,1.8783,1.7546,1.6739,1.6362,1.706,1.8119,1.9104,2.0072,2.0753,2.0806,2.0675,2.0405,1.971,2.0182,2.08,2.1093,2.2876,2.4631,2.5857,2.7065,2.8225,2.918,2.909,2.8617,2.7641,2.7265,2.5954,0.0,2.0308,1.7669,1.5414,1.4789,1.4021,1.3062,1.265,1.2244,1.179,1.2095,1.2605,1.3273,1.4508,1.5462,1.6065,1.6207,1.6,1.5436,0.0,1.1385,0.8231,0.501,0.0819,-0.3961,-0.7655,-1.0976,-1.4044,-1.6757,-1.8152,-1.875,0.0,0.0,0.0,0.0,0.0,0.0,0.0,0.0,0.0,0.0,0.0,0.0,0.0,0.0,0.0,0.0,0.0,0.0,0.0,0.0,1.0107,0.9483,0.8515,0.8046,0.8201,0.7969,0.7692,0.7335,0.7494,0.7695,0.8079,1.1155,1.3169,1.443,1.8043,2.0299,2.1388,2.2452,2.2442,0.0,0.0,0.0,0.0,0.0,0.0,1.715,1.4866,1.419,1.4555,1.6016,1.777,1.9568,2.0748,2.1289,2.1369,2.0816,2.0137,1.9087,1.6976,1.5911,1.5416,1.5464,1.684,1.8451,1.9429,2.0895,2.2127,2.2202,2.2975,2.3392,2.2574,2.3475,2.4472,2.4874,2.5722,2.6728,2.7909,2.869,2.9212,2.9326,2.9532,2.933,2.8588,2.7879,2.6776,2.5057,2.3023,2.0788,1.8269,1.7584,1.6978,1.6271,1.5505,1.5224,1.5425,1.5935,1.6597,1.739,1.856,1.9169,1.9181,1.9021,1.832,1.7116,0.0,0.0,0.8014,0.4233,0.0262,-0.3735,-0.7271,-1.0024,-1.233,-1.4705,-1.5929,-1.6538,0.0,0.0,0.0,0.0,0.0,0.0,0.0,0.0,0.0,0.0,0.0,0.0,0.0,0.0,0.0,0.0,0.0,0.0,0.0,0.0,0.0,0.9687,0.8182,0.7285,0.7148,0.6495,0.6388,0.6885,0.6141,0.5639,0.5471,0.7387,0.9948,1.3004,1.4703,1.7101,1.9885,2.0616,2.1116,0.0,0.0,0.0,0.0,0.0,0.0,0.0,1.3211,1.3303,1.4185,1.5439,1.6575,1.7786,1.9705,2.0227,2.0101,2.0023,1.8887,1.7265,1.5385,1.4322,1.4,1.5053,1.7249,1.9557,2.1093,2.3112,2.4632,2.4567,2.4613,2.4695,2.4648,2.5219,2.6007,2.6985,2.8193,2.9254,2.9982,3.0889,3.1382,3.1182,3.1332,3.0995,2.9735,2.9551,0.0,0.0,0.0,0.0,2.0975,2.1165,2.0841,1.9688,1.8833,1.8857,1.981,2.0137,2.0865,2.2046,2.2984,2.3592,2.3801,2.2424,2.0468,1.7922,0.0,0.0,0.5528,0.1553,-0.1794,-0.4643,-0.7319,-0.9512,-1.1305,-1.2825,-1.37,-1.4237,0.0,0.0,0.0,0.0,0.0,0.0,0.0,0.0,0.0,0.0,1.8925,1.8385,0.0,0.0,0.0,0.0,0.0,0.0,0.0,0.0,0.0,0.0,0.0,0.0,0.693,0.5911,0.5363,0.5284,0.0,0.3836,0.3572,0.476,0.6571,0.8946,1.1162,1.3745,1.6436,1.7572,1.8525,0.0,0.0,0.0,0.0,0.0,0.0,0.0,1.269,1.2864,1.3115,1.4436,1.5159,1.602,1.8824,1.9377,1.895,1.869,1.7283,1.5541,1.3932,1.2924,1.2695,1.4233,1.6708,1.9336,2.1396,2.3799,2.5743,2.629,2.7098,2.7577,2.7055,2.8075,2.8999,2.9084,2.9783,3.0588,3.1317,3.1989,3.2496,3.2785,3.3038,3.2782,3.1759,3.1261,3.0007,0.0,0.0,0.0,2.2845,2.279,2.2732,2.2492,2.1962,2.2248,2.3451,2.4141,2.4764,2.539,2.6166,2.6396,2.6111,2.3753,2.1026,1.7974,0.0,0.0,0.4251,0.0442,-0.2493,-0.4862,-0.6923,-0.855,-0.9807,-1.0683,-1.1482,-1.1979,0.0,0.0,0.0,0.0,0.0,0.0,0.0,1.9495,1.9599,1.9818,2.0177,1.9752,1.8172,1.6543,0.0,0.0,0.0,0.0,0.0,0.0,0.0,0.0,0.0,0.0,0.0,0.0,0.0,0.4571,0.3426,0.0,0.0,0.0,0.0,0.0,0.7887,1.0587,1.3085,1.4741,1.6079,0.0,0.0,0.0,0.0,0.0,0.0,0.0,0.0,1.2459,1.2223,1.3551,1.4108,1.4728,1.7461,1.8051,1.7642,1.7331,1.6069,1.4501,1.3332,1.2522,1.2361,1.3963,1.6329,1.8858,2.1234,2.3853,2.6149,2.734,2.8836,2.9744,2.9078,3.0023,3.0825,3.0677,3.0671,3.1083,3.2294,3.2816,3.3319,3.4053,3.4203,3.3998,3.3199,3.226,0.0,0.0,0.0,0.0,2.4385,2.4,2.4159,2.4827,2.4719,2.526,2.6612,2.7437,2.7962,2.8184,2.8581,2.8331,2.7361,2.4512,2.1339,1.7869,0.0,0.0,0.0,0.0121,-0.2556,-0.4558,-0.6224,-0.7363,-0.8118,-0.8684,-0.9343,-0.9865,0.0,0.0,0.0,0.0,0.0,0.0,0.0,2.0153,2.0604,2.2623,2.0813,1.8957,1.7984,1.6677,0.0,0.0,0.0,0.0,0.0,0.0,0.0,0.0,0.0,0.0,0.0,0.0,0.0,0.6712,0.4319,0.0,0.0,0.0,0.0,0.0,0.0,0.8129,1.136,1.3133,0.0,0.0,0.0,0.0,0.0,0.0,0.0,0.0,0.0,1.1686,1.2265,1.3356,1.4035,1.4485,1.502,1.5505,1.5918,1.6388,1.5913,1.5079,1.4477,1.3958,1.3983,1.5428,1.6934,1.8666,2.113,2.3658,2.5843,2.7307,2.8395,2.933,3.0034,2.9068,2.8876,3.1144,3.0615,3.068,3.2889,3.3575,3.4099,3.4564,3.4376,3.379,3.2659,3.1546,0.0,0.0,0.0,0.0,0.0,2.5886,2.6162,2.6639,2.6718,2.7537,2.9233,2.9288,2.9807,3.0772,3.0186,2.9283,2.7933,2.5524,2.2214,1.8093,0.0,0.0,0.0,0.0379,-0.2038,-0.3585,-0.5266,-0.6102,-0.6414,-0.709,-0.7518,-0.776,0.0,0.0,0.0,0.0,0.0,0.0,0.0,2.0108,2.0288,2.173,2.1353,2.0068,1.785,1.6629,1.4746,0.0,0.0,0.0,0.0,0.0,0.0,0.0,0.0,0.0,0.0,0.0,0.6933,0.5864,0.4189,0.0,0.0,0.0,0.0,0.0,0.0,0.6072,0.9257,0.0,0.0,0.0,0.0,0.0,0.0,0.0,0.0,0.0,0.0,0.0,1.1246,1.2054,1.2385,1.2592,1.3317,1.3854,1.4509,1.612,1.6425,1.6308,1.6412,1.6227,1.6168,1.7072,1.8085,1.932,2.1245,2.3081,2.4765,2.6127,2.7059,2.7807,2.8479,2.8188,2.8347,3.0022,2.9902,3.0011,3.1157,3.2043,3.2788,3.3363,3.3432,3.3331,0.0,0.0,0.0,0.0,0.0,0.0,0.0,2.5258,2.6242,2.7813,2.7956,2.8859,3.0609,3.1299,3.1727,3.1799,3.1913,3.119,2.9714,2.6594,2.3232,1.9513,0.0,0.0,0.0,0.1776,-0.0758,-0.257,-0.3961,-0.4488,-0.4593,-0.4938,-0.5185,-0.524,0.0,0.0,0.0,0.0,0.0,0.0,2.0297,2.007,2.0141,2.1168,2.133,2.0373,1.7741,1.6249,1.4394,1.1664,0.0,0.0,0.0,0.0,0.0,0.0,0.0,0.0,0.0,0.0,0.7135,0.5576,0.415,0.2437,0.0,0.0,-0.1398,-0.0257,0.0,0.0,0.0,0.0,0.0,0.0,0.0,0.0,0.0,0.0,0.0,0.0,0.0,0.0,0.0,0.0,0.0,1.1266,1.2368,1.3107,1.3964,1.5945,1.6837,1.734,1.8223,1.8471,1.8647,1.9256,1.9769,2.0445,2.1958,2.28,2.3659,2.5093,2.564,2.6217,2.7381,2.7308,2.7633,2.9289,2.9261,2.9385,3.034,3.1088,3.18,3.2574,0.0,3.2374,0.0,0.0,0.0,0.0,0.0,0.0,0.0,2.3414,2.5057,2.81,2.8682,2.9779,3.1446,3.2495,3.2844,3.258,3.2836,3.2092,3.0359,2.7224,2.3948,0.0,0.0,0.0,0.0,0.3375,0.0867,-0.1163,-0.2192,-0.2519,-0.2487,-0.2734,-0.278,-0.2689,0.0,0.0,0.0,0.0,0.0,0.0,0.0,2.0215,2.0406,2.1826,2.0607,1.9085,1.7736,1.5566,1.3574,1.1946,0.0,0.0,0.0,0.0,0.0,0.0,0.0,0.0,0.0,0.0,0.7698,0.6684,0.4468,0.2267,0.0063,-0.2085,-0.2719,-0.2006,0.0,0.0,0.0,0.0,0.0,0.0,0.0,0.0,0.0,0.0,0.0,0.0,0.0,0.0,0.0,0.0,0.0,0.0,0.0,1.3373,1.4461,1.5816,1.6926,1.8049,1.9655,2.05,2.1205,2.2058,2.195,2.1977,2.3375,2.2855,2.2661,2.4552,2.4372,2.4747,2.7334,2.6504,2.641,2.9407,2.8828,2.8803,3.1164,3.1284,3.1695,0.0,3.1939,3.0756,2.9884,0.0,0.0,0.0,0.0,0.0,0.0,0.0,2.2539,2.7334,2.8854,3.0314,3.188,3.2435,3.2882,3.3178,3.2652,3.139,2.9455,2.7227,0.0,0.0,0.0,0.0,0.0,0.4997,0.2674,0.0729,0.0,-0.0151,0.0,-0.0465,-0.0476,-0.0244,0.0,0.0,0.0,0.0,0.0,0.0,0.0,1.8455,1.8629,1.9849,1.9361,1.8802,1.847,1.6557,1.4924,1.3976,0.0,0.0,0.0,0.0,0.0,0.0,0.0,0.0,0.0,0.0,0.6412,0.4864,0.333,0.1267,-0.1319,-0.3224,-0.3856,-0.3282,-0.2436,0.0,0.0,0.0,0.0,0.0,0.0,0.0,0.0,0.0,0.0,0.0,0.0,0.0,0.0,0.0,0.0,0.0,0.0,0.0,0.0,1.5314,1.7207,1.9026,2.0398,2.1743,2.2871,2.3438,2.3568,2.3512,2.3464,2.3189,2.2951,2.3091,2.2829,2.3281,2.5848,2.5421,2.6028,2.9996,2.9895,2.9731,3.0955,3.1504,3.1615,3.1113,3.012,2.8725,0.0,0.0,0.0,0.0,0.0,0.0,0.0,0.0,2.0896,2.4923,2.6534,2.8243,3.0043,3.2066,3.3255,3.3567,3.3406,3.2509,3.0807,2.7464,0.0,0.0,0.0,0.0,0.0,0.6364,0.4261,0.2676,0.1923,0.1869,0.2215,0.1836,0.1869,0.2083,0.0,0.0,0.0,0.0,0.0,0.0,0.0,1.7198,1.7422,1.8361,1.7981,1.7748,1.8129,1.6216,1.4913,1.4971,0.0,0.0,0.0,0.0,0.0,0.0,0.0,0.0,0.0,0.6768,0.5222,0.2896,0.1662,-0.0316,-0.2994,-0.457,-0.4951,-0.4248,-0.3681,-0.2381,0.0,0.0,0.0,0.0,0.0,0.0,0.138,0.0,0.0,0.0,0.0,0.0,0.0,0.0,0.0,0.0,0.0,0.0,0.0,0.0,1.7709,1.9746,2.126,2.3055,2.4547,2.527,2.5532,2.5344,2.485,2.3833,2.3028,2.2874,2.2506,2.2923,2.5285,2.55,2.6402,3.0007,2.9951,2.9957,3.1088,3.1406,0.0,2.9668,0.0,0.0,0.0,0.0,0.0,0.0,0.0,0.0,0.0,0.0,1.7931,2.0464,2.368,2.6301,2.8207,3.0745,3.2331,3.3006,3.2838,3.2107,3.0836,0.0,0.0,0.0,0.0,0.0,0.0,0.7202,0.5479,0.4279,0.3718,0.379,0.4146,0.3824,0.3813,0.3838,0.0,0.0,0.0,0.0,0.0,0.0,0.0,0.0,0.0,0.0,1.6621,1.6284,1.6913,1.4933,0.0,0.0,0.0,0.0,0.0,0.0,0.0,0.0,0.0,0.0,0.0,0.5955,0.413,0.1022,-0.0266,-0.2191,-0.4713,-0.5888,-0.5916,-0.493,-0.4254,-0.2975,-0.1231,0.0,0.0,0.0,0.0,0.0,0.0,0.0,0.0,0.0,0.0,0.0,0.0,0.0,0.0,0.0,0.0,0.0,0.0,0.0,0.0,0.0,0.0,2.4302,2.6223,2.7317,2.7451,2.7234,2.7037,2.4843,0.0,2.3574,2.318,2.3471,2.5707,2.6467,2.755,2.9919,2.9642,2.9754,3.1483,3.0977,0.0,0.0,2.6883,0.0,0.0,0.0,0.0,0.0,0.0,0.0,0.0,0.0,0.0,1.4761,2.0127,2.4044,2.6107,2.8324,3.0182,3.1513,3.1014,3.0352,2.9487,0.0,0.0,0.0,0.0,0.0,0.0,0.7496,0.6284,0.5375,0.5387,0.5616,0.574,0.5486,0.5364,0.517,0.0,0.0,0.0,0.0,0.0,0.0,0.0,0.0,0.0,0.0,0.0,1.637,1.5724,1.5266,0.0,0.0,0.0,0.0,0.0,0.0,0.0,0.0,0.0,0.0,0.0,0.4903,0.2851,0.0259,-0.1006,-0.2653,-0.4646,-0.549,-0.5761,-0.5501,-0.5339,-0.4039,-0.1949,-0.1364,0.0,0.0,0.0,0.0,0.0,0.0,0.0,0.0,-1.0216,-0.9078,0.0,0.0,0.0,0.0,0.0,0.0,0.0,0.0,1.8883,2.1073,2.2982,0.0,2.6304,2.7118,2.8047,2.8449,0.0,2.597,2.4691,2.3546,2.3302,2.4184,2.7231,2.7645,2.8812,3.2677,3.2376,3.1867,3.2685,3.1582,0.0,2.9188,2.7084,0.0,0.0,0.0,0.0,0.0,0.0,0.0,0.0,0.0,0.0,1.2373,1.4321,1.7335,2.1364,2.4472,2.6671,2.7826,2.8279,2.8056,2.7207,0.0,0.0,0.0,0.0,0.0,0.0,0.8106,0.7119,0.6492,0.6595,0.6744,0.6809,0.6184,0.5915,0.5675,0.0,0.0,0.0,0.0,0.0,0.0,0.0,0.0,0.0,0.0,0.0,0.0,0.0,0.0,0.0,0.0,0.0,0.0,0.0,0.0,0.0,0.0,0.0,0.7734,0.5906,0.4376,0.2208,-0.0595,-0.1809,-0.3353,-0.5148,-0.5728,-0.5764,-0.5373,-0.496,-0.4106,-0.293,-0.3139,-0.2935,-0.263,-0.4006,0.0,0.0,0.0,0.0,0.0,-1.4275,-1.2225,0.0,-0.3401,0.1951,0.7748,0.0,0.0,0.0,0.0,1.9148,2.1043,2.303,2.5206,2.7176,2.8041,2.8858,2.9229,2.8174,2.6863,2.5587,2.4515,2.4488,2.5487,2.7988,2.8866,3.0329,3.3615,3.3233,0.0,0.0,0.0,3.0627,2.9244,2.713,0.0,0.0,0.0,0.0,0.0,0.0,0.0,0.0,0.0,0.0,0.0,1.0619,1.2949,1.7466,2.0234,2.2539,2.4363,2.4931,2.5284,2.5237,0.0,0.0,0.0,0.0,0.0,0.8974,0.8047,0.7451,0.7073,0.6961,0.6976,0.6905,0.6149,0.561,0.5174,0.0,0.0,0.0,0.0,0.0,0.0,0.0,0.0,0.0,0.0,0.0,0.0,0.0,0.0,0.0,0.0,0.0,0.0,0.0,0.0,0.0,0.0,0.0,0.7972,0.5425,0.414,0.1923,-0.1319,-0.2435,-0.389,-0.5626,-0.5927,-0.5639,-0.479,-0.396,-0.3652,-0.3779,-0.419,-0.4803,-0.5545,-0.623,0.0,0.0,0.0,0.0,0.0,0.0,0.0,0.0,-0.4653,0.1685,0.8826,1.4227,0.0,0.0,0.0,0.0,0.0,2.3047,2.5652,2.7914,2.8893,2.9579,2.9759,2.915,2.7729,2.6335,2.5848,2.6146,2.7042,2.8739,3.0205,3.1805,3.3904,0.0,0.0,3.2469,3.1871,3.0854,2.9126,0.0,0.0,0.0,0.0,0.0,0.0,0.0,0.0,0.0,0.0,0.0,0.0,0.8446,0.9879,1.3637,1.5835,1.8146,2.0716,2.1286,2.209,2.2912,2.0613,0.0,0.0,0.0,0.0,0.849,0.7773,0.7343,0.7131,0.686,0.6631,0.6406,0.5583,0.4871,0.4149,0.0,0.0,0.0,0.0,0.0,0.0,0.0,0.0,0.0,0.0,0.0,0.0,0.0,0.0,0.0,0.0,0.0,0.0,0.0,0.0,0.0,0.0,1.0175,0.8213,0.538,0.3794,0.1571,-0.14,-0.2477,-0.3607,-0.4798,-0.5027,-0.4747,-0.4052,-0.3448,-0.3334,-0.3567,-0.3751,-0.4471,-0.5637,-0.7242,0.0,0.0,0.0,0.0,0.0,0.0,0.0,0.0,-0.5937,0.0971,0.8193,1.2733,0.0,0.0,0.0,0.0,0.0,2.457,2.6283,2.7517,2.8365,2.962,3.0405,2.9503,2.8457,2.7441,2.6584,2.6982,2.8152,3.0888,3.137,3.2331,3.508,0.0,3.3256,0.0,0.0,3.0941,0.0,0.0,0.0,0.0,0.0,0.0,0.0,0.0,0.0,0.0,0.0,0.0,0.0,0.0,0.7545,0.8355,1.1241,1.3695,1.5643,1.7311,1.8616,1.9434,1.7903,1.642,0.0,0.0,0.0,0.8645,0.7638,0.6895,0.6406,0.6399,0.6017,0.5268,0.4556,0.4008,0.3354,0.0,0.0,0.0,0.0,0.0,0.0,0.0,0.0,0.0,0.0,0.0,0.0,0.0,0.0,0.0,0.0,0.0,0.0,0.0,0.0,0.0,1.2142,1.068,0.8437,0.5327,0.3591,0.1495,-0.1019,-0.1957,-0.2886,-0.3788,-0.3767,-0.3476,-0.2993,-0.2881,-0.2992,-0.3302,-0.3744,-0.4816,-0.6364,0.0,0.0,0.0,0.0,0.0,0.0,0.0,0.0,0.0,0.0,0.2718,0.9729,1.2874,0.0,0.0,0.0,0.0,0.0,2.4039,2.5624,2.6963,2.7909,2.9452,3.0458,2.9799,2.9447,2.9132,2.8585,2.9013,3.0036,3.1956,3.2613,3.3328,3.5019,0.0,3.3605,3.2665,0.0,0.0,0.0,0.0,0.0,0.0,0.0,0.0,0.0,0.0,0.0,0.0,0.0,0.0,0.0,0.0,0.6111,0.6442,0.81,1.0146,1.2649,1.4436,1.5818,1.6518,1.6023,1.4934,0.0,0.0,0.9892,0.8445,0.7601,0.6645,0.5921,0.5342,0.4634,0.3578,0.2504,0.192,0.1674,0.0,0.0,0.0,0.0,0.0,0.0,0.0,0.0,0.0,0.0,0.0,0.0,0.0,0.0,0.0,0.0,0.0,0.0,0.0,0.0,1.4571,1.2301,1.086,0.8559,0.5327,0.3677,0.173,-0.0547,-0.1222,-0.1957,-0.2751,-0.2557,-0.2361,-0.2153,-0.2358,-0.2713,-0.3214,-0.3809,-0.5105,-0.6806,0.0,0.0,0.0,0.0,0.0,0.0,0.0,0.0,0.0,0.0,0.0,0.0,0.0,0.0,0.0,1.9253,2.0637,2.2294,2.3722,2.5205,2.6589,2.7815,2.9446,3.0475,3.007,3.0373,3.0667,3.0414,3.0757,3.1471,3.2492,3.3215,0.0,3.4176,3.4055,3.3606,0.0,0.0,0.0,0.0,0.0,0.0,0.0,0.0,0.0,0.0,0.0,0.0,0.0,0.0,0.0,0.0,0.0,0.0,0.6014,0.638,0.7965,1.0532,1.2181,1.3383,1.4266,1.4342,1.3607,1.2312,1.1117,0.9856,0.8313,0.7485,0.6431,0.5316,0.4285,0.3038,0.1718,0.0335,-0.0108,0.0,0.0,0.0,0.0,0.0,0.0,0.0,0.0,0.0,0.0,0.0,0.0,0.0,0.0,0.0,0.0,0.0,0.0,0.0,0.0,0.0,1.3896,1.1759,1.0421,0.8399,0.5531,0.4202,0.234,-0.0065,-0.0372,-0.0933,-0.1707,-0.1556,-0.1665,-0.1914,-0.1934,-0.2474,-0.3406,-0.3819,-0.4867,-0.6318,-0.7142,0.0,0.0,0.0,0.0,0.0,0.0,0.0,0.0,0.0,0.0,0.0,0.0,0.0,1.8494,1.9687,2.1036,2.2717,2.5137,2.5882,2.6393,2.8446,2.9851,3.0522,3.0209,3.084,3.157,3.1195,3.1513,3.1809,3.2279,3.265,3.2666,3.2325,3.2526,0.0,0.0,0.0,0.0,0.0,0.0,0.0,0.0,0.0,0.0,0.0,0.0,0.0,0.0,0.0,0.0,0.0,0.0,0.0,0.6288,0.694,0.7817,0.898,1.0383,1.1545,1.2548,1.2499,1.2229,1.1787,1.0472,0.9549,0.8714,0.7237,0.585,0.4416,0.3389,0.1653,-0.0345,-0.1032,-0.1234,-0.1086,0.0,0.0,0.0,0.0,0.0,0.0,0.0,0.0,0.0,0.0,0.0,0.0,0.0,0.0,0.0,0.0,0.0,0.0,0.0,1.5443,1.3905,1.1747,1.0382,0.8676,0.6518,0.4744,0.2969,0.1172,0.0418,-0.0103,-0.035,-0.0417,-0.0657,-0.0968,-0.1303,-0.1816,-0.2462,-0.3334,-0.4101,-0.4858,-0.5689,-0.6511,0.0,0.0,0.0,0.0,0.0,0.0,0.0,0.0,0.8329,1.212,1.4184,1.6843,1.9408,2.0312,2.1745,2.3398,2.4774,2.5646,2.6427,2.7651,2.8653,2.944,2.9791,3.0377,3.1118,3.1789,3.209,3.2204,3.2168,3.2074,3.1801,3.1437,3.1743,0.0,0.0,0.0,0.0,0.0,0.0,0.0,0.0,0.0,0.0,0.0,0.0,0.0,0.0,0.0,0.0,0.0,0.0,0.0,0.0,0.6723,0.7326,0.7718,0.9477,1.0501,1.1034,1.1598,1.1394,1.0769,1.0102,0.9221,0.7969,0.6878,0.5445,0.3618,0.1352,-0.0241,-0.142,-0.1992,-0.2172,-0.1884,0.0,0.0,0.0,0.0,0.0,0.0,0.0,0.0,0.0,0.0,0.0,0.0,0.0,0.0,0.0,0.0,0.0,0.0,1.6779,1.5301,1.357,1.1581,1.0319,0.8871,0.7146,0.5573,0.4033,0.2441,0.1242,0.067,0.0672,0.0529,0.028,0.0,-0.0521,-0.1053,-0.1697,-0.259,-0.3177,-0.3541,-0.3922,-0.4294,0.0,0.0,0.0,0.0,0.0,0.0,0.0,0.0,0.9719,1.2553,1.4631,1.7133,1.9566,2.0791,2.2629,2.4322,2.5121,2.5816,2.6573,2.7454,2.7574,2.7908,2.8935,2.9835,3.0828,3.1598,3.1727,3.1653,3.1465,3.0891,0.0,0.0,0.0,0.0,0.0,0.0,0.0,0.0,0.0,0.0,0.0,0.0,0.0,0.0,0.0,0.0,0.0,0.0,0.0,0.0,0.0,0.0,0.0,0.6393,0.6934,0.7146,0.8711,0.9725,1.0076,1.0642,1.0706,1.0095,0.998,0.9051,0.7637,0.6708,0.4953,0.2605,-0.0122,-0.1445,-0.2138,-0.2934,-0.2985,-0.2463,0.0,0.0,0.0,0.0,0.0,0.0,0.0,0.0,0.0,0.0,0.0,0.0,0.0,0.0,0.0,0.0,0.0,0.0,1.7231,1.4896,1.2764,1.1092,1.0113,0.8841,0.7161,0.6718,0.5524,0.3605,0.2185,0.1452,0.1301,0.1234,0.1092,0.0882,0.0502,-0.0291,-0.1278,-0.1655,-0.21,-0.2509,-0.1853,-0.1141,-0.0397,0.0,0.0,0.0,0.0,0.0,0.0,0.0,1.1067,1.2026,1.6114,1.7792,1.8744,2.1284,2.3541,2.5428,2.6621,2.6872,2.6948,2.8155,2.7004,2.5881,2.7632,2.9409,3.0665,3.0238,2.9885,2.9808,3.0112,2.8941,0.0,0.0,0.0,0.0,0.0,0.0,0.0,0.0,0.0,0.0,0.0,0.0,0.0,0.0,0.0,0.0,0.0,0.0,0.0,0.0,0.0,0.0,0.0,0.6361,0.6805,0.736,0.8166,0.8925,0.9561,0.9697,0.9832,0.998,0.9732,0.9048,0.7742,0.673,0.4386,0.1323,-0.0591,-0.1748,-0.2417,-0.3679,-0.364,-0.3026,0.0,0.0,0.0,0.0,0.0,0.0,0.0,0.0,0.0,0.0,0.0,0.0,0.0,0.0,0.0,0.0,0.0,0.0,1.772,1.5487,1.3602,1.2267,1.0599,0.9325,0.8606,0.6672,0.4923,0.3475,0.258,0.1941,0.1597,0.1619,0.1606,0.1512,0.1225,0.0924,0.0612,-0.0137,-0.0277,0.0,0.0187,0.0564,0.1167,0.0,0.0,0.0,0.0,0.0,0.0,0.0,0.0,0.0,1.538,1.8066,2.0367,2.1212,2.3243,2.5217,2.5507,2.5811,2.6109,2.6628,2.6254,2.6059,2.6831,2.7794,2.8826,3.019,3.0731,3.0654,3.0202,2.9683,0.0,0.0,0.0,0.0,0.0,0.0,0.0,0.0,0.0,0.0,0.0,0.0,0.0,0.0,0.0,0.0,0.0,0.0,0.0,0.0,0.0,0.0,0.0,0.0,0.641,0.6379,0.7582,0.8597,0.9444,0.9519,0.9564,0.9441,0.8969,0.8017,0.6878,0.4719,0.3028,0.1538,-0.0349,-0.1279,-0.1866,-0.3077,-0.3265,-0.3022,0.0,0.0,0.0,0.0,0.0,0.0,0.0,0.0,0.0,0.0,2.288,2.2419,0.0,0.0,0.0,0.0,0.0,0.0,0.0,1.5669,1.3754,1.2498,1.118,0.9972,0.8868,0.6712,0.5006,0.3744,0.2748,0.2195,0.1975,0.2236,0.2462,0.2605,0.2767,0.2642,0.2213,0.1806,0.1695,0.1833,0.19,0.2188,0.2715,0.0,0.0,0.0,0.0,0.0,0.0,0.0,0.0,0.0,1.4988,1.7517,1.9893,2.1011,2.3104,2.5125,2.5629,2.6044,2.6373,2.6508,2.6161,2.5843,2.6459,2.7097,2.8119,2.9698,3.0358,3.0495,3.0002,2.9695,0.0,0.0,0.0,0.0,0.0,0.0,0.0,0.0,0.0,0.0,0.0,0.0,0.0,0.0,0.0,0.0,0.0,0.0,0.0,0.0,0.0,0.0,0.0,0.0,0.0,0.6419,0.7505,0.8392,0.9093,0.9318,0.9381,0.9246,0.8133,0.7027,0.5925,0.3925,0.2573,0.1861,0.0113,-0.0789,-0.1369,-0.2553,-0.2967,-0.2962,0.0,0.0,0.0,0.0,0.0,0.0,0.0,0.0,0.0,0.0,2.3664,2.3208,0.0,0.0,0.0,0.0,0.0,0.0,0.0,0.0,1.3653,1.2327,1.1875,1.0598,0.8406,0.6923,0.5595,0.4453,0.2908,0.2267,0.2485,0.3003,0.351,0.4012,0.4809,0.4552,0.3607,0.3964,0.3752,0.3151,0.3397,0.374,0.4119,0.4259,0.0,0.0,0.0,0.0,0.0,0.0,0.0,0.0,1.4688,1.6433,1.8206,2.0791,2.293,2.4885,2.648,2.6982,2.7141,2.737,2.6257,2.5421,2.6372,2.7261,2.8037,2.8818,2.9299,2.9643,2.9957,2.9239,0.0,0.0,0.0,0.0,0.0,0.0,0.0,0.0,0.0,0.0,0.0,0.0,0.0,0.0,0.0,0.0,0.0,0.0,0.0,0.0,0.0,0.0,0.0,0.0,0.0,0.0,0.7536,0.8221,0.8842,0.8977,0.9099,0.8925,0.7197,0.596,0.5257,0.3768,0.2826,0.2166,0.065,-0.0322,-0.0977,-0.2135,-0.2649,-0.2858,0.0,0.0,0.0,0.0,0.0,0.0,0.0,0.0,0.0,0.0,0.0,0.0,0.0,0.0,0.0,0.0,0.0,0.0,0.0,0.0,1.5,1.414,1.2234,1.0439,0.8947,0.7316,0.616,0.5459,0.3683,0.2914,0.3173,0.3498,0.4223,0.5117,0.5287,0.5284,0.5165,0.5189,0.5013,0.4667,0.5116,0.5157,0.5046,0.5109,0.515,0.0,0.0,0.0,0.0,0.0,0.0,0.0,1.3686,1.6033,1.8331,1.993,2.2043,2.4115,2.5195,2.5862,2.6318,2.6533,2.6342,2.6315,2.6721,2.7408,2.8037,2.8818,2.9299,2.9472,2.9468,0.0,0.0,0.0,0.0,0.0,0.0,0.0,0.0,0.0,0.0,0.0,0.0,0.0,0.0,0.0,0.0,0.0,0.0,0.0,0.0,0.0,0.0,0.0,0.4585,0.4893,0.5432,0.0,0.702,0.7851,0.8696,0.8836,0.8366,0.7322,0.6226,0.5416,0.4634,0.3621,0.2899,0.2425,0.1165,0.0314,-0.0314,-0.1441,-0.2026,-0.22,0.0,0.0,0.0,0.0,0.0,0.0,0.0,0.0,0.0,0.0,0.0,0.0,0.0,0.0,0.0,0.0,0.0,0.0,0.0,0.0,1.6008,1.4919,1.2915,1.1131,0.978,0.8165,0.6951,0.6186,0.4902,0.4313,0.4433,0.5158,0.6061,0.7065,0.7476,0.7435,0.7016,0.7024,0.6612,0.6085,0.609,0.6037,0.5826,0.5581,0.5501,0.551,0.5778,0.0,0.0,0.0,0.0,0.0,0.0,0.0,1.6609,1.8434,2.0605,2.2716,2.4141,2.5225,2.6062,2.6491,2.6777,2.6966,2.7104,2.7569,2.8144,2.8154,2.8968,2.9527,0.0,0.0,0.0,0.0,0.0,0.0,0.0,0.0,0.0,0.0,0.0,0.0,0.0,0.0,0.0,0.0,0.0,0.0,0.0,0.0,0.0,0.0,0.0,0.0,0.4542,0.4755,0.5317,0.6085,0.688,0.766,0.8319,0.8696,0.8051,0.6584,0.5951,0.5161,0.4484,0.3416,0.2832,0.2475,0.144,0.061,-0.0102,-0.0894,-0.1564,-0.1937,0.0,0.0,0.0,0.0,0.0,0.0,0.0,0.0,0.0,0.0,0.0,0.0,0.0,0.0,0.0,0.0,0.0,0.0,0.0,0.0,0.0,1.5184,1.3558,1.2101,1.0725,0.9075,0.7863,0.6992,0.6425,0.6198,0.6444,0.7267,0.8117,0.918,0.9903,0.9725,0.8888,0.8869,0.825,0.7389,0.7123,0.6921,0.6704,0.611,0.5877,0.5776,0.5823,0.5873,0.6117,0.702,0.0,0.0,0.0,0.0,1.4213,1.663,1.8839,2.0879,2.2708,2.4562,2.6098,2.7056,2.7487,2.7691,2.7462,2.7991,2.8265,2.7473,2.8489,2.9297,0.0,0.0,0.0,0.0,0.0,0.0,0.0,0.0,0.0,0.0,0.0,0.0,0.0,0.0,0.0,0.0,0.0,0.0,0.0,0.0,0.0,0.0,0.0,0.3675,0.4383,0.4752,0.5211,0.5746,0.663,0.7236,0.769,0.8166,0.7641,0.6422,0.5816,0.527,0.4582,0.3529,0.2969,0.2744,0.1705,0.089,0.0199,-0.0479,-0.1224,-0.1878,0.0,0.0,0.0,0.0,0.0,0.0,0.0,0.0,0.0,0.0,2.3908,2.3135,0.0,0.0,0.0,0.0,0.0,0.0,0.0,0.0,0.0,1.5085,1.3941,1.2683,1.1401,0.9772,0.8816,0.8683,0.806,0.8606,1.0146,0.8934,0.9307,1.0997,1.0819,1.0454,1.005,1.0039,0.9475,0.859,0.8843,0.8517,0.7797,0.7254,0.6895,0.6502,0.5832,0.5601,0.5565,0.5864,0.652,0.0,0.0,0.0,1.2318,1.4627,1.6848,1.8937,2.0498,2.3162,2.5975,2.7904,2.8185,2.8138,2.8772,2.8638,2.8384,0.0,2.8118,0.0,0.0,0.0,0.0,0.0,0.0,0.0,0.0,0.0,0.0,0.0,0.0,0.0,0.0,0.0,0.0,0.0,0.0,0.0,0.0,0.1551,0.1399,0.1649,0.2222,0.0,0.4004,0.4243,0.4687,0.5322,0.6255,0.6498,0.6088,0.6868,0.7018,0.6759,0.601,0.5591,0.5335,0.4113,0.3538,0.342,0.2294,0.1461,0.0669,-0.0276,-0.0983,-0.1492,0.0,0.0,0.0,0.0,0.0,0.0,0.0,0.0,0.0,0.0,0.0,2.2922,0.0,0.0,0.0,0.0,0.0,0.0,0.0,0.0,0.0,1.6616,1.4856,1.3293,1.1939,1.036,0.9499,0.9313,0.9193,1.0102,1.1973,1.2165,1.2623,1.3412,1.3388,1.3107,1.2569,1.1559,1.0801,1.0221,0.9826,0.9515,0.9154,0.8453,0.799,0.7621,0.6701,0.6132,0.5803,0.5644,0.606,0.6765,0.7724,0.0,0.0,0.0,1.5257,1.7806,2.127,2.3817,2.602,2.8043,2.8597,2.8693,2.849,2.8619,2.8193,2.7112,0.0,0.0,0.0,0.0,0.0,0.0,0.0,0.0,0.0,0.0,0.0,0.0,0.0,0.0,0.0,0.0,0.0,0.0,0.0,0.0,0.0773,0.0631,0.0751,0.1513,0.2081,0.0,0.3618,0.4061,0.4618,0.517,0.5409,0.5602,0.5754,0.6084,0.6393,0.6556,0.5955,0.5642,0.5474,0.4504,0.3914,0.3558,0.2449,0.1431,0.0373,-0.0537,-0.1217,-0.1789,0.0,0.0,0.0,0.0,0.0,0.0,0.0,0.0,0.0,0.0,0.0,0.0,0.0,0.0,0.0,0.0,0.0,0.0,0.0,0.0,0.0,1.7886,1.5638,1.385,1.25,1.1192,1.0367,1.0134,1.0553,1.1715,1.3603,1.5067,1.5958,1.6168,1.5992,1.5583,1.4808,1.3174,1.2278,1.176,1.09,1.0523,1.0373,0.9786,0.9409,0.9075,0.7926,0.7191,0.6666,0.593,0.5924,0.635,0.7001,0.8453,0.0,0.0,0.0,1.7136,2.1492,2.3652,2.5283,2.7519,2.8381,2.8659,2.851,2.8535,2.8116,0.0,0.0,0.0,0.0,0.0,0.0,0.0,0.0,0.0,0.0,0.0,0.0,0.0,0.0,0.0,0.0,0.0,0.0,0.0,0.0,0.0,-0.0125,-0.0248,0.0124,0.1122,0.1701,0.2397,0.3236,0.3685,0.4133,0.4467,0.4254,0.4487,0.5053,0.5458,0.5952,0.6196,0.5841,0.5849,0.5878,0.5022,0.442,0.384,0.2615,0.1411,0.0184,-0.0789,-0.1607,-0.2393,0.0,0.0,0.0,0.0,0.0,0.0,0.0,0.0,0.0,0.0,0.0,0.0,2.2965,2.1971,2.1718,2.266,0.0,0.0,0.0,0.0,0.0,1.8294,1.5821,0.0,1.3315,1.2298,1.1685,1.1619,1.2297,1.3692,1.558,1.6882,1.8081,1.9101,1.8035,1.6979,1.5817,1.489,1.388,1.2903,1.2316,1.1738,1.1268,1.1398,1.1194,1.0671,0.9581,0.8769,0.8029,0.6668,0.6132,0.6099,0.6628,0.7846,0.9305,0.0,0.0,0.0,1.9411,2.1232,2.3141,2.6406,2.7441,2.8043,2.946,0.0,2.8052,0.0,0.0,0.0,0.0,0.0,0.0,0.0,0.0,0.0,0.0,0.0,0.0,0.0,0.0,0.0,0.0,0.0,0.0,0.0,0.0,0.0,-0.0847,-0.0858,-0.0614,0.0,0.0714,0.1533,0.2829,0.2868,0.2747,0.2471,0.2749,0.3105,0.3413,0.4698,0.547,0.5952,0.5982,0.6438,0.6851,0.5779,0.518,0.4732,0.3312,0.1881,0.0458,-0.0948,-0.2044,-0.2976,0.0,0.0,0.0,0.0,0.0,0.0,0.0,0.0,0.0,0.0,0.0,0.0,0.0,2.3231,2.2644,2.2951,2.2482,0.0,0.0,0.0,0.0,1.8524,1.646,1.4967,1.4295,1.3373,1.2917,1.2909,1.3755,1.4896,1.6435,1.8058,1.9238,1.9643,1.8632,1.7635,1.6606,1.5041,1.4079,1.3508,1.2928,1.2557,1.2542,1.2393,1.2608,1.2852,0.0,0.0,1.0795,0.983,0.8841,0.8174,0.8232,0.912,1.0573,1.2731,1.4942,1.7246,1.9373,2.1071,2.2667,2.4944,2.5813,2.6213,2.6997,2.7123,2.715,0.0,0.0,0.0,0.0,0.0,0.0,0.0,0.0,0.0,0.0,0.0,0.0,0.0,0.0,0.0,0.0,0.0,0.0,0.0,0.0,0.0,-0.0951,-0.0965,-0.0488,0.0612,0.0956,0.1641,0.2669,0.2568,0.2474,0.2391,0.2284,0.2539,0.3154,0.4275,0.5129,0.5614,0.6313,0.6721,0.6844,0.6225,0.5499,0.467,0.2906,0.1355,-0.0176,-0.1759,-0.2948,-0.3971,0.0,0.0,0.0,0.0,0.0,0.0,0.0,0.0,0.0,0.0,0.0,0.0,0.0,0.0,2.3816,2.3406,2.2823,2.224,2.1709,2.0393,1.9487,1.9114,1.7393,1.6179,1.563,1.4983,1.4653,1.4671,1.5444,1.6517,1.781,1.9289,2.0301,2.0575,1.9658,1.8499,1.7331,1.5735,1.4611,1.4095,1.3371,1.3157,1.3541,1.3573,1.4304,0.0,0.0,0.0,0.0,1.2733,0.0,1.0573,1.0103,1.0842,1.2113,1.3813,1.5745,1.7531,1.8974,2.0438,2.2025,2.3777,2.4252,2.4664,2.6037,2.6176,2.6115,0.0,0.0,0.0,0.0,0.0,0.0,0.0,0.0,0.0,0.0,0.0,0.0,0.0,0.0,0.0,0.0,0.0,0.0,0.0,0.0,0.0,-0.1295,-0.1077,-0.0484,0.073,0.131,0.1872,0.2417,0.2093,0.1891,0.1929,0.1699,0.1955,0.2712,0.3962,0.4805,0.5268,0.6274,0.6749,0.6824,0.6498,0.5659,0.453,0.2723,0.0869,-0.1011,-0.2594,-0.4088,-0.5352,0.0,0.0,0.0,0.0,0.0,0.0,0.0,0.0,0.0,3.2774,0.0,0.0,0.0,0.0,0.0,2.4181,2.2977,2.2453,2.2809,2.0568,1.958,2.0186,0.0,0.0,1.7417,1.705,1.6919,1.6881,1.7667,1.8668,1.999,2.0665,2.129,2.1545,2.1013,1.9927,1.8426,1.6724,1.5419,1.4453,1.3725,1.3679,1.4209,1.5208,0.0,0.0,1.7235,1.7426,0.0,1.5355,0.0,0.0,1.2257,1.2832,1.398,1.4276,1.5891,1.7688,0.0,0.0,0.0,2.2642,2.2741,2.3347,2.6739,0.0,2.5072,0.0,0.0,0.0,0.0,0.0,0.0,0.0,0.0,0.0,0.0,0.0,0.0,0.0,0.0,0.0,0.0,0.0,0.0,0.0,0.0,-0.2433,-0.1884,-0.1556,-0.0839,0.0353,0.165,0.2223,0.184,0.1543,0.1205,0.0844,0.098,0.1356,0.2093,0.3633,0.449,0.5028,0.5971,0.661,0.689,0.6547,0.5696,0.4524,0.2837,0.0588,-0.1928,-0.3522,-0.5255,-0.6992,0.0,0.0,0.0,0.0,0.0,0.0,0.0,0.0,3.7335,0.0,0.0,0.0,3.0367,2.8193,2.6524,2.5648,2.4723,2.3932,2.3223,2.1882,2.1068,2.1148,2.0018,1.9418,1.9494,1.9137,1.8907,1.8655,1.9246,2.0013,2.0784,2.1356,2.1882,2.2166,2.1136,1.9848,1.8407,1.7014,1.5584,1.438,1.4412,1.4579,0.0,0.0,0.0,0.0,0.0,2.0437,2.0361,0.0,1.8084,1.6585,0.0,1.5076,1.5269,1.6123,1.7287,1.8306,1.8249,0.0,0.0,0.0,0.0,0.0,0.0,0.0,0.0,0.0,0.0,0.0,0.0,0.0,0.0,0.0,0.0,0.0,0.0,0.0,0.0,0.0,0.0,0.0,0.0,0.0,0.0,0.0,-0.3807,-0.2896,-0.1884,-0.0726,0.0362,0.1043,0.164,0.187,0.1495,0.1161,0.0938,0.0949,0.0953,0.1313,0.2028,0.3359,0.4267,0.4662,0.5728,0.6126,0.6154,0.5812,0.5079,0.389,0.1985,-0.0236,-0.267,-0.5029,-0.6979,-0.862,0.0,0.0,0.0,0.0,0.0,0.0,0.0,0.0,4.0193,0.0,0.0,0.0,3.2295,3.0581,2.9099,2.7821,2.648,2.5414,2.457,2.3652,2.3023,2.2717,2.2409,2.197,2.1511,2.1431,2.113,2.0628,2.0997,2.1335,2.1577,0.0,2.2448,2.2217,2.1659,2.0403,1.8747,1.7792,1.6264,1.4567,1.4664,0.0,0.0,1.7287,1.8979,0.0,0.0,0.0,2.3546,2.3231,2.154,0.0,0.0,0.0,1.7385,1.7533,1.8631,1.9642,1.9184,1.9849,2.0605,2.0074,0.0,0.0,2.1822,2.1713,0.0,0.0,0.0,0.0,0.0,0.0,0.0,0.0,0.0,0.0,0.0,0.0,0.0,0.0,0.0,0.0,0.0,0.0,0.0,0.0,-0.3951,-0.2729,-0.1281,0.0,0.0835,0.1266,0.1625,0.1742,0.138,0.1035,0.0928,0.0943,0.1061,0.1409,0.2098,0.3265,0.3917,0.4407,0.5018,0.5223,0.5176,0.4783,0.416,0.3223,0.1164,-0.1189,-0.3754,-0.6348,-0.8389,-0.9933,0.0,0.0,0.0,0.0,0.0,0.0,0.0,0.0,0.0,0.0,3.9214,3.7404,3.4795,3.3834,3.2577,3.0649,2.856,2.7105,2.6735,2.5744,2.5036,2.4761,2.5055,2.4657,2.3623,2.3682,2.3317,0.0,0.0,0.0,0.0,0.0,0.0,0.0,2.2335,2.1275,1.9298,1.8923,1.7342,1.5193,1.5292,1.598,0.0,0.0,2.0318,2.2495,2.4303,2.5607,2.6512,2.6588,2.4627,0.0,0.0,0.0,0.0,0.0,2.0097,2.1585,2.0554,2.0883,2.1385,2.0919,0.0,0.0,2.2772,2.1843,2.1216,0.0,0.0,0.0,0.0,0.0,0.0,0.0,0.0,0.0,0.0,0.0,0.0,0.0,0.0,0.0,0.0,0.0,-0.5994,-0.5386,-0.3856,-0.2212,-0.0569,0.0349,0.1048,0.1369,0.1602,0.1603,0.1369,0.1027,0.092,0.0933,0.1282,0.1619,0.2159,0.3074,0.371,0.4085,0.4157,0.4238,0.4234,0.356,0.3183,0.2715,0.0442,-0.2113,-0.4839,-0.7551,-0.9618,-1.1167,0.0,0.0,0.0,0.0,0.0,0.0,0.0,0.0,4.5367,4.3652,4.207,4.0808,4.0184,3.7805,3.5898,3.4952,3.2381,3.0359,2.9573,2.7952,2.7096,2.7162,2.6435,2.5934,2.567,2.5377,0.0,0.0,0.0,0.0,0.0,0.0,0.0,0.0,2.225,2.1137,2.026,1.9747,1.9119,1.827,1.7255,0.0,1.9427,2.0347,2.1829,2.3812,2.5903,2.7567,2.8728,2.8824,2.7687,2.5881,0.0,0.0,0.0,2.2766,0.0,0.0,0.0,0.0,0.0,0.0,0.0,0.0,1.9686,1.9161,1.8862,0.0,0.0,0.0,0.0,0.0,0.0,0.0,0.0,0.0,0.0,0.0,0.0,0.0,0.0,0.0,0.0,0.0,-0.6708,-0.5994,-0.3962,-0.2179,-0.0865,0.0226,0.1132,0.1624,0.1778,0.1558,0.0975,0.065,0.0651,0.0871,0.1196,0.1616,0.2116,0.2959,0.3537,0.3685,0.4066,0.4144,0.3878,0.3057,0.26,0.2044,0.0,-0.2498,-0.5367,-0.8432,-1.0799,-1.2494,0.0,0.0,0.0,0.0,0.0,0.0,0.0,0.0,4.8133,4.7497,4.6173,4.4607,4.2697,4.0931,3.9117,3.708,3.5048,3.3252,3.167,3.0718,2.9934,2.929,2.877,2.8201,2.7579,2.6915,0.0,0.0,0.0,0.0,0.0,0.0,0.0,0.0,2.3049,2.2525,2.2268,2.1363,2.1083,2.111,1.9795,0.0,2.1044,2.2403,2.3708,2.5393,2.7675,2.9918,3.1523,3.0183,2.9889,0.0,0.0,2.6707,2.7118,0.0,2.4843,2.4791,0.0,0.0,0.0,2.1425,0.0,0.0,0.0,1.8807,1.8311,1.8758,0.0,0.0,0.0,0.0,0.0,0.0,0.0,0.0,0.0,0.0,0.0,0.0,0.0,0.0,0.0,0.0,-0.7446,-0.5677,-0.3653,-0.2004,-0.0745,0.0437,0.1313,0.1919,0.2059,0.1844,0.1279,0.1279,0.1173,0.1067,0.1796,0.2177,0.2519,0.3297,0.3728,0.3935,0.3988,0.3859,0.3561,0.2623,0.1787,0.0868,-0.1295,-0.3632,-0.624,-0.9686,-1.1781,-1.2985,5.4993,5.4597,0.0,0.0,0.0,0.0,0.0,0.0,5.0989,5.1023,5.0273,4.8559,4.5586,4.4604,4.3081,4.0412,3.834,3.6475,3.4579,0.0,3.274,3.1569,3.0964,3.0295,2.9524,2.8277,2.7193,0.0,0.0,0.0,0.0,0.0,0.0,0.0,2.4531,2.4421,2.4619,2.3355,0.0,2.3951,0.0,2.2445,2.2467,2.4098,2.5504,2.7019,2.9889,3.2506,3.4192,3.2395,3.2447,3.2792,2.9276,2.9392,0.0,0.0,0.0,0.0,0.0,0.0,0.0,0.0,0.0,2.0779,0.0,0.0,0.0,1.8596,0.0,0.0,0.0,0.0,0.0,0.0,0.0,0.0,0.0,0.0,0.0,0.0,0.0,0.0,0.0,0.0,-0.8041,-0.528,-0.3701,-0.2211,-0.0624,0.0628,0.1571,0.2087,0.241,0.2303,0.1774,0.1983,0.1879,0.1463,0.2367,0.2804,0.2986,0.3714,0.4194,0.4363,0.4018,0.3683,0.3273,0.2292,0.1091,-0.0345,-0.2533,-0.4794,-0.717,-1.0739,-1.2494,-1.3248,5.6492,5.5988,5.5532,0.0,0.0,0.0,0.0,0.0,5.3352,5.2921,5.2603,5.2426,5.2455,5.0661,4.926,4.9017,4.4284,0.0,4.0287,0.0,3.4746,3.456,3.2238,3.1237,3.1702,2.9241,2.7539,0.0,0.0,0.0,0.0,0.0,0.0,0.0,2.6391,2.6501,2.6407,2.5563,2.6008,0.0,2.7003,2.5565,0.0,2.4966,2.6511,2.8622,3.32,3.5387,3.629,0.0,3.6937,3.6501,0.0,3.436,3.4075,3.1759,0.0,0.0,0.0,0.0,0.0,0.0,2.3422,0.0,0.0,0.0,1.6863,1.525,0.0,0.0,0.0,0.0,0.0,0.0,0.0,0.0,0.0,0.0,0.0,0.0,0.0,0.0,0.0,0.0,0.0,-0.5746,-0.4516,-0.3099,-0.1155,0.0491,0.1476,0.1934,0.2651,0.2654,0.1837,0.2027,0.2123,0.2123,0.2406,0.2922,0.3351,0.4066,0.4435,0.4494,0.455,0.4128,0.3268,0.2218,0.0778,-0.0939,-0.3023,-0.5174,-0.7524,-1.0846,-1.2785,-1.3819,5.8009,5.7455,5.7141,5.686,0.0,0.0,0.0,0.0,5.6645,5.4672,5.5518,5.6059,5.5058,5.3555,5.2328,5.1989,0.0,4.5208,0.0,0.0,3.7926,3.6634,0.0,0.0,0.0,3.0581,2.8966,0.0,2.7401,0.0,0.0,0.0,0.0,0.0,2.8951,0.0,3.0755,0.0,2.9229,0.0,0.0,0.0,0.0,2.8525,3.0254,3.2435,3.5521,3.7227,3.7989,0.0,3.7748,0.0,0.0,0.0,0.0,0.0,0.0,0.0,0.0,0.0,0.0,0.0,0.0,0.0,2.0018,0.0,1.6387,0.0,0.0,0.0,0.0,0.0,0.0,0.0,0.0,0.0,0.0,0.0,0.0,0.0,0.0,0.0,0.0,0.0,0.0,0.0,0.0,-0.337,-0.1121,0.0572,0.173,0.2478,0.3172,0.3268,0.2766,0.2954,0.2954,0.2666,0.348,0.3959,0.4291,0.5009,0.5432,0.5657,0.4985,0.4341,0.346,0.2097,0.0413,-0.1495,-0.3909,-0.6034,-0.8152,-1.1482,-1.327,-1.4111,6.0107,5.937,5.8905,5.891,0.0,0.0,0.0,0.0,5.8944,5.7185,5.8342,5.9042,5.8034,5.6817,0.0,5.5765,5.2735,4.9694,0.0,0.0,4.159,0.0,0.0,0.0,0.0,3.2273,3.0524,2.9517,2.8853,0.0,0.0,0.0,0.0,0.0,0.0,3.2715,3.4289,0.0,3.2823,3.2275,3.3405,3.3219,3.2294,3.2478,3.3816,3.5949,3.7648,3.9193,3.9988,3.8868,3.9491,0.0,3.7716,0.0,0.0,0.0,0.0,0.0,3.1536,0.0,0.0,0.0,0.0,0.0,0.0,0.0,0.0,0.0,0.0,0.0,0.0,0.0,0.0,0.0,0.0,0.0,0.0,0.0,0.0,0.0,0.0,0.0,0.0,0.0,0.0,0.0,-0.582,0.0,-0.1088,0.0461,0.1769,0.2813,0.3565,0.3845,0.3655,0.3935,0.3935,0.3652,0.4489,0.5022,0.5262,0.5913,0.6309,0.6555,0.56,0.463,0.3605,0.2113,0.02,-0.1992,-0.441,-0.6498,-0.8504,-1.186,-1.3574,-1.4295,6.3038,6.1876,6.0683,5.9455,5.9689,0.0,0.0,0.0,0.0,0.0,0.0,0.0,0.0,0.0,0.0,0.0,0.0,5.4962,5.374,0.0,4.5603,0.0,0.0,3.7995,0.0,3.4253,3.1838,3.0723,3.0301,0.0,0.0,0.0,0.0,0.0,3.412,3.5248,3.578,3.5697,3.6515,3.7737,3.6981,3.7493,3.8498,0.0,3.6265,3.7963,4.0129,0.0,0.0,4.331,4.3819,0.0,0.0,0.0,0.0,0.0,0.0,0.0,0.0,0.0,0.0,2.7139,0.0,0.0,0.0,0.0,1.8649,0.0,0.0,0.0,0.0,0.0,0.0,-0.5972,0.0,0.0,0.0,0.0,0.0,0.0,0.0,0.0,0.0,0.0,0.0,0.0,-0.6687,0.0,-0.1214,0.0174,0.132,0.2516,0.3681,0.4308,0.4308,0.4755,0.5112,0.529,0.5436,0.5741,0.628,0.6539,0.6785,0.6865,0.6468,0.5267,0.3626,0.2304,0.0191,-0.2397,-0.4255,-0.6176,-0.8335,-1.1728,-1.3552,-1.432,6.5308,6.4597,6.3415,6.1224,6.0852,0.0,0.0,6.252,0.0,0.0,6.4119,0.0,0.0,6.4533,6.4096,0.0,0.0,5.8435,5.684,5.2185,0.0,0.0,0.0,4.0636,0.0,3.6671,3.4304,3.2868,3.2428,0.0,0.0,0.0,0.0,0.0,0.0,3.7827,0.0,0.0,0.0,0.0,0.0,4.1457,4.228,0.0,0.0,4.0082,4.1938,4.339,0.0,4.537,4.5579,4.5335,4.5101,4.4414,4.3454,4.246,4.1942,0.0,0.0,0.0,3.5593,3.0537,0.0,0.0,0.0,0.0,0.0,0.0,0.0,0.0,0.0,0.0,0.3736,-0.3121,-0.9127,0.0,0.0,0.0,0.0,0.0,0.0,0.0,0.0,0.0,0.0,-0.8147,-0.7118,-0.5012,0.0,0.0173,0.1592,0.2897,0.3824,0.4567,0.5013,0.5191,0.5458,0.5902,0.6298,0.6807,0.733,0.7753,0.7915,0.7838,0.6969,0.5748,0.4255,0.2774,0.0798,-0.1452,-0.3268,-0.5299,-0.7615,-1.0722,-1.2423,-1.315,6.6872,6.6637,6.579,6.3511,6.2906,0.0,0.0,0.0,0.0,0.0,6.6601,0.0,6.7065,0.0,6.5862,0.0,6.3263,6.0732,5.8337,5.472,0.0,5.0041,4.6283,0.0,0.0,0.0,3.7133,3.5294,3.4889,3.4223,0.0,0.0,0.0,0.0,0.0,3.99,4.2166,4.3287,4.4135,0.0,0.0,4.5341,0.0,0.0,4.3358,0.0,0.0,4.5849,4.6977,4.749,4.773,4.7786,4.7872,4.738,4.6597,4.5882,4.521,4.4237,4.1674,3.9985,0.0,0.0,3.0486,0.0,2.3833,0.0,0.0,0.0,0.0,0.0,0.0,0.0,0.0,0.1615,-0.61,0.0,0.0,-1.8859,0.0,0.0,0.0,0.0,0.0,0.0,-1.1526,-0.8512,-0.724,-0.5175,0.0,0.0,0.159,0.2809,0.3912,0.4835,0.5458,0.5902,0.6322,0.6624,0.7267,0.7835,0.8238,0.8631,0.8765,0.8637,0.7663,0.6396,0.4912,0.3461,0.1596,-0.0513,-0.1953,-0.3797,-0.6001,-0.9122,-1.1052,-1.1966,6.8004,6.8117,0.0,0.0,6.58,0.0,0.0,0.0,6.7981,0.0,6.8495,6.8213,6.8451,6.7571,6.6813,6.6103,6.4552,6.2157,5.8889,5.6788,0.0,0.0,4.9302,4.7134,4.5476,0.0,0.0,0.0,0.0,0.0,0.0,0.0,0.0,0.0,3.9323,0.0,4.3678,4.5427,4.7034,4.8459,4.873,4.9229,4.9761,5.0023,0.0,4.7454,4.8098,4.8949,4.9925,4.9721,5.0365,5.1256,5.0695,5.0755,5.0898,5.0416,4.9006,4.7143,4.4752,4.2494,3.9911,3.586,0.0,0.0,0.0,0.0,2.8662,0.0,0.0,0.0,0.0,0.0,0.0,0.7684,-0.1412,0.0,0.0,0.0,0.0,0.0,0.0,0.0,0.0,-1.3112,-1.154,-0.8434,-0.7352,-0.5317,0.0,0.0,0.0,0.2145,0.4028,0.5191,0.5719,0.6877,0.7505,0.761,0.8288,0.8756,0.9025,0.9299,0.936,0.9218,0.8503,0.725,0.5575,0.4427,0.2626,0.0495,-0.041,-0.1734,-0.3566,-0.7087,-0.9541,-1.0812,6.9424,7.0178,7.0753,0.0,6.8648,6.8036,0.0,0.0,0.0,0.0,7.0826,7.0188,6.9359,6.8555,6.7671,6.6441,6.4951,0.0,0.0,0.0,0.0,5.5905,5.1823,4.9125,4.8446,4.5114,0.0,4.112,0.0,0.0,3.745,0.0,0.0,0.0,0.0,4.252,4.5013,4.6778,4.9127,5.1629,5.238,5.2931,0.0,0.0,5.4614,5.4176,5.1626,5.1408,5.2307,5.2359,5.2729,5.331,5.3503,5.3441,5.3264,5.2731,5.1866,5.0456,4.7771,4.5824,4.3605,3.9607,3.6648,3.3982,0.0,0.0,0.0,0.0,0.0,0.0,0.0,0.0,0.0,0.0,0.0,0.0,0.0,0.0,0.0,-1.1736,0.0,0.0,0.0,-1.2466,-1.0742,-0.8694,-0.7103,-0.493,0.0,0.0,0.0,0.2362,0.4055,0.536,0.6251,0.7161,0.7945,0.8574,0.9465,0.9927,1.0129,1.0874,1.0784,0.9985,0.9717,0.8645,0.7041,0.6125,0.4769,0.3125,0.1996,0.0441,-0.1736,-0.6571,-0.8973,-0.9658,7.1444,7.2722,0.0,7.4062,0.0,0.0,7.3675,7.2794,0.0,7.3412,7.2701,0.0,6.994,6.907,6.7939,6.6085,6.4917,0.0,6.2011,0.0,0.0,5.6435,5.4027,5.2031,5.0532,4.7793,0.0,4.3711,0.0,0.0,3.9229,0.0,0.0,0.0,0.0,4.3703,4.6094,4.9281,5.2015,5.4117,5.4934,0.0,0.0,5.6763,5.748,5.778,5.5932,5.5092,5.487,5.4729,5.5153,5.5738,5.5974,5.5984,5.5822,5.5009,5.3815,5.2277,5.0009,4.766,4.5192,4.2843,3.9843,3.7059,3.5382,3.4657,3.3946,0.0,0.0,0.0,0.0,0.0,0.0,0.0,0.0,0.0,0.0,0.0,0.0,0.0,0.0,0.0,0.0,-1.1179,-1.0069,-0.876,-0.6865,0.0,0.0,0.0,0.0,0.0,0.4202,0.5695,0.6694,0.8019,0.8874,0.9379,1.0409,1.1066,1.1341,1.1872,1.1879,1.1417,1.1007,1.0149,0.9065,0.7857,0.6779,0.5572,0.3779,0.2149,0.0174,-0.4519,-0.6914,-0.7687,7.3991,7.5557,0.0,0.0,0.0,0.0,0.0,7.5766,0.0,7.5263,0.0,7.249,7.0372,6.9446,6.8071,6.5547,0.0,6.3327,6.0634,6.0629,5.9205,5.6022,5.6079,5.4939,5.2404,5.0573,0.0,0.0,0.0,0.0,0.0,0.0,0.0,0.0,0.0,0.0,0.0,5.2452,5.5256,5.6392,5.7024,5.7576,5.8107,5.8261,5.8837,5.9607,6.0101,5.9126,5.7559,5.709,5.7517,5.8198,5.8163,5.8227,5.8069,5.6918,5.5124,5.3087,5.1425,4.8432,4.558,4.5032,4.2541,4.0056,3.9545,3.8334,3.6997,3.576,3.361,0.0,0.0,0.0,0.0,0.0,0.0,0.0,0.0,0.0,0.0,0.0,0.0,0.0,0.0,0.0,0.0,-0.8672,-0.6674,0.0,0.0,0.0,0.0,0.0,0.4506,0.0,0.7224,0.0,1.0134,1.0258,1.1444,1.2134,1.2578,1.2687,1.2975,1.3186,1.239,1.1832,1.1334,0.9904,0.8869,0.7897,0.5414,0.3755,0.2348,-0.1252,-0.3685,-0.5136,7.7762,0.0,0.0,0.0,0.0,7.9862,8.0879,7.9197,7.7268,7.5919,7.5845,7.4499,7.1167,6.9943,6.8625,6.6816,6.5329,0.0,0.0,0.0,0.0,6.0114,5.7916,5.6251,5.5336,5.2964,5.0682,0.0,0.0,0.0,0.0,0.0,0.0,0.0,0.0,0.0,5.2315,5.5444,0.0,5.9072,5.8889,5.9266,5.9994,5.997,6.063,6.1477,6.1371,6.0932,6.0259,5.9363,5.961,6.0076,5.9151,5.8856,5.8608,5.7325,5.5468,5.3386,5.1025,4.8398,4.5943,4.4445,4.2369,4.0554,3.9677,3.7897,3.6181,3.5291,3.2835,2.9538,2.5241,0.0,0.0,0.0,0.0,0.0,0.0,0.0,0.0,0.0,0.0,0.0,0.0,0.0,0.0,0.0,0.0,0.0,0.0,0.0,0.0,0.0,0.0,0.0,0.0,0.0,0.0,1.169,1.2796,1.3566,1.4006,1.4565,1.4712,1.4673,1.4453,1.3949,1.3201,1.2821,1.1605,0.9746,0.7647,0.6409,0.5563,0.3531,0.0807,-0.2245,8.1873,0.0,0.0,0.0,0.0,0.0,0.0,8.2636,0.0,7.8014,7.6911,7.5352,7.2475,7.1169,6.9789,6.7967,6.6684,6.5742,6.5035,6.3754,6.272,6.2049,6.0501,0.0,5.7254,5.5386,5.3234,5.0847,0.0,0.0,0.0,0.0,0.0,0.0,0.0,5.0671,0.0,0.0,0.0,5.9941,6.0284,6.0574,6.0681,6.0913,6.1413,6.2022,6.1787,6.1822,6.187,6.0866,6.1021,6.1251,5.9823,5.9532,5.914,5.7056,5.5208,5.3335,5.0769,4.7888,4.5192,4.3592,4.1405,3.9453,3.8724,3.7104,3.5507,3.4573,3.2303,2.8425,2.1582,1.4927,0.0,0.0,0.0,0.0,0.0,0.0,0.0,0.0,0.0,0.0,0.0,0.0,0.0,0.0,0.0,0.0,0.0,0.0,0.0,0.0,0.0,0.0,0.0,0.0,0.0,1.3027,1.4126,1.5043,1.5848,1.6236,1.6565,1.672,1.654,1.6104,1.5514,1.4735,1.3565,1.2022,1.025,0.9205,0.8431,0.6239,0.4503,0.2604,0.0,8.4823,0.0,0.0,8.5842,0.0,8.4687,8.4905,8.3908,8.0263,7.8332,7.6346,7.4084,7.2576,7.0985,6.9032,6.7961,6.6957,6.5763,6.531,6.4533,6.341,6.2706,6.1379,5.9304,5.7956,5.5991,0.0,0.0,0.0,0.0,0.0,0.0,0.0,0.0,0.0,0.0,0.0,6.0323,6.107,6.1685,6.1567,6.1247,6.134,6.1587,6.1922,6.1624,6.2013,6.2539,6.1522,6.162,6.1949,6.0315,5.9785,5.9261,5.667,5.4635,5.2738,5.0281,4.7147,4.4316,4.2804,4.0485,3.8356,3.754,3.6087,3.4619,3.3416,3.1026,2.6862,1.9136,1.5219,0.0,0.0,0.0,0.0,0.0,0.0,0.0,0.0,0.0,0.0,0.0,0.0,0.0,0.0,0.0,0.0,0.0,0.0,0.0,0.0,0.0,0.0,1.0084,0.0,1.3277,0.0,1.5433,1.6601,1.7865,1.7891,1.8339,1.8923,1.8577,1.8271,1.7874,1.6448,1.5499,1.4634,1.2941,1.1979,1.116,0.9002,0.8057,0.7372,0.0,0.0,0.0,0.0,0.0,0.0,0.0,8.4551,8.3833,8.1388,8.0427,7.8804,7.555,7.3847,7.1987,6.9997,6.8395,6.7517,6.7759,6.6311,6.5558,6.5651,6.3889,6.2698,6.2172,6.0611,5.8723,0.0,0.0,0.0,0.0,0.0,0.0,0.0,0.0,0.0,0.0,6.2127,6.3297,6.3637,6.3092,6.2646,6.2164,6.163,6.1483,6.1589,6.1231,6.1534,6.1882,6.0405,6.0935,6.1949,6.0315,5.9371,5.8362,5.6145,5.3818,5.1497,4.9184,4.6624,4.4145,4.2189,4.0334,3.8432,3.6534,3.4758,3.3102,3.1328,2.7922,2.3778,1.9027,1.6834,1.4261,0.0,0.0,0.0,0.0,0.0,0.0,0.0,0.0,0.0,0.0,0.0,0.0,0.0,0.0,0.0,0.0,0.0,0.0,0.0,0.0,0.8083,0.9468,1.2544,0.0,1.5438,1.7024,1.8364,1.9575,1.948,2.0083,2.1107,2.0687,2.0435,2.0136,1.8536,1.7809,1.7601,1.5475,1.4462,1.4063,1.3459,1.2021,1.0363,0.0,0.0,0.0,0.0,0.0,0.0,0.0,8.6234,8.5613,8.3773,8.1956,7.9937,7.7414,7.5922,7.413,7.1951,7.037,6.9215,6.8577,6.7427,6.6702,6.6944,6.5562,6.4516,6.401,6.266,6.0969,0.0,0.0,0.0,0.0,0.0,0.0,0.0,0.0,6.1318,6.2609,6.4262,6.4819,6.457,6.4718,6.4064,6.2914,6.2457,6.21,6.1814,6.059,6.0546,6.0868,5.9639,6.0054,6.0783,5.9013,5.8019,5.7087,5.5098,5.2937,5.0578,4.8029,4.5734,4.3483,4.1026,3.9347,3.7898,3.6277,3.4335,3.2538,3.1185,2.741,2.3454,2.0604,1.7926,1.5194,0.0,0.0,0.0,0.0,0.0,0.0,0.0,0.0,0.0,0.0,0.0,0.0,0.0,0.0,0.0,0.0,0.0,0.0,0.5079,0.0,0.9376,1.0529,1.3485,1.5451,1.6475,1.7917,1.9259,2.0553,2.1041,2.1913,2.3095,2.2908,2.2737,2.2636,2.1258,2.0598,2.0233,1.7827,1.6666,1.63,1.6014,1.5377,1.46,8.961,0.0,8.9483,0.0,8.9074,8.8474,8.7735,8.7326,8.6678,8.5514,8.3564,8.1492,7.9261,7.746,7.5677,7.3446,7.2132,7.0826,6.9762,6.8789,6.8304,6.8182,6.7125,0.0,6.5742,6.4633,6.3378,6.1868,6.1286,0.0,0.0,0.0,0.0,0.0,6.2854,6.4186,6.489,6.6168,6.6308,6.581,6.6046,6.5386,6.4026,6.3379,6.2712,6.1981,6.0422,5.9937,5.9852,5.8902,5.8992,5.9328,5.7936,5.6967,5.5916,5.4085,5.2053,4.9791,4.7348,4.5223,4.3168,4.0769,3.9245,3.7947,3.6469,3.4612,3.2628,3.0769,2.7214,2.3821,2.1957,1.9259,1.6545,0.0,0.0,0.0,0.0,0.0,0.0,0.0,0.161,0.0538,0.0179,0.0,0.0,0.0,0.0,0.0,0.0,0.0,0.0,0.0,0.0,0.0,0.0,0.0,1.6485,1.7697,1.9121,2.0589,2.1957,2.3114,2.4165,2.5033,2.4766,2.476,2.4908,2.3396,2.2613,2.2148,1.9876,1.8704,1.8205,1.7964,1.7905,1.7827,9.1051,9.0878,9.0657,9.124,9.0458,8.9396,8.83,8.7077,8.6329,8.6294,8.5239,8.3605,8.1016,7.8317,7.6023,7.4435,7.3074,7.2113,7.1402,7.0769,7.0282,0.0,0.0,6.7335,6.7335,6.6794,6.5981,6.4815,0.0,0.0,6.2035,0.0,0.0,6.3696,6.6219,6.7062,6.643,6.7826,6.8158,6.7697,6.7042,6.6355,6.5607,6.4234,6.3163,6.2177,6.0982,5.9949,5.9073,5.8153,5.7677,5.7522,5.7485,5.6543,5.5069,5.3246,5.1211,4.9074,4.7299,4.5254,4.3327,4.1704,4.0256,3.8811,3.7064,3.5519,3.3472,2.9796,2.7006,2.4595,2.2724,2.092,1.8674,1.5444,0.0,0.0,0.0,0.0,0.0,0.0,0.2556,0.1835,0.24,0.0,0.0,0.0,0.0,0.0,0.0,0.0,0.0,0.9097,1.0114,0.0,1.366,1.5963,1.7781,1.93,2.0956,2.2592,2.4221,2.5882,2.6737,2.6857,2.6163,2.6218,2.6709,2.4644,2.3549,2.3039,2.1524,2.0473,1.975,1.9466,1.939,1.9424,9.0089,9.1422,9.214,9.0701,9.0516,9.0164,8.8916,8.792,8.724,8.6887,8.5945,8.4794,8.3534,8.0867,7.8387,0.0,7.5067,7.3845,0.0,7.2018,7.089,7.0282,6.9395,6.8565,6.8065,6.7439,6.6743,6.5912,0.0,0.0,0.0,6.488,6.5484,6.6529,6.7409,6.7909,6.809,6.8557,6.825,6.7536,6.7652,6.698,6.5607,6.4914,6.4234,6.3375,6.165,6.0843,6.0276,5.8612,5.784,5.7432,5.7014,5.5939,5.4544,5.2562,5.0848,4.919,4.7495,4.5884,4.4476,4.3466,4.1841,4.0212,3.9082,3.6107,3.3081,3.1264,2.8562,2.6006,2.4413,2.222,1.9863,1.7409,0.0,0.0,0.0,0.0,0.0,0.0,0.0,0.4931,0.0,0.3941,0.0,0.0,0.0,0.0,0.0,0.0,0.0,0.0,1.2277,0.0,1.53,1.7995,1.9511,2.002,2.1847,2.391,2.6105,2.724,2.7933,2.8208,2.8453,2.8092,2.7158,2.6332,2.5506,2.4591,2.254,2.1352,2.0817,2.0572,2.0044,1.9631,9.0676,9.1781,9.2382,9.1174,9.0956,9.0538,8.9389,8.8522,8.7808,8.7466,8.6629,8.5825,8.4923,8.2983,0.0,7.9163,7.756,7.6471,7.5982,7.4445,7.3133,7.2398,7.1438,7.0688,6.9952,0.0,0.0,6.8034,6.7597,6.7334,6.7053,6.7215,6.7421,6.7597,6.8092,6.828,6.8514,6.8727,6.8643,6.8055,6.8089,6.7449,6.6573,6.5596,6.4914,6.424,6.2436,6.1423,6.0722,5.8931,5.8076,5.7523,5.6591,5.5677,5.4577,5.2762,5.1142,4.9609,4.8133,4.6408,4.4899,4.4153,4.2615,4.0841,3.9622,3.6692,3.3891,3.2741,3.0117,2.7542,2.5959,2.3601,2.1223,1.9239,0.0,0.0,0.0,0.0,0.0,0.0,0.0,0.0,0.0,0.7031,0.0,0.0,0.0,0.0,0.0,0.0,0.0,1.2212,1.4684,0.0,1.7838,1.9465,2.0629,2.128,2.3519,2.5764,2.7867,2.8831,2.9436,2.9638,2.9972,2.946,2.8381,2.742,2.6542,2.5625,2.3669,2.2454,2.1833,2.155,2.112,2.0834,9.2604,9.2121,0.0,0.0,9.1615,0.0,8.9852,8.8891,8.8213,8.7901,8.7396,8.6672,8.5595,8.4861,8.3772,8.1725,0.0,0.0,0.0,7.7676,7.6675,7.5682,7.4464,0.0,7.2651,7.2229,7.1702,7.0901,7.0642,7.0089,6.9264,6.9649,6.8846,6.7449,6.8342,6.8358,6.7926,6.8514,6.8967,6.917,6.8064,6.7839,6.7919,6.6291,6.5293,6.4683,6.3267,6.2053,6.0835,5.9417,5.856,5.7952,5.6526,5.5813,5.5218,5.3579,5.1833,5.0175,4.8986,4.6885,4.4905,4.4161,4.2677,4.0984,3.906,3.7361,3.5681,3.4135,3.1695,2.9259,2.7365,2.4944,2.2643,2.0907,1.7711,1.5049,1.3951,0.0,0.0,0.0,0.0,0.0,0.0,1.0279,1.0655,0.0,0.0,0.0,0.0,0.0,0.0,1.6507,1.7158,1.8555,2.0902,2.0705,2.1483,2.3275,2.5926,2.8018,2.9619,3.0717,3.115,3.1026,3.0794,3.0475,2.9982,2.8055,2.696,2.6381,2.488,2.3789,2.2994,2.2498,2.2544,2.2883,0.0,0.0,9.3461,9.251,9.1654,9.0978,9.0286,8.9609,8.8934,8.8487,8.8086,8.7889,8.7833,8.7246,8.6816,8.6608,8.3235,8.1128,8.108,7.9639,7.8206,7.6978,7.6241,7.5308,7.4066,7.3707,7.289,7.152,7.0243,6.9748,6.9897,6.9297,6.8924,6.8688,6.7783,6.7724,6.8236,6.7627,6.7818,6.8205,6.7683,6.7447,6.7323,6.6638,6.6154,6.5709,6.4831,6.3871,6.2716,6.0788,5.9799,5.8896,5.6996,5.6182,5.5606,5.3871,5.2286,5.0819,4.9521,4.8043,4.6729,4.6265,4.4516,4.2398,4.0498,3.883,3.7246,3.5641,3.3567,3.138,2.8888,2.6535,2.4147,2.1824,1.8783,1.6515,1.5813,0.0,0.0,0.0,1.4637,1.4679,1.3547,1.3406,1.3281,0.0,0.0,0.0,0.0,0.0,1.7914,1.7948,1.9072,2.0578,2.2564,2.3699,2.5453,2.7673,2.8641,2.9867,3.1392,3.2228,3.2238,3.1541,3.1807,3.0906,2.9236,2.8859,2.8307,2.7534,2.5859,2.5286,2.5232,2.3955,2.3903,2.4506,9.3517,9.3489,9.333,9.2855,9.2014,9.1161,9.0172,8.9707,8.9285,8.8703,8.8805,8.8861,8.8986,8.8711,8.8666,8.8811,8.5875,8.3985,8.3972,8.2707,8.1276,7.974,7.9259,7.8276,7.6615,7.5795,7.4454,7.2671,7.1673,7.0984,7.0877,7.0039,6.9446,6.9234,6.8061,6.7829,6.8377,6.7742,6.7608,6.7873,6.7507,6.7243,6.7211,6.687,6.6617,6.628,6.5344,6.4421,6.3304,6.12,6.0038,5.9159,5.7585,5.6816,5.6169,5.5121,5.3313,5.1423,5.0039,4.8702,4.7573,4.6574,4.5072,4.3518,4.2201,4.0762,3.9233,3.7709,3.5561,3.3276,3.0998,2.8091,2.5363,2.3348,2.0689,1.8703,1.8279,1.7773,0.0,1.739,1.792,1.7912,1.7049,1.7171,1.7123,1.663,0.0,0.0,1.9456,2.1595,2.201,2.026,2.1274,2.2742,2.4675,2.6424,2.8232,3.0051,3.052,3.1524,3.2939,3.3566,3.345,3.2771,3.3064,3.2081,3.0302,3.0026,2.9398,2.8554,2.7043,2.6489,2.6416,2.5558,2.5379,2.563,9.5061,9.3687,9.2701,9.341,9.2604,9.1499,9.0264,9.0071,8.9901,8.9361,8.9624,8.988,8.9739,8.9703,8.9766,9.002,8.8525,8.7328,8.6755,8.5838,8.4523,8.295,8.2444,8.1367,7.9379,7.781,7.6146,7.4402,7.3829,7.3104,7.236,7.1523,7.0607,6.9752,6.8926,6.8447,6.8459,6.8051,6.7789,6.7804,6.7435,6.737,6.7319,6.726,6.6942,6.6479,6.5581,6.4461,6.3249,6.1376,6.0012,5.9122,5.8204,5.7332,5.6766,5.6413,5.4632,5.2317,5.0721,4.9234,4.7726,4.6218,4.537,4.4622,4.3831,4.2622,4.12,3.9807,3.7448,3.5002,3.3079,2.9657,2.6637,2.5081,2.2884,2.1238,2.0801,0.0,2.0848,2.0826,2.1069,2.1062,2.0614,2.1159,2.1243,2.0541,2.2503,0.0,0.0,2.508,2.5512,2.3343,2.3747,2.5068,2.7185,2.8935,3.0469,3.1783,3.2219,3.3103,3.4395,3.4808,3.4642,3.4062,3.4289,3.3508,3.1991,3.1322,3.0523,2.9572,2.8371,2.7676,2.7284,2.7006,2.68,2.6745,9.6384,9.475,9.3601,9.4306,9.3506,9.2745,9.2482,9.2316,9.2063,9.1547,9.1212,9.1112,9.1351,9.0976,9.0832,9.1331,9.085,8.9841,8.815,8.7177,8.5951,8.4623,8.3877,8.2822,8.1079,7.8499,7.7204,7.7245,7.5403,7.4561,7.4676,7.3129,7.2265,7.2082,7.0066,6.8911,6.86,6.7691,6.7573,6.7741,6.7574,6.766,6.7853,6.7985,6.7411,6.6662,6.6738,6.5611,6.3926,6.2801,6.1278,5.9522,5.8044,5.7275,5.6874,5.5772,5.4952,5.394,5.1825,4.9589,4.7638,4.6557,4.6327,4.5949,4.4326,4.3287,4.2262,4.0774,3.8894,3.672,3.4101,3.125,2.857,2.6244,2.4894,2.3699,0.0,0.0,2.5201,2.427,2.5552,2.6343,2.5918,2.4721,2.4397,2.5501,2.5539,2.5648,2.601,2.808,2.887,2.7906,2.7029,2.767,2.9954,3.1433,3.3066,3.4906,3.453,3.4941,3.6024,3.6294,3.5606,3.4297,3.5057,3.4418,3.2817,3.2693,3.2025,3.0959,2.9819,2.9305,2.9028,2.7761,2.7811,2.8519,9.7101,9.6437,9.5847,9.5725,9.5345,9.4664,9.3597,9.2853,9.2388,9.2187,9.205,9.2027,9.2472,9.2137,9.2056,9.2309,9.1945,9.1263,9.0365,8.9316,8.8157,8.6831,8.6062,8.4567,8.1883,8.0165,7.9007,7.8545,7.6985,7.6368,7.6656,7.4817,7.3989,7.3981,7.1468,7.0286,7.0055,6.8956,6.8468,6.8479,6.8548,6.864,6.8658,6.8438,6.8142,6.7779,6.6818,6.5593,6.4243,6.3035,6.1455,5.9894,5.8921,5.8257,5.7742,5.7055,5.5526,5.3746,5.2257,5.0693,4.9385,4.901,4.8151,4.7265,4.6621,4.4998,4.3418,4.2868,4.0622,3.8269,3.6414,3.3405,3.0816,2.9733,2.8152,0.0,0.0,2.8422,2.9076,2.9245,2.9866,3.0074,2.9554,2.8789,2.8491,2.8888,2.8754,2.8871,2.9272,3.0775,3.1341,3.0772,3.0487,3.0939,3.2126,3.344,3.4788,3.6193,3.5924,3.6251,3.7226,3.723,3.6826,3.6095,3.6439,3.5586,3.3955,3.3848,3.2913,3.1471,3.0714,3.0194,2.9825,2.9062,2.8807,2.8939,9.7855,9.7822,9.7681,9.7063,9.6989,9.6392,9.4685,9.3688,9.3117,9.3021,9.3048,9.3211,9.3434,9.3239,9.3085,9.3085,9.27,9.2407,9.2372,9.1572,9.0364,8.8589,8.7318,8.5463,8.2818,8.1738,8.0582,7.9421,7.861,7.8146,7.7782,7.644,7.5723,7.5602,7.3046,7.1755,7.1561,7.0507,6.987,6.955,6.9846,6.9805,6.9583,6.9328,6.9075,6.854,6.6959,6.5715,6.4573,6.3182,6.1676,6.0281,5.99,5.9245,5.8558,5.8416,5.6542,5.4251,5.3134,5.1919,5.0907,5.0795,4.9458,4.8242,4.8346,4.6493,4.4821,4.5042,4.2597,4.0078,3.9067,3.5922,3.3343,3.3136,0.0,0.0,0.0,3.2552,3.3002,3.3789,3.4027,3.389,3.3239,3.3007,3.2692,3.2147,3.2237,3.2354,3.2336,3.3547,3.407,3.3662,3.3477,3.353,3.3973,3.5042,3.6147,3.7224,3.6967,3.728,3.8045,3.7925,3.7694,3.7424,3.7471,3.6633,3.5133,3.4953,3.3836,3.2224,3.1613,3.1031,3.0501,3.0137,2.9749,2.9534,9.8842,9.8262,9.7892,9.7748,9.7785,9.7502,9.6575,9.6155,9.5721,9.5217,9.5169,9.495,9.4499,9.4141,9.3868,9.3797,9.3797,9.3612,9.3391,9.3297,9.1996,8.9117,8.6334,8.476,8.4487,8.285,8.139,8.0308,8.044,7.9593,7.7745,7.7841,7.7435,7.6433,7.4594,7.3424,7.2686,7.1599,7.1017,7.0895,7.1109,7.09,7.0481,7.0908,6.9967,6.8334,6.7728,6.6611,6.5309,6.4254,6.2438,6.0671,6.0637,5.9614,5.849,5.9012,5.8491,5.7349,5.5112,5.3003,5.1185,5.0136,4.9427,4.8781,4.7779,4.6964,4.6484,4.6684,4.4784,4.277,4.1719,3.8813,3.6218,3.5103,0.0,0.0,3.3166,3.5662,3.7291,3.6512,3.7926,3.8684,3.7985,3.7233,3.6558,3.5944,3.6021,3.5824,3.5133,3.678,3.7695,3.7653,3.5369,3.4502,3.535,3.6233,3.7414,3.883,3.802,3.7924,3.8435,3.8385,3.7806,3.6904,3.7566,3.7243,3.6155,3.5993,3.5104,3.3857,3.2921,3.2121,3.1382,3.0432,3.0563,3.1221,9.9402,9.8867,9.8525,9.8487,9.8225,9.7887,9.7248,9.7504,9.764,9.7246,9.7005,9.6887,9.6768,9.5603,9.4864,9.495,9.4864,9.4691,9.4427,9.3925,9.2549,9.0221,8.8076,8.6662,8.6113,8.4123,8.281,8.2187,8.1339,8.0573,7.9982,7.9282,7.8811,7.8588,7.6764,7.5569,7.4568,7.3929,7.3169,7.2562,7.2762,7.2835,7.2683,7.2424,7.1699,7.0616,6.9282,6.781,6.6268,6.5135,6.3297,6.1465,6.1949,6.0809,5.9279,5.9348,5.8931,5.8117,5.6517,5.465,5.3087,5.2895,5.1322,4.9945,5.035,4.8826,4.7494,4.8289,4.6525,4.4543,4.3647,4.151,3.9779,3.9509,0.0,3.7965,3.8893,3.9667,4.0272,4.0572,4.1254,4.1454,4.0688,3.9888,3.9146,3.8403,3.7921,3.7561,3.729,3.7888,3.8415,3.878,3.7656,3.6996,3.6914,3.7549,3.8324,3.9242,3.9153,3.9449,4.0034,3.9863,3.952,3.9118,3.9228,3.867,3.7711,3.7327,3.6218,3.4756,3.4251,3.3524,3.2719,3.2212,3.2269,3.2617,10.0199,9.9535,9.9148,9.9027,9.8679,9.8432,9.8115,9.8314,9.8688,9.9129,9.9385,9.9311,9.8648,9.7337,9.6356,9.6027,9.5866,9.5704,9.5576,9.4559,9.3049,9.0962,8.9129,8.7797,8.7089,8.4989,8.3638,8.3152,8.217,8.1551,8.1168,8.0572,8.0243,8.0039,7.8319,7.7134,7.6376,7.5578,7.4835,7.4229,7.4416,7.4425,7.4399,7.3865,7.3189,7.2371,7.0629,6.9141,6.78,6.6251,6.4463,6.282,6.3026,6.1822,6.0176,5.949,5.9131,5.8699,5.7195,5.5763,5.4581,5.3961,5.2375,5.1063,5.1565,5.0362,4.9352,5.0199,4.8626,4.6932,4.6379,4.4588,4.3188,4.308,4.1835,4.1317,4.2583,4.2552,4.271,4.3478,4.388,4.3778,4.2988,4.2424,4.1782,4.0937,4.0117,3.953,3.9188,3.9349,3.9553,3.9875,3.9794,3.9471,3.8932,3.9029,3.9331,3.981,4.0081,4.0336,4.0623,4.06,4.0418,4.0053,4.0036,3.9438,3.8456,3.8126,3.7154,3.5882,3.5361,3.4755,3.4084,3.3609,3.3567,3.3786,10.114,10.0403,9.9631,9.917,9.917,9.9291,9.9572,9.8814,9.8911,10.0898,10.2408,10.2291,9.9708,9.9164,9.843,9.7063,9.6878,9.6803,9.6575,9.5331,9.3484,9.1128,8.8742,8.7484,8.7484,8.5147,8.3528,8.2773,8.3116,8.2358,8.0623,8.1636,8.1599,8.0551,7.8783,7.8027,7.7883,7.6373,7.5865,7.6003,7.6003,7.567,7.5116,7.5116,7.441,7.324,7.1621,7.0714,6.988,6.7532,6.5951,6.4831,6.3534,6.2342,6.1006,5.9394,5.9313,5.9328,5.7094,5.6206,5.5244,5.2532,5.2072,5.1974,5.0732,5.1318,5.2189,5.2465,5.1294,5.0212,5.0212,4.8181,4.6237,4.5375,4.4672,4.3965,4.3245,4.3993,4.4657,4.4812,4.5625,4.585,4.5,4.4954,4.4628,4.3759,4.2893,4.1958,4.0952,4.1555,4.1748,4.1418,4.169,4.1679,4.1401,4.0682,4.0444,4.0693,4.0628,4.0312,3.9818,4.0405,4.0129,3.9126,3.9678,3.9261,3.8208,3.815,3.795,3.748,3.6276,3.5745,3.5497,3.4384,3.4274,3.4798,10.1482,10.1073,10.0625,9.9745,10.0123,10.018,9.9403,10.0606,10.1521,10.1313,10.1995,10.2108,10.0873,9.9897,9.8985,9.8196,9.8084,9.7599,9.634,9.5098,9.3857,9.2795,9.0471,8.8615,8.7479,8.561,8.4321,8.3647,8.3096,8.2545,8.2132,8.2325,8.2194,8.1842,8.13,8.0393,7.9165,7.8595,7.8122,7.7611,7.7443,7.7625,7.7946,7.7364,7.657,7.5531,7.3905,7.2344,7.0858,6.873,6.7068,6.5411,6.3453,6.2687,6.2032,6.0124,5.9387,5.8786,5.6654,5.6191,5.599,5.4537,5.3497,5.2994,5.3434,5.2996,5.2699,5.3467,5.2867,5.1836,5.0696,4.9952,4.9065,4.767,4.7332,4.7185,4.6978,4.6714,4.6593,4.669,4.6403,4.6091,4.5841,4.5324,4.4875,4.4571,4.3676,4.3013,4.2621,4.2541,4.2585,4.273,4.2978,4.3144,4.3141,4.2341,4.1615,4.1067,4.1747,4.1619,4.078,4.0767,4.0782,4.0762,4.0759,4.0731,4.0658,3.9945,3.9287,3.865,3.7886,3.7364,3.705,3.6945,3.7134,3.7403,10.232,10.1496,10.0824,10.0123,10.0389,10.0587,9.9972,10.1315,10.2278,10.223,10.2221,10.2108,10.1679,10.0682,9.9656,9.8966,9.8767,9.8054,9.6524,9.5681,9.4707,9.3501,9.174,9.0218,8.8927,8.6573,8.5261,8.486,8.3685,8.3127,8.3186,8.3069,8.2987,8.2867,8.2388,8.1501,8.0481,8.0,7.947,7.8966,7.8867,7.9032,7.9369,7.8986,7.8227,7.7258,7.598,7.4296,7.2382,7.0589,6.8378,6.6091,6.4022,6.3326,6.2822,6.0668,5.9688,5.8796,5.6668,5.6364,5.6369,5.528,5.4401,5.3994,5.4769,5.4286,5.3951,5.4956,5.4311,5.3255,5.2377,5.1717,5.0929,4.9678,4.9237,4.8983,4.8716,4.8265,4.7988,4.8008,4.7532,4.7237,4.7245,4.6811,4.6203,4.5422,4.4811,4.4079,4.3272,4.3192,4.314,4.3122,4.3701,4.3907,4.384,4.362,4.2988,4.1831,4.2542,4.238,4.1415,4.1302,4.1376,4.1523,4.1258,4.1255,4.1319,4.0889,4.0403,3.9963,3.9468,3.9076,3.8685,3.873,3.8654,3.8481,10.3173,10.1835,10.0595,10.0315,10.0403,10.0696,10.1126,10.1263,10.1909,10.3301,10.2808,10.2315,10.2315,10.139,10.0407,9.9462,9.902,9.832,9.7121,9.6705,9.5668,9.3766,9.2744,9.202,9.1489,8.7923,8.6163,8.6292,8.4679,8.3929,8.4004,8.3805,8.3657,8.362,8.2384,8.1911,8.1815,8.0933,8.0456,8.037,8.037,8.0283,8.0157,8.0235,7.9459,7.8427,7.7818,7.6216,7.4014,7.2413,6.9763,6.6879,6.5131,6.4237,6.3438,6.1117,6.0112,5.9239,5.7109,5.6781,5.6694,5.5314,5.5056,5.5139,5.5113,5.5347,5.5798,5.6726,5.5714,5.4688,5.4727,5.3498,5.2186,5.1358,5.0636,4.99,4.915,4.8975,4.8906,4.8931,4.8868,4.8806,4.8815,4.8794,4.8102,4.6463,4.618,4.5351,4.3605,4.3787,4.3718,4.3174,4.4076,4.4302,4.3858,4.4657,4.4331,4.2858,4.3068,4.2687,4.18,4.1856,4.1755,4.1621,4.1337,4.1082,4.0912,4.1173,4.1255,4.1271,4.1063,4.0658,4.0223,4.0048,3.9456,3.8791,10.3595,10.2516,10.1499,10.071,10.113,10.1301,10.052,10.1598,10.2588,10.2827,10.2699,10.2585,10.2585,10.1824,10.1012,10.01,9.919,9.8534,9.8248,9.6999,9.612,9.5843,9.4361,9.3317,9.2726,8.8994,8.7057,8.7203,8.5345,8.4843,8.5583,8.4695,8.4139,8.3892,8.3597,8.3303,8.3,8.2734,8.2853,8.3263,8.3102,8.3039,8.294,8.2338,8.1157,7.962,7.8359,7.6712,7.4638,7.1692,6.9851,6.8341,6.6197,6.5041,6.3981,6.1596,6.0518,5.9726,5.8014,5.7826,5.7846,5.7024,5.6914,5.6873,5.6226,5.6801,5.7519,5.7757,5.711,5.6348,5.5869,5.5021,5.393,5.2511,5.2149,5.1726,5.0934,5.0233,4.9832,4.9805,4.9235,4.8782,4.8815,4.8716,4.8448,4.7994,4.7801,4.7388,4.6661,4.6341,4.5969,4.5342,4.5658,4.5558,4.5026,4.5418,4.4858,4.3345,4.3528,4.3079,4.1963,4.1732,4.174,4.1862,4.1743,4.195,4.2378,4.1885,4.1835,4.2005,4.1677,4.1607,4.1707,4.1955,4.1937,4.1613,10.4188,10.3377,10.2599,10.1988,10.1912,10.1788,10.1062,10.1797,10.2369,10.232,10.232,10.232,10.232,10.1634,10.0822,10.0291,9.9592,9.9107,9.8728,9.7461,9.6654,9.662,9.4934,9.3686,9.3115,9.025,8.8638,8.8264,8.6746,8.6084,8.6168,8.5517,8.5047,8.4844,8.4689,8.47,8.4797,8.4626,8.477,8.4963,8.4866,8.4521,8.4089,8.3766,8.2579,8.1005,7.9912,7.7957,7.5357,7.2406,7.0846,6.9657,6.7021,6.5874,6.5023,6.2317,6.1053,6.0229,5.8681,5.84,5.8477,5.7726,5.8282,5.8814,5.7881,5.7875,5.8092,5.8158,5.7659,5.6979,5.6287,5.5524,5.4654,5.3403,5.2901,5.2341,5.1519,5.1343,5.1274,5.1239,5.1203,5.1014,5.051,4.9959,4.942,4.8933,4.868,4.8154,4.7365,4.6815,4.629,4.57,4.592,4.5971,4.5799,4.623,4.5942,4.4837,4.4292,4.3483,4.2411,4.1996,4.2078,4.2374,4.1894,4.2154,4.2867,4.2537,4.2676,4.3032,4.3174,4.2969,4.2711,4.3639,4.3525,4.2712,10.4884,10.4308,10.3728,10.3297,10.2685,10.2188,10.2132,10.2085,10.2085,10.2085,10.2008,10.1894,10.1903,10.1092,10.05,10.0227,10.0113,9.972,9.8832,9.7893,9.7161,9.6714,9.5134,9.3961,9.3344,9.173,9.0389,8.9316,8.8105,8.7209,8.6715,8.6332,8.6014,8.5914,8.5658,8.5896,8.6481,8.6406,8.6308,8.6266,8.6266,8.5648,8.4711,8.4907,8.3844,8.2182,8.1627,7.9329,7.6139,7.3579,7.2145,7.0871,6.7898,6.6889,6.6214,6.3423,6.2088,6.124,5.9779,5.9481,5.9474,5.8803,5.9766,6.0635,5.9831,5.9076,5.8619,5.8736,5.8121,5.7397,5.6783,5.5939,5.5054,5.4232,5.3553,5.2804,5.1913,5.2344,5.277,5.2699,5.328,5.3378,5.2549,5.1657,5.0773,4.9933,4.9586,4.8922,4.7805,4.7248,4.6654,4.6114,4.6306,4.6447,4.6575,4.7054,4.7055,4.6481,4.5309,4.4169,4.3046,4.2525,4.2528,4.2867,4.2064,4.2223,4.2899,4.3182,4.352,4.4038,4.477,4.4515,4.39,4.5027,4.4599,4.3337,10.4966,10.4719,10.4201,10.3428,10.3182,10.3011,10.2789,10.2827,10.2827,10.2827,10.2168,10.1797,10.1903,10.1006,10.0403,10.0177,10.0215,9.9784,9.8832,9.8098,9.7361,9.6752,9.5714,9.4929,9.4261,9.3268,9.1882,9.0193,8.841,8.7817,8.8425,8.742,8.6845,8.6744,8.659,8.683,8.7342,8.7342,8.764,8.8159,8.8276,8.7435,8.6088,8.6326,8.4967,8.2837,8.2217,7.9902,7.6776,7.4364,7.2999,7.1901,6.9319,6.8057,6.7212,6.5397,6.4335,6.357,6.272,6.2567,6.2603,6.256,6.2221,6.1902,6.187,6.1173,6.0555,6.0711,5.9584,5.8596,5.8637,5.7367,5.6048,5.5155,5.4896,5.4456,5.3611,5.3457,5.3468,5.3469,5.3398,5.3288,5.3086,5.2741,5.2411,5.2169,5.1802,5.1343,5.081,5.0304,4.9715,4.9234,4.884,4.8452,4.7998,4.7891,4.7637,4.7339,4.6748,4.5505,4.3664,4.3191,4.2925,4.2899,4.2583,4.2615,4.2965,4.3739,4.4216,4.4683,4.5535,4.5885,4.5872,4.5582,4.5329,4.4871,10.5618,10.541,10.5197,10.4673,10.4205,10.3803,10.3693,10.3197,10.293,10.2792,10.2499,10.2396,10.227,10.1634,10.0898,10.0391,10.0277,10.0125,9.9682,9.8883,9.8144,9.7532,9.6608,9.5578,9.4452,9.395,9.2831,9.1108,8.9672,8.8973,8.8897,8.8246,8.7901,8.7752,8.7701,8.7961,8.8592,8.8592,8.8781,8.9119,8.9173,8.8263,8.6844,8.7008,8.5603,8.3347,8.2323,8.0123,7.7531,7.6036,7.4384,7.2549,7.0622,6.9452,6.851,6.6921,6.5913,6.5093,6.4386,6.3826,6.3497,6.3553,6.3352,6.3146,6.3245,6.2963,6.2277,6.0837,5.9666,5.8804,5.8387,5.7302,5.6158,5.5279,5.506,5.4655,5.374,5.3959,5.4514,5.5362,5.5247,5.5039,5.4963,5.3836,5.3034,5.2704,5.2011,5.1376,5.0814,5.0373,4.9937,4.9424,4.899,4.8783,4.887,4.8653,4.8377,4.8129,4.769,4.6701,4.5183,4.4268,4.3735,4.3486,4.2875,4.2713,4.2965,4.3837,4.4319,4.4665,4.6009,4.6769,4.6908,4.5699,4.5472,4.5636]}]]